[[{"header":{"parameterUnit":"m.s-1","parameterCategory":1,"la1":31.0,"la2":29.5877,"lo1":-88.7671,"lo2":-86.6584,"dy":0.0162,"dx":0.0185,"nx":115,"ny":88,"refTime":"2024-05-05T12:00:00:Z","depth":0,"parameterNumber":2,"parameterNumberName":"U-component_of_WINDS"},"data":[0.0,0.0,0.0,0.0,0.0,0.0,0.0,0.0,0.0,0.0,0.0,0.0,0.0,0.0,0.0,0.0,0.0,0.0,0.0,0.0,0.0,0.0,0.0,0.0,0.0,0.0,0.0,0.0,0.0,0.0,0.0,0.0,0.0,0.0,0.0,0.0,0.0,0.0,0.0,0.0,0.0,0.0,0.0,0.0,0.0,0.0,0.0,0.0,0.0,0.0,0.0,0.0,0.0,0.0,0.0,0.0,0.0,0.0,0.0,0.0,0.0,0.0,0.0,0.0,0.0,0.0,0.0,0.0,0.0,0.0,0.0,0.0,0.0,0.0,0.0,0.0,0.0,0.0,0.0,0.0,0.0,0.0,0.0,0.0,0.0,0.0,0.0,0.0,0.0,0.0,0.0,0.0,0.0,0.0,0.0,0.0,0.0,0.0,0.0,0.0,0.0,0.0,0.0,0.0,0.0,0.0,0.0,0.0,0.0,0.0,0.0,0.0,0.0,0.0,0.0,0.0,0.0,0.0,0.0,0.0,0.0,0.0,0.0,0.0,0.0,0.0,0.0,0.0,0.0,0.0,0.0,0.0,0.0,0.0,0.0,0.0,0.0,0.0,0.0,0.0,0.0,0.0,0.0,0.0,0.0,0.0,0.0,0.0,0.0,0.0,0.0,0.0,0.0,0.0,0.0,0.0,0.0,0.0,0.0,0.0,0.0,0.0,0.0,0.0,0.0,0.0,0.0,0.0,0.0,0.0,0.0,0.0,0.0,0.0,0.0,0.0,0.0,0.0,0.0,0.0,0.0,0.0,0.0,0.0,0.0,0.0,0.0,0.0,0.0,0.0,0.0,0.0,0.0,0.0,0.0,0.0,0.0,0.0,0.0,0.0,0.0,0.0,0.0,0.0,0.0,0.0,0.0,0.0,0.0,0.0,0.0,0.0,0.0,0.0,0.0,0.0,0.0,0.0,0.0,0.0,0.0,0.0,0.0,0.0,0.0,0.0,0.0,0.0,0.0,0.0,0.0,0.0,0.0,0.0,0.0,0.0,0.0,0.0,0.0,0.0,0.0,0.0,0.0,0.0,0.0,0.0,0.0,0.0,0.0,0.0,0.0,0.0,0.0,0.0,0.0,0.0,0.0,0.0,0.0,0.0,0.0,0.0,0.0,0.0,0.0,0.0,0.0,0.0,0.0,0.0,0.0,0.0,0.0,0.0,0.0,0.0,0.0,0.0,0.0,0.0,0.0,0.0,0.0,0.0,0.0,0.0,0.0,0.0,0.0,0.0,0.0,0.0,0.0,0.0,0.0,0.0,0.0,0.0,0.0,0.0,0.0,0.0,0.0,0.0,0.0,0.0,0.0,0.0,0.0,0.0,0.0,0.0,0.0,0.0,0.0,0.0,0.0,0.0,0.0,0.0,0.0,0.0,0.0,0.0,0.0,0.0,0.0,0.0,0.0,0.0,0.0,0.0,0.0,0.0,0.0,0.0,0.0,0.0,0.0,0.0,0.0,0.0,0.0,0.0,0.0,0.0,0.0,0.0,0.0,0.0,0.0,0.0,0.0,0.0,0.0,0.0,0.0,0.0,0.0,0.0,0.0,0.0,0.0,0.0,0.0,0.0,0.0,0.0,0.0,0.0,0.0,0.0,0.0,0.0,0.0,0.0,0.0,0.0,0.0,0.0,0.0,0.0,0.0,0.0,0.0,0.0,0.0,0.0,0.0,0.0,0.0,0.0,0.0,0.0,0.0,0.0,0.0,0.0,0.0,0.0,0.0,0.0,0.0,0.0,0.0,0.0,0.0,0.0,0.0,0.0,0.0,0.0,0.0,0.0,0.0,0.0,0.0,0.0,0.0,0.0,0.0,0.0,0.0,0.0,0.0,0.0,0.0,0.0,0.0,0.0,0.0,0.0,0.0,0.0,0.0,0.0,0.0,0.0,0.0,0.0,0.0,0.0,0.0,0.0,0.0,0.0,0.0,0.0,0.0,0.0,0.0,0.0,0.0,0.0,0.0,0.0,0.0,0.0,0.0,0.0,0.0,0.0,0.0,0.0,0.0,0.0,0.0,0.0,0.0,0.0,0.0,0.0,0.0,0.0,0.0,0.0,0.0,0.0,0.0,0.0,0.0,0.0,0.0,0.0,0.0,0.0,0.0,0.0,0.0,0.0,0.0,0.0,0.0,0.0,0.0,0.0,0.0,0.0,0.0,0.0,0.0,0.0,0.0,0.0,0.0,0.0,0.0,0.0,0.0,0.0,0.0,0.0,0.0,0.0,0.0,0.0,0.0,0.0,0.0,0.0,0.0,0.0,0.0,0.0,0.0,0.0,0.0,0.0,0.0,0.0,0.0,0.0,0.0,0.0,0.0,0.0,0.0,0.0,0.0,0.0,0.0,0.0,0.0,0.0,0.0,0.0,0.0,0.0,0.0,0.0,0.0,0.0,0.0,0.0,0.0,0.0,0.0,0.0,0.0,0.0,0.0,0.0,0.0,0.0,0.0,0.0,0.0,0.0,0.0,0.0,0.0,0.0,0.0,0.0,0.0,0.0,0.0,0.0,0.0,0.0,0.0,0.0,0.0,0.0,0.0,0.0,0.0,0.0,0.0,0.0,0.0,0.0,0.0,0.0,0.0,0.0,0.0,0.0,0.0,0.0,0.0,0.0,0.0,0.0,0.0,0.0,0.0,0.0,0.0,0.0,0.0,0.0,0.0,0.0,0.0,0.0,0.0,0.0,0.0,0.0,0.0,0.0,0.0,0.0,0.0,0.0,0.0,0.0,0.0,0.0,0.0,0.0,0.0,0.0,0.0,0.0,0.0,0.0,0.0,0.0,0.0,0.0,0.0,0.0,0.0,0.0,0.0,0.0,0.0,0.0,0.0,0.0,0.0,0.0,0.0,0.0,0.0,0.0,0.0,0.0,0.0,0.0,0.0,0.0,0.0,0.0,0.0,0.0,0.0,0.0,0.0,0.0,0.0,0.0,0.0,0.0,0.0,0.0,0.0,0.0,0.0,0.0,0.0,0.0,0.0,0.0,0.0,0.0,0.0,0.0,0.0,0.0,0.0,0.0,0.0,0.0,0.0,0.0,0.0,0.0,0.0,0.0,0.0,0.0,0.0,0.0,0.0,0.0,0.0,0.0,0.0,0.0,0.0,0.0,0.0,0.0,0.0,0.0,0.0,0.0,0.0,0.0,0.0,0.0,0.0,0.0,0.0,0.0,0.0,0.0,0.0,0.0,0.0,0.0,0.0,0.0,0.0,0.0,0.0,0.0,0.0,0.0,0.0,0.0,0.0,0.0,0.0,0.0,0.0,0.0,0.0,0.0,0.0,0.0,0.0,0.0,0.0,0.0,0.0,0.0,0.0,0.0,0.0,0.0,0.0,0.0,0.0,0.0,0.0,0.0,0.0,0.0,0.0,0.0,0.0,0.0,0.0,0.0,0.0,0.0,0.0,0.0,0.0,0.0,0.0,0.0,0.0,0.0,0.0,0.0,0.0,0.0,0.0,0.0,0.0,0.0,0.0,0.0,0.0,0.0,0.0,0.0,0.0,0.0,0.0,0.0,0.0,0.0,0.0,0.0,0.0,0.0,0.0,0.0,0.0,0.0,0.0,0.0,0.0,0.0,0.0,0.0,0.0,0.0,0.0,0.0,0.0,0.0,0.0,0.0,0.0,0.0,0.0,0.0,0.0,0.0,0.0,0.0,0.0,0.0,0.0,0.0,0.0,0.0,0.0,0.0,0.0,0.0,0.0,0.0,0.0,0.0,0.0,0.0,0.0,0.0,0.0,0.0,0.0,0.0,0.0,0.0,0.0,0.0,0.0,0.0,0.0,0.0,0.0,0.0,0.0,0.0,0.0,0.0,0.0,0.0,0.0,0.0,0.0,0.0,0.0,0.0,0.0,0.0,0.0,0.0,0.0,0.0,0.0,0.0,0.0,0.0,0.0,0.0,0.0,0.0,0.0,0.0,0.0,0.0,0.0,0.0,0.0,0.0,0.0,0.0,0.0,0.0,0.0,0.0,0.0,0.0,0.0,0.0,0.0,0.0,0.0,0.0,0.0,0.0,0.0,0.0,0.0,0.0,0.0,0.0,0.0,0.0,0.0,0.0,0.0,0.0,0.0,0.0,0.0,0.0,0.0,0.0,0.0,0.0,0.0,0.0,0.0,0.0,0.0,0.0,0.0,0.0,0.0,0.0,0.0,0.0,0.0,0.0,0.0,0.0,0.0,0.0,0.0,0.0,0.0,0.0,0.0,0.0,0.0,0.0,-5.5409,0.0,0.0,0.0,0.0,0.0,0.0,0.0,0.0,0.0,0.0,0.0,0.0,0.0,0.0,0.0,0.0,0.0,0.0,0.0,0.0,0.0,0.0,0.0,0.0,0.0,0.0,0.0,0.0,0.0,0.0,0.0,0.0,0.0,0.0,0.0,0.0,0.0,0.0,0.0,0.0,0.0,0.0,0.0,0.0,0.0,0.0,0.0,0.0,0.0,0.0,0.0,0.0,0.0,0.0,0.0,0.0,0.0,0.0,0.0,0.0,0.0,0.0,0.0,0.0,0.0,0.0,0.0,0.0,0.0,0.0,0.0,0.0,0.0,0.0,0.0,0.0,0.0,0.0,0.0,0.0,0.0,0.0,0.0,0.0,0.0,0.0,0.0,0.0,0.0,0.0,0.0,0.0,0.0,0.0,0.0,0.0,0.0,0.0,0.0,0.0,0.0,0.0,0.0,0.0,0.0,0.0,0.0,0.0,0.0,0.0,-5.7464,-5.6796,-5.9108,-5.8598,-5.4765,0.0,0.0,0.0,0.0,0.0,0.0,0.0,0.0,0.0,0.0,0.0,0.0,0.0,0.0,0.0,0.0,0.0,0.0,0.0,0.0,0.0,0.0,0.0,0.0,0.0,0.0,0.0,0.0,0.0,0.0,0.0,0.0,0.0,0.0,0.0,0.0,0.0,0.0,0.0,0.0,0.0,0.0,0.0,0.0,0.0,0.0,0.0,0.0,0.0,0.0,0.0,0.0,0.0,0.0,0.0,0.0,0.0,0.0,0.0,0.0,0.0,0.0,0.0,0.0,0.0,0.0,0.0,0.0,0.0,0.0,0.0,0.0,0.0,0.0,0.0,0.0,0.0,0.0,0.0,0.0,0.0,0.0,0.0,0.0,0.0,0.0,0.0,0.0,0.0,0.0,0.0,0.0,0.0,0.0,0.0,0.0,0.0,0.0,0.0,0.0,0.0,0.0,0.0,0.0,0.0,0.0,0.0,0.0,0.0,0.0,0.0,0.0,-6.0739,-5.9719,-5.5275,0.0,0.0,0.0,0.0,0.0,0.0,0.0,0.0,0.0,0.0,0.0,0.0,0.0,0.0,0.0,0.0,0.0,0.0,0.0,0.0,0.0,0.0,0.0,0.0,0.0,0.0,0.0,0.0,0.0,0.0,0.0,0.0,0.0,0.0,0.0,0.0,0.0,0.0,0.0,0.0,0.0,0.0,0.0,0.0,0.0,0.0,0.0,0.0,0.0,0.0,0.0,0.0,0.0,0.0,0.0,0.0,0.0,0.0,0.0,0.0,0.0,0.0,0.0,0.0,0.0,0.0,0.0,0.0,0.0,0.0,0.0,0.0,0.0,0.0,0.0,0.0,0.0,0.0,0.0,0.0,0.0,0.0,0.0,0.0,0.0,0.0,0.0,0.0,0.0,0.0,0.0,0.0,0.0,0.0,0.0,0.0,0.0,0.0,0.0,0.0,0.0,0.0,0.0,0.0,0.0,0.0,0.0,0.0,0.0,0.0,-5.6448,-6.1188,-6.209,0.0,-5.8423,0.0,0.0,0.0,0.0,0.0,0.0,0.0,0.0,0.0,0.0,0.0,0.0,0.0,0.0,0.0,0.0,0.0,0.0,0.0,0.0,0.0,0.0,0.0,0.0,0.0,0.0,0.0,0.0,0.0,0.0,0.0,0.0,0.0,0.0,0.0,0.0,0.0,0.0,0.0,0.0,0.0,0.0,0.0,0.0,0.0,0.0,0.0,0.0,0.0,0.0,0.0,0.0,0.0,0.0,0.0,0.0,0.0,0.0,0.0,0.0,0.0,0.0,0.0,0.0,0.0,0.0,0.0,0.0,0.0,0.0,0.0,0.0,0.0,0.0,0.0,0.0,0.0,0.0,0.0,0.0,0.0,0.0,0.0,0.0,0.0,0.0,0.0,0.0,0.0,0.0,0.0,0.0,0.0,0.0,0.0,0.0,0.0,0.0,0.0,0.0,0.0,0.0,0.0,0.0,0.0,0.0,0.0,0.0,0.0,0.0,-5.8578,-6.2395,-6.1255,-5.9276,0.0,0.0,0.0,0.0,0.0,0.0,0.0,0.0,0.0,0.0,0.0,0.0,0.0,0.0,0.0,0.0,0.0,0.0,0.0,0.0,0.0,0.0,0.0,0.0,0.0,0.0,0.0,0.0,0.0,0.0,0.0,0.0,0.0,0.0,0.0,0.0,0.0,0.0,0.0,0.0,0.0,0.0,0.0,0.0,0.0,0.0,0.0,0.0,0.0,0.0,0.0,0.0,0.0,0.0,0.0,0.0,0.0,0.0,0.0,0.0,0.0,0.0,0.0,0.0,0.0,0.0,0.0,0.0,0.0,0.0,0.0,0.0,0.0,0.0,0.0,0.0,0.0,0.0,0.0,0.0,0.0,0.0,0.0,0.0,0.0,0.0,0.0,0.0,0.0,0.0,0.0,0.0,0.0,0.0,0.0,0.0,0.0,0.0,0.0,0.0,0.0,0.0,0.0,0.0,0.0,0.0,0.0,0.0,0.0,0.0,-5.891,-6.0438,-6.3591,-6.1559,-5.8668,-5.5351,0.0,0.0,0.0,0.0,0.0,0.0,0.0,0.0,0.0,0.0,0.0,0.0,0.0,0.0,0.0,0.0,0.0,0.0,0.0,0.0,0.0,0.0,0.0,0.0,0.0,0.0,0.0,0.0,0.0,0.0,0.0,0.0,0.0,0.0,0.0,0.0,0.0,0.0,0.0,0.0,0.0,0.0,0.0,0.0,0.0,0.0,0.0,0.0,0.0,0.0,0.0,0.0,0.0,0.0,0.0,0.0,0.0,0.0,0.0,0.0,0.0,0.0,0.0,0.0,0.0,0.0,0.0,0.0,0.0,0.0,0.0,0.0,0.0,0.0,0.0,0.0,0.0,0.0,0.0,0.0,0.0,0.0,0.0,0.0,0.0,0.0,0.0,0.0,0.0,0.0,0.0,0.0,0.0,0.0,0.0,0.0,0.0,0.0,0.0,0.0,0.0,0.0,0.0,0.0,0.0,0.0,0.0,0.0,-6.2917,-6.0392,-6.1198,-6.5973,-6.4007,-6.0695,0.0,0.0,0.0,0.0,0.0,0.0,0.0,0.0,0.0,0.0,0.0,0.0,0.0,0.0,0.0,0.0,0.0,0.0,0.0,0.0,0.0,0.0,0.0,0.0,0.0,0.0,0.0,0.0,0.0,0.0,0.0,0.0,0.0,0.0,0.0,0.0,0.0,0.0,0.0,0.0,0.0,0.0,0.0,0.0,0.0,0.0,0.0,0.0,0.0,0.0,0.0,0.0,0.0,0.0,0.0,0.0,0.0,0.0,0.0,0.0,0.0,0.0,0.0,0.0,0.0,0.0,0.0,0.0,0.0,0.0,0.0,0.0,0.0,0.0,0.0,0.0,0.0,0.0,0.0,0.0,0.0,0.0,0.0,0.0,0.0,0.0,0.0,0.0,0.0,0.0,0.0,0.0,0.0,0.0,0.0,0.0,0.0,0.0,0.0,0.0,0.0,0.0,0.0,0.0,0.0,0.0,0.0,0.0,0.0,-5.7903,-6.0282,-6.3299,-6.6847,-6.2847,-5.9599,0.0,0.0,0.0,0.0,0.0,0.0,0.0,0.0,0.0,0.0,0.0,0.0,0.0,0.0,0.0,0.0,0.0,0.0,0.0,0.0,0.0,0.0,0.0,0.0,0.0,0.0,0.0,0.0,0.0,0.0,0.0,0.0,0.0,0.0,0.0,0.0,0.0,0.0,0.0,0.0,0.0,0.0,0.0,0.0,0.0,0.0,0.0,0.0,0.0,0.0,0.0,0.0,0.0,0.0,0.0,0.0,0.0,0.0,0.0,0.0,0.0,0.0,0.0,0.0,0.0,0.0,0.0,0.0,0.0,0.0,0.0,0.0,0.0,0.0,0.0,0.0,0.0,0.0,0.0,0.0,0.0,0.0,0.0,0.0,0.0,0.0,0.0,0.0,0.0,0.0,0.0,0.0,0.0,0.0,0.0,0.0,0.0,0.0,0.0,0.0,0.0,0.0,0.0,0.0,0.0,0.0,0.0,0.0,0.0,-5.6931,0.0,-6.5696,-6.5878,-6.2376,-5.8794,0.0,0.0,0.0,0.0,0.0,0.0,0.0,0.0,0.0,0.0,0.0,0.0,0.0,0.0,0.0,0.0,0.0,0.0,0.0,0.0,0.0,0.0,0.0,0.0,0.0,0.0,0.0,0.0,0.0,0.0,0.0,0.0,0.0,0.0,0.0,0.0,0.0,0.0,0.0,0.0,0.0,0.0,0.0,0.0,0.0,0.0,0.0,0.0,0.0,0.0,0.0,0.0,0.0,0.0,0.0,0.0,0.0,0.0,0.0,0.0,0.0,0.0,0.0,0.0,0.0,0.0,0.0,0.0,0.0,0.0,0.0,0.0,0.0,0.0,0.0,0.0,0.0,0.0,0.0,0.0,0.0,0.0,0.0,0.0,0.0,0.0,0.0,0.0,0.0,0.0,0.0,0.0,0.0,0.0,0.0,0.0,0.0,0.0,0.0,0.0,0.0,0.0,0.0,0.0,0.0,0.0,0.0,0.0,-5.3235,-6.1057,-6.7185,-6.7969,-6.3188,-6.2888,-5.8508,0.0,0.0,0.0,0.0,0.0,0.0,0.0,0.0,0.0,0.0,0.0,0.0,0.0,0.0,0.0,0.0,0.0,0.0,0.0,0.0,0.0,0.0,0.0,0.0,0.0,0.0,0.0,0.0,0.0,0.0,0.0,0.0,0.0,0.0,0.0,0.0,0.0,0.0,0.0,0.0,0.0,0.0,0.0,0.0,0.0,0.0,0.0,0.0,0.0,0.0,0.0,0.0,0.0,0.0,0.0,0.0,0.0,0.0,0.0,0.0,0.0,0.0,0.0,0.0,0.0,0.0,0.0,0.0,0.0,0.0,0.0,0.0,0.0,0.0,0.0,0.0,0.0,0.0,0.0,0.0,0.0,0.0,0.0,0.0,0.0,0.0,0.0,0.0,0.0,0.0,0.0,0.0,0.0,0.0,0.0,0.0,0.0,0.0,0.0,0.0,0.0,0.0,0.0,0.0,0.0,0.0,0.0,0.0,0.0,-5.8715,-6.4127,-6.7632,-6.8667,-6.2785,-5.9439,0.0,0.0,0.0,0.0,0.0,0.0,0.0,0.0,0.0,0.0,0.0,0.0,0.0,0.0,0.0,0.0,0.0,0.0,0.0,0.0,0.0,0.0,0.0,0.0,0.0,0.0,0.0,0.0,0.0,0.0,0.0,0.0,0.0,0.0,0.0,0.0,0.0,0.0,0.0,0.0,0.0,0.0,0.0,0.0,0.0,0.0,0.0,0.0,0.0,0.0,0.0,0.0,0.0,0.0,0.0,0.0,0.0,0.0,0.0,0.0,0.0,0.0,0.0,0.0,0.0,0.0,0.0,0.0,0.0,0.0,0.0,0.0,0.0,0.0,0.0,0.0,0.0,0.0,0.0,0.0,0.0,0.0,0.0,0.0,0.0,0.0,0.0,0.0,0.0,0.0,0.0,0.0,0.0,0.0,0.0,0.0,0.0,0.0,0.0,0.0,0.0,0.0,0.0,0.0,0.0,0.0,0.0,0.0,0.0,-5.9521,-6.4211,-6.7443,-6.8895,-6.2366,-5.9101,-5.9579,0.0,0.0,0.0,0.0,0.0,0.0,0.0,0.0,0.0,0.0,0.0,0.0,0.0,0.0,0.0,0.0,0.0,0.0,0.0,0.0,0.0,0.0,0.0,0.0,0.0,0.0,0.0,0.0,0.0,0.0,0.0,0.0,0.0,0.0,0.0,0.0,0.0,0.0,0.0,0.0,0.0,0.0,0.0,0.0,0.0,0.0,0.0,0.0,0.0,0.0,0.0,0.0,0.0,0.0,0.0,0.0,0.0,0.0,0.0,0.0,0.0,0.0,0.0,0.0,0.0,0.0,0.0,0.0,0.0,0.0,0.0,0.0,0.0,0.0,0.0,0.0,0.0,0.0,0.0,0.0,0.0,0.0,0.0,0.0,0.0,0.0,0.0,0.0,0.0,0.0,0.0,0.0,0.0,0.0,0.0,0.0,0.0,0.0,0.0,0.0,0.0,0.0,0.0,0.0,0.0,0.0,0.0,0.0,-6.2548,-6.6902,-6.7776,-6.496,-6.203,-5.8181,0.0,0.0,0.0,0.0,0.0,0.0,0.0,0.0,0.0,0.0,0.0,0.0,0.0,0.0,0.0,0.0,0.0,0.0,0.0,0.0,0.0,0.0,0.0,0.0,0.0,0.0,0.0,0.0,0.0,0.0,0.0,0.0,0.0,0.0,0.0,0.0,0.0,0.0,0.0,0.0,0.0,0.0,0.0,0.0,0.0,0.0,0.0,0.0,0.0,0.0,0.0,0.0,0.0,0.0,0.0,0.0,0.0,0.0,0.0,0.0,0.0,0.0,0.0,0.0,0.0,0.0,0.0,0.0,0.0,0.0,0.0,0.0,0.0,0.0,0.0,0.0,0.0,0.0,0.0,0.0,0.0,0.0,0.0,0.0,0.0,0.0,0.0,0.0,0.0,0.0,0.0,0.0,0.0,0.0,0.0,0.0,0.0,0.0,0.0,0.0,0.0,0.0,0.0,0.0,0.0,0.0,0.0,0.0,0.0,-6.2573,-6.6772,-6.9288,-6.9805,-6.4374,-6.0738,0.0,0.0,0.0,0.0,0.0,0.0,0.0,0.0,0.0,0.0,0.0,0.0,0.0,0.0,0.0,0.0,0.0,0.0,0.0,0.0,0.0,0.0,0.0,0.0,0.0,0.0,0.0,0.0,0.0,0.0,0.0,0.0,0.0,0.0,0.0,0.0,0.0,0.0,0.0,0.0,0.0,0.0,0.0,0.0,0.0,0.0,0.0,0.0,0.0,0.0,0.0,0.0,0.0,0.0,0.0,0.0,0.0,0.0,0.0,0.0,0.0,0.0,0.0,0.0,0.0,0.0,0.0,0.0,0.0,0.0,0.0,0.0,0.0,0.0,0.0,0.0,0.0,0.0,0.0,0.0,0.0,0.0,0.0,0.0,0.0,0.0,0.0,0.0,0.0,0.0,0.0,0.0,0.0,0.0,0.0,0.0,0.0,0.0,0.0,0.0,0.0,0.0,0.0,0.0,0.0,0.0,0.0,0.0,-5.9505,-6.3453,-6.6691,-6.8948,-7.0237,-6.578,-6.2108,0.0,0.0,0.0,0.0,0.0,0.0,0.0,0.0,0.0,0.0,0.0,0.0,0.0,0.0,0.0,0.0,0.0,0.0,0.0,0.0,0.0,0.0,0.0,0.0,0.0,0.0,0.0,0.0,0.0,0.0,0.0,0.0,0.0,0.0,0.0,0.0,0.0,0.0,0.0,0.0,0.0,0.0,0.0,0.0,0.0,0.0,0.0,0.0,0.0,0.0,0.0,0.0,0.0,0.0,0.0,0.0,0.0,0.0,0.0,0.0,0.0,0.0,0.0,0.0,0.0,0.0,0.0,0.0,0.0,0.0,0.0,0.0,0.0,0.0,0.0,0.0,0.0,0.0,0.0,0.0,0.0,0.0,0.0,0.0,0.0,0.0,0.0,0.0,0.0,0.0,0.0,0.0,0.0,0.0,0.0,0.0,0.0,0.0,0.0,0.0,0.0,0.0,0.0,0.0,0.0,0.0,0.0,0.0,-6.0363,-6.4308,-6.65,-6.7669,-6.77,-6.6178,-6.2597,0.0,0.0,0.0,0.0,0.0,0.0,0.0,0.0,0.0,0.0,0.0,0.0,0.0,0.0,0.0,0.0,0.0,0.0,0.0,0.0,0.0,0.0,0.0,0.0,0.0,0.0,0.0,0.0,0.0,0.0,0.0,0.0,0.0,0.0,0.0,0.0,0.0,0.0,0.0,0.0,0.0,0.0,0.0,0.0,0.0,0.0,0.0,0.0,0.0,0.0,0.0,0.0,0.0,0.0,0.0,0.0,0.0,0.0,0.0,0.0,0.0,0.0,0.0,0.0,0.0,0.0,0.0,0.0,0.0,0.0,0.0,0.0,0.0,0.0,0.0,0.0,0.0,0.0,0.0,0.0,0.0,0.0,0.0,0.0,0.0,0.0,0.0,0.0,0.0,0.0,0.0,0.0,0.0,0.0,0.0,0.0,0.0,0.0,0.0,0.0,0.0,0.0,0.0,0.0,0.0,0.0,0.0,0.0,-6.0022,-6.1824,-6.5596,-6.7365,-6.6861,-6.4706,-6.1366,0.0,0.0,0.0,0.0,0.0,0.0,0.0,0.0,0.0,0.0,0.0,0.0,0.0,0.0,0.0,0.0,0.0,0.0,0.0,0.0,0.0,0.0,0.0,0.0,0.0,0.0,0.0,0.0,0.0,0.0,0.0,0.0,0.0,0.0,0.0,0.0,0.0,0.0,0.0,0.0,0.0,0.0,0.0,0.0,0.0,0.0,0.0,0.0,-5.9328,0.0,0.0,0.0,0.0,0.0,0.0,0.0,0.0,0.0,0.0,0.0,0.0,0.0,0.0,0.0,0.0,0.0,0.0,0.0,0.0,0.0,0.0,0.0,0.0,0.0,0.0,0.0,0.0,0.0,0.0,0.0,0.0,0.0,0.0,0.0,0.0,0.0,0.0,0.0,0.0,0.0,0.0,0.0,0.0,0.0,0.0,0.0,0.0,0.0,0.0,0.0,0.0,0.0,0.0,0.0,0.0,0.0,0.0,0.0,-5.9646,-6.1442,-6.4203,-6.5537,-6.5258,-6.3751,-6.0911,0.0,0.0,0.0,0.0,0.0,0.0,0.0,0.0,0.0,0.0,0.0,0.0,0.0,0.0,0.0,0.0,0.0,0.0,0.0,0.0,0.0,0.0,0.0,0.0,0.0,0.0,0.0,0.0,0.0,0.0,0.0,0.0,0.0,0.0,0.0,0.0,0.0,0.0,0.0,0.0,0.0,0.0,0.0,0.0,0.0,0.0,0.0,0.0,0.0,0.0,0.0,0.0,0.0,0.0,0.0,0.0,0.0,0.0,0.0,0.0,0.0,0.0,0.0,0.0,0.0,0.0,0.0,0.0,0.0,0.0,0.0,0.0,0.0,0.0,0.0,0.0,0.0,0.0,0.0,0.0,0.0,0.0,0.0,0.0,0.0,0.0,0.0,0.0,0.0,0.0,0.0,0.0,0.0,0.0,0.0,0.0,0.0,0.0,0.0,0.0,0.0,0.0,0.0,0.0,0.0,0.0,0.0,-5.6179,-5.8923,-6.139,-6.2543,-6.3167,-6.333,-6.2852,-6.0465,-5.6172,0.0,0.0,0.0,0.0,0.0,0.0,0.0,0.0,0.0,0.0,0.0,0.0,0.0,0.0,0.0,0.0,0.0,0.0,0.0,0.0,0.0,0.0,0.0,0.0,0.0,0.0,0.0,0.0,0.0,0.0,0.0,0.0,0.0,0.0,0.0,0.0,0.0,0.0,-5.2529,-5.6338,0.0,0.0,0.0,0.0,0.0,0.0,0.0,0.0,-6.0956,0.0,0.0,0.0,0.0,0.0,0.0,0.0,0.0,0.0,0.0,0.0,0.0,0.0,0.0,0.0,0.0,0.0,0.0,0.0,0.0,0.0,0.0,0.0,0.0,0.0,0.0,0.0,0.0,0.0,0.0,0.0,0.0,0.0,0.0,0.0,0.0,0.0,0.0,0.0,0.0,0.0,0.0,0.0,0.0,0.0,0.0,0.0,0.0,0.0,0.0,0.0,0.0,0.0,0.0,0.0,0.0,-5.4893,-5.5606,-5.713,-5.9581,-6.0759,-6.1341,-6.1359,-6.1478,-5.914,-5.4329,0.0,0.0,0.0,0.0,0.0,0.0,0.0,0.0,0.0,0.0,0.0,0.0,0.0,0.0,0.0,0.0,0.0,0.0,0.0,0.0,0.0,0.0,0.0,0.0,0.0,0.0,0.0,0.0,0.0,0.0,0.0,0.0,0.0,0.0,0.0,0.0,0.0,0.0,0.0,-5.9666,-6.1793,0.0,0.0,0.0,0.0,0.0,0.0,0.0,0.0,-5.9683,0.0,0.0,0.0,0.0,0.0,0.0,0.0,0.0,0.0,0.0,0.0,0.0,0.0,0.0,0.0,0.0,0.0,0.0,0.0,0.0,0.0,0.0,0.0,0.0,0.0,0.0,0.0,0.0,0.0,0.0,0.0,0.0,0.0,0.0,0.0,0.0,0.0,0.0,0.0,0.0,0.0,0.0,0.0,0.0,0.0,0.0,0.0,0.0,0.0,0.0,0.0,0.0,0.0,0.0,0.0,-5.2589,-5.4084,-5.5593,-5.7239,-5.822,-5.8794,-5.8906,-5.864,-5.6676,0.0,0.0,0.0,0.0,0.0,0.0,0.0,0.0,0.0,0.0,0.0,0.0,0.0,0.0,0.0,0.0,0.0,0.0,0.0,0.0,0.0,0.0,0.0,0.0,0.0,0.0,0.0,0.0,0.0,0.0,0.0,0.0,0.0,0.0,0.0,0.0,0.0,0.0,0.0,0.0,-6.0886,-6.2528,-6.455,0.0,0.0,0.0,0.0,0.0,0.0,-5.921,-5.8967,0.0,0.0,0.0,0.0,0.0,0.0,0.0,0.0,0.0,0.0,0.0,0.0,0.0,0.0,0.0,0.0,0.0,0.0,0.0,0.0,0.0,0.0,0.0,0.0,0.0,0.0,0.0,0.0,0.0,0.0,0.0,0.0,0.0,0.0,0.0,0.0,0.0,0.0,0.0,0.0,0.0,0.0,0.0,0.0,0.0,0.0,0.0,0.0,0.0,0.0,0.0,0.0,0.0,0.0,0.0,-5.0118,-5.2114,-5.3849,-5.532,-5.5849,-5.629,-5.6646,-5.5789,-5.4223,0.0,0.0,0.0,0.0,0.0,0.0,0.0,0.0,0.0,0.0,0.0,0.0,0.0,0.0,0.0,0.0,0.0,0.0,0.0,0.0,0.0,0.0,0.0,0.0,0.0,0.0,0.0,0.0,0.0,0.0,0.0,0.0,0.0,0.0,0.0,0.0,0.0,0.0,0.0,0.0,0.0,-6.2719,-6.415,-6.2897,0.0,0.0,0.0,0.0,-5.8272,-5.9237,0.0,0.0,0.0,0.0,0.0,0.0,0.0,0.0,0.0,0.0,0.0,0.0,0.0,0.0,0.0,0.0,0.0,0.0,0.0,0.0,0.0,0.0,0.0,0.0,0.0,0.0,0.0,0.0,0.0,0.0,0.0,0.0,0.0,0.0,0.0,0.0,0.0,0.0,0.0,0.0,0.0,0.0,0.0,0.0,0.0,0.0,0.0,0.0,0.0,0.0,0.0,0.0,0.0,0.0,0.0,0.0,-4.9568,-4.9743,-5.1466,-5.4743,-5.4353,-5.4441,-5.52,-5.3996,-5.2534,0.0,0.0,0.0,0.0,0.0,0.0,0.0,0.0,0.0,0.0,0.0,0.0,0.0,0.0,0.0,0.0,0.0,0.0,0.0,0.0,0.0,0.0,0.0,0.0,0.0,0.0,0.0,0.0,0.0,0.0,0.0,0.0,0.0,0.0,0.0,0.0,0.0,0.0,0.0,0.0,0.0,-6.2333,-6.1976,-6.1652,-6.1191,0.0,0.0,-6.0426,-6.0591,-6.2571,0.0,0.0,0.0,0.0,0.0,0.0,0.0,0.0,0.0,0.0,0.0,0.0,0.0,0.0,0.0,0.0,0.0,0.0,0.0,0.0,0.0,0.0,0.0,0.0,0.0,0.0,0.0,0.0,0.0,0.0,0.0,0.0,0.0,0.0,0.0,0.0,0.0,0.0,0.0,0.0,0.0,0.0,0.0,0.0,0.0,0.0,0.0,0.0,0.0,0.0,0.0,0.0,0.0,0.0,0.0,-4.3745,-4.6483,-4.7391,-4.8638,-5.0229,-5.0486,-5.0771,-5.1187,-5.0298,-4.9515,0.0,0.0,0.0,0.0,0.0,0.0,0.0,0.0,0.0,0.0,0.0,0.0,0.0,0.0,0.0,0.0,0.0,0.0,0.0,0.0,0.0,0.0,0.0,0.0,0.0,0.0,0.0,0.0,0.0,0.0,0.0,0.0,0.0,0.0,0.0,0.0,0.0,0.0,0.0,0.0,0.0,0.0,-6.2069,-6.1535,0.0,0.0,0.0,-5.9754,-5.9999,0.0,0.0,0.0,0.0,0.0,0.0,0.0,0.0,0.0,0.0,0.0,0.0,0.0,0.0,0.0,0.0,0.0,0.0,0.0,0.0,0.0,0.0,0.0,0.0,0.0,0.0,0.0,0.0,0.0,0.0,0.0,0.0,0.0,0.0,0.0,0.0,0.0,0.0,0.0,0.0,0.0,0.0,0.0,0.0,0.0,0.0,0.0,0.0,0.0,0.0,0.0,0.0,0.0,0.0,0.0,0.0,0.0,-4.3748,-4.5131,-4.5938,-4.6079,-4.6754,-4.7353,-4.7818,-4.7076,0.0,0.0,0.0,0.0,0.0,0.0,0.0,0.0,0.0,0.0,0.0,0.0,0.0,0.0,0.0,0.0,0.0,0.0,0.0,0.0,0.0,0.0,0.0,0.0,0.0,0.0,0.0,-4.4498,0.0,0.0,0.0,0.0,0.0,0.0,0.0,0.0,0.0,0.0,0.0,0.0,0.0,0.0,-5.8968,-6.0808,-6.056,-6.0413,0.0,0.0,-5.913,-5.9191,-5.9965,-5.906,0.0,0.0,0.0,0.0,0.0,0.0,0.0,0.0,0.0,0.0,0.0,0.0,0.0,0.0,0.0,0.0,0.0,0.0,0.0,0.0,0.0,0.0,0.0,0.0,0.0,0.0,0.0,0.0,0.0,0.0,0.0,0.0,0.0,0.0,0.0,0.0,0.0,0.0,0.0,0.0,0.0,0.0,0.0,0.0,0.0,0.0,0.0,0.0,0.0,0.0,0.0,0.0,0.0,0.0,0.0,-4.2495,-4.3063,-4.3626,-4.4066,-4.4153,-4.4963,-4.6547,-4.5325,-4.5014,0.0,0.0,0.0,0.0,0.0,0.0,0.0,0.0,0.0,0.0,0.0,0.0,0.0,0.0,0.0,0.0,0.0,0.0,0.0,0.0,0.0,0.0,0.0,0.0,0.0,0.0,0.0,0.0,0.0,0.0,0.0,0.0,0.0,0.0,0.0,0.0,0.0,0.0,0.0,0.0,0.0,-5.4388,-5.6348,-5.7836,-5.9186,0.0,0.0,-5.9267,-5.8999,-6.1534,-6.1164,-5.3996,0.0,0.0,0.0,0.0,0.0,0.0,0.0,0.0,0.0,0.0,0.0,0.0,0.0,0.0,0.0,0.0,0.0,0.0,0.0,0.0,0.0,0.0,0.0,0.0,0.0,0.0,0.0,0.0,0.0,0.0,0.0,0.0,0.0,0.0,0.0,0.0,0.0,0.0,0.0,0.0,0.0,0.0,0.0,0.0,0.0,0.0,0.0,0.0,0.0,0.0,0.0,0.0,0.0,-4.0726,-4.1226,-4.1977,-4.2449,-4.264,-4.2229,-4.2555,-4.371,-4.3394,-4.3167,0.0,0.0,0.0,0.0,0.0,0.0,0.0,0.0,0.0,0.0,0.0,0.0,0.0,0.0,0.0,0.0,0.0,0.0,0.0,0.0,0.0,0.0,0.0,0.0,0.0,0.0,0.0,0.0,-4.5056,-4.5389,-4.6441,0.0,0.0,0.0,0.0,0.0,0.0,0.0,0.0,0.0,0.0,-5.3654,-5.6422,-5.7742,0.0,0.0,-6.0424,-6.0094,-6.0995,-6.0487,-5.8437,-5.386,-5.2888,0.0,0.0,0.0,0.0,0.0,0.0,0.0,0.0,0.0,0.0,0.0,0.0,0.0,0.0,0.0,0.0,0.0,0.0,0.0,0.0,0.0,0.0,0.0,0.0,0.0,0.0,0.0,0.0,0.0,0.0,0.0,0.0,0.0,0.0,0.0,0.0,0.0,0.0,0.0,0.0,0.0,0.0,0.0,0.0,0.0,0.0,0.0,0.0,0.0,0.0,0.0,0.0,-4.0383,-4.0184,-4.127,-4.1742,-4.1542,-4.103,-4.1155,-4.1956,-4.2233,-4.1979,0.0,0.0,0.0,0.0,0.0,0.0,0.0,0.0,0.0,0.0,0.0,0.0,0.0,0.0,0.0,0.0,0.0,0.0,0.0,0.0,0.0,0.0,0.0,0.0,0.0,0.0,0.0,0.0,-4.5347,-4.5449,-4.6198,0.0,0.0,0.0,0.0,0.0,0.0,0.0,0.0,0.0,0.0,-5.2182,-5.4978,-5.6217,-5.7463,-5.9241,-5.8821,-5.8658,-5.9704,-5.8264,-5.5784,-5.2272,0.0,0.0,0.0,0.0,0.0,0.0,0.0,0.0,0.0,0.0,0.0,0.0,0.0,0.0,0.0,0.0,0.0,0.0,0.0,0.0,0.0,0.0,0.0,0.0,0.0,0.0,0.0,0.0,0.0,0.0,-4.1795,0.0,0.0,0.0,0.0,0.0,0.0,0.0,0.0,0.0,0.0,0.0,0.0,0.0,0.0,0.0,0.0,0.0,0.0,0.0,0.0,0.0,0.0,-4.0148,-3.9478,-4.0944,-4.1379,-4.0778,-4.0723,-4.1104,-4.1958,-4.1993,-4.1629,-4.0826,0.0,0.0,0.0,0.0,0.0,0.0,0.0,0.0,0.0,0.0,0.0,0.0,0.0,0.0,0.0,0.0,0.0,0.0,0.0,0.0,0.0,0.0,0.0,0.0,0.0,0.0,-4.7775,-4.5649,-4.3897,0.0,0.0,0.0,0.0,0.0,0.0,0.0,0.0,0.0,0.0,-4.7589,-4.9199,-5.0999,-5.2593,-5.3865,-5.4473,-5.4488,-5.4361,-5.4129,-5.4908,-5.3847,0.0,0.0,0.0,0.0,0.0,0.0,0.0,0.0,0.0,0.0,0.0,0.0,0.0,0.0,0.0,0.0,0.0,0.0,0.0,0.0,0.0,0.0,0.0,0.0,0.0,0.0,0.0,-4.2619,-4.198,0.0,0.0,0.0,0.0,0.0,0.0,0.0,0.0,0.0,0.0,0.0,-4.2588,-4.2873,0.0,0.0,0.0,0.0,0.0,0.0,0.0,0.0,0.0,0.0,0.0,0.0,-3.9787,-4.013,-4.0583,-4.0999,-4.1343,-4.0835,-4.0944,-4.1778,-4.1796,-4.1415,-4.0635,0.0,0.0,0.0,0.0,0.0,0.0,0.0,0.0,0.0,0.0,0.0,0.0,0.0,0.0,0.0,0.0,0.0,0.0,0.0,0.0,0.0,0.0,0.0,0.0,0.0,-4.5602,0.0,0.0,0.0,0.0,0.0,0.0,0.0,0.0,0.0,0.0,0.0,-4.3904,-4.5288,-4.6105,-4.728,-4.923,-5.0392,-5.1658,0.0,0.0,0.0,0.0,0.0,0.0,0.0,0.0,0.0,0.0,0.0,0.0,0.0,0.0,-5.3672,-5.1045,-5.0038,-4.9507,-4.9149,0.0,0.0,0.0,0.0,0.0,0.0,0.0,0.0,0.0,0.0,0.0,0.0,0.0,0.0,0.0,0.0,-4.214,0.0,0.0,0.0,0.0,0.0,0.0,0.0,0.0,-4.2504,-4.2435,-4.1945,-4.2209,-4.2036,0.0,-4.1185,-4.0767,0.0,0.0,0.0,0.0,0.0,0.0,0.0,0.0,-3.9752,-4.0077,-4.0835,-4.1522,-4.2048,-4.1596,-4.156,-4.2103,-4.1683,-4.0865,-3.9638,-3.899,-3.7727,0.0,0.0,0.0,0.0,0.0,0.0,0.0,0.0,0.0,0.0,0.0,0.0,0.0,0.0,0.0,0.0,0.0,0.0,0.0,0.0,0.0,0.0,0.0,-4.3932,0.0,0.0,0.0,0.0,0.0,0.0,0.0,0.0,0.0,-4.2585,-4.2964,-4.3529,-4.4596,-4.4953,-4.5622,-4.6988,0.0,0.0,0.0,0.0,0.0,0.0,0.0,-4.9339,-4.8064,-4.794,-4.7695,-4.6638,-4.9045,-5.0798,-4.9797,0.0,0.0,-5.0379,-4.9804,-4.9554,-4.9315,-4.8979,-4.8671,-4.8423,-4.8451,-4.8165,0.0,0.0,0.0,0.0,0.0,0.0,0.0,0.0,-4.2304,-4.2597,0.0,-4.1771,0.0,0.0,0.0,0.0,0.0,0.0,0.0,0.0,-4.2292,-4.1887,-3.9485,-4.0022,-4.0181,-4.0003,-4.0807,-4.0666,-3.9634,-3.8768,0.0,0.0,0.0,0.0,0.0,0.0,-3.9932,-3.9301,-4.1502,-4.2729,-4.2731,-4.2826,-4.2882,-4.2827,-4.1703,-4.0124,-3.8135,-3.8429,-3.7592,-3.5435,-3.643,0.0,0.0,0.0,0.0,0.0,0.0,0.0,0.0,0.0,0.0,0.0,0.0,0.0,0.0,0.0,0.0,0.0,0.0,0.0,0.0,-4.2216,0.0,0.0,0.0,0.0,0.0,0.0,0.0,0.0,0.0,0.0,-4.1864,-4.2673,-4.3402,-4.401,0.0,0.0,0.0,0.0,-4.4754,-4.5715,-4.5775,-4.6019,-4.6802,-4.716,-4.6867,-4.5487,0.0,0.0,-4.6233,-4.778,-4.8752,-4.727,-4.8414,-5.0335,-5.2995,-5.2223,-5.1563,-5.1778,-5.0686,-4.9686,-4.9066,-4.8853,-4.8426,-4.6082,0.0,0.0,0.0,0.0,-4.2712,-4.2646,-4.315,-4.3617,-4.3055,-4.1809,-4.2263,0.0,0.0,0.0,0.0,0.0,0.0,-4.0768,-4.0186,-3.9865,-3.9568,-3.9282,-3.8974,-3.8788,-3.8744,-3.9513,-3.9441,-3.8656,-3.8639,-3.8854,-3.9151,0.0,0.0,0.0,0.0,-3.869,-3.9193,-4.0846,-4.1784,-4.1935,-4.2515,-4.2689,-4.2418,-4.2045,-4.1094,-3.952,-3.9087,-3.8327,-3.7132,-3.6738,0.0,0.0,0.0,0.0,0.0,0.0,0.0,0.0,0.0,0.0,0.0,0.0,0.0,0.0,0.0,0.0,0.0,0.0,0.0,-4.021,-4.026,-4.058,0.0,0.0,0.0,0.0,0.0,0.0,0.0,0.0,0.0,-4.0781,-4.191,-4.285,0.0,0.0,-4.2553,-4.3484,-4.2868,-4.2926,-4.4744,0.0,0.0,0.0,-4.4732,-4.4234,-4.3785,-4.5011,-4.598,-4.5873,-4.686,-4.7337,-4.632,-4.7007,-4.8102,-4.9073,-4.9855,-5.0063,-4.9888,-4.9643,-4.951,-4.93,-4.9019,-4.8434,-4.6351,-4.4942,-4.3712,-4.3323,-4.3443,-4.2743,-4.2673,-4.3127,-4.3524,-4.311,-4.2141,-4.1999,-4.1002,-3.9382,-3.9238,0.0,0.0,0.0,-3.9842,-3.98,-3.8718,-3.8444,-3.8791,-3.8112,-3.793,-3.8212,-3.8344,-3.852,-3.8652,-3.8562,-3.8957,-3.9606,0.0,0.0,-3.7742,-3.7987,-3.8198,-3.8504,-3.985,-4.061,-4.0745,-4.1251,-4.1486,-4.1343,-4.1151,-4.0695,-3.9967,-3.911,-3.8127,-3.7063,-3.6615,-3.5346,0.0,0.0,0.0,0.0,0.0,0.0,0.0,0.0,0.0,0.0,0.0,-3.5956,-3.4364,0.0,0.0,0.0,-3.6165,-3.7794,-3.8713,-3.8903,0.0,0.0,0.0,0.0,0.0,0.0,0.0,-4.0491,-3.9823,-3.958,-4.031,-4.1097,-4.1849,-4.2462,-4.1666,-4.1288,-4.2021,0.0,-4.1156,-4.2745,-4.2532,-4.2473,-4.3148,-4.2798,-4.2491,-4.2749,-4.363,-4.4447,-4.4961,-4.5483,-4.5653,-4.545,-4.5731,-4.6119,-4.6298,-4.7166,-4.7937,-4.8122,-4.8466,-4.8621,-4.8337,-4.8145,-4.7844,-4.6471,-4.6225,-4.4307,-4.3103,-4.2503,-4.2591,-4.2638,-4.2601,-4.2618,-4.2886,-4.3251,-4.1359,-4.0426,-4.0243,-3.8907,0.0,-3.9315,-3.9315,-3.9232,-3.91,-3.8427,-3.807,-3.7996,-3.735,-3.7417,-3.8086,-3.7483,-3.788,-3.9133,-3.8576,-3.887,-3.9919,-3.9087,-3.8289,-3.7642,-3.8252,-3.8209,-3.7525,-3.8709,-3.9344,-3.9365,-3.9466,-3.9637,-3.9842,-3.9445,-3.9278,-3.9403,-3.836,-3.7126,-3.5754,-3.599,-3.4866,-3.2139,0.0,0.0,0.0,0.0,0.0,0.0,0.0,0.0,0.0,0.0,0.0,0.0,0.0,0.0,0.0,-3.4691,0.0,-3.6565,-3.8031,0.0,0.0,0.0,-3.9189,-3.9319,-3.8689,-3.8479,-3.9077,0.0,0.0,-4.0128,0.0,-4.0459,-4.1076,-4.0702,-4.0426,-4.0464,-3.9945,-3.963,-4.047,-4.0442,-4.0625,-4.1217,-4.1239,-4.1443,-4.2076,-4.2612,-4.312,-4.3565,-4.381,-4.3994,-4.4223,-4.4421,-4.4531,-4.4531,-4.4887,-4.5289,-4.6248,-4.7052,-4.7318,-4.664,-4.6652,-4.6627,-4.698,-4.6437,-4.5406,-4.487,-4.4671,-4.4172,-4.3726,-4.335,-4.3333,-4.2804,-4.186,-4.1392,-4.0564,-3.9547,-3.9199,-3.9149,-3.9315,-3.9315,-3.8676,-3.7649,-3.745,-3.7069,-3.6522,-3.6357,-3.6655,-3.7367,-3.7765,-3.8146,-3.8477,-3.8841,-3.9169,-3.9461,-3.9215,-3.8794,-3.8188,-3.7814,-3.7538,-3.7344,-3.8304,-3.886,-3.8928,-3.8992,-3.8868,-3.8637,-3.8517,-3.7997,-3.7059,-3.5726,-3.4801,-3.4432,-3.3714,-3.265,-3.1244,-3.1585,0.0,0.0,0.0,0.0,0.0,0.0,0.0,0.0,0.0,-3.4691,-3.1661,0.0,-3.4585,0.0,-3.4207,-3.5348,-3.6295,-3.7094,0.0,0.0,-3.8272,-3.8358,-3.7953,-3.7722,-3.7693,-3.7838,-3.8266,-3.8583,-3.8763,-3.8795,-3.8844,-3.9051,-3.9836,-4.0608,-4.1044,-4.0564,-4.021,-4.0332,-4.0348,-4.026,-3.9895,-3.9812,-4.0151,-4.1279,-4.1554,-4.1646,-4.1631,-4.2404,-4.2848,-4.2494,-4.3148,-4.3654,-4.3711,-4.3814,-4.3453,-4.2936,-4.4547,-4.6167,-4.5371,-4.5103,-4.4753,-4.6093,-4.5751,-4.5342,-4.5063,-4.4798,-4.4278,-4.3825,-4.3522,-4.3205,-4.2398,-4.1177,-4.026,-3.961,-3.9158,-3.8914,-3.8974,-3.9299,-3.9315,-3.8702,-3.7599,-3.7268,-3.6903,-3.6473,-3.6158,-3.6555,-3.7599,-3.8013,-3.8377,-3.8692,-3.9116,-3.9315,-3.9315,-3.9315,-3.8963,-3.8311,-3.7591,-3.7218,-3.7218,-3.7246,-3.7381,-3.762,-3.7796,-3.7763,-3.7552,-3.7343,-3.6867,-3.6139,-3.4685,-3.3754,-3.3445,-3.2825,-3.1947,-3.0799,-3.12,-3.0783,0.0,0.0,0.0,0.0,0.0,0.0,0.0,0.0,0.0,0.0,0.0,-3.4143,0.0,-3.4297,-3.5156,-3.6533,-3.692,-3.713,-3.7229,-3.7219,-3.7189,-3.7145,-3.6905,-3.6844,-3.7115,-3.7427,-3.7645,-3.7616,-3.7735,-3.7735,-3.7661,-3.8463,-3.9198,-3.9565,-3.9752,-3.9814,-3.955,-3.9732,-3.9663,-3.8924,-3.8791,-3.894,-3.9301,-3.9647,-3.9792,-3.9587,-4.0324,-4.0834,-4.0446,-4.1104,-4.1744,-4.1633,-4.1644,-4.1348,-4.1114,-4.212,-4.3231,-4.3096,-4.3,-4.2857,-4.482,-4.482,-4.4723,-4.4432,-4.3972,-4.3603,-4.333,-4.3191,-4.2584,-4.1721,-4.0619,-3.8876,-3.8436,-3.9017,-3.853,-3.8649,-3.9299,-3.9315,-3.8868,-3.8063,-3.75,-3.7201,-3.7085,-3.6539,-3.7003,-3.8285,-3.8318,-3.8676,-3.9299,-3.9315,-3.9315,-3.9299,-3.9216,-3.8825,-3.8186,-3.7384,-3.6895,-3.6804,-3.5964,-3.5688,-3.602,-3.6412,-3.6527,-3.6319,-3.5935,-3.5628,-3.5413,-3.4121,-3.3077,-3.2448,-3.2354,-3.1748,-3.0504,-3.0973,-3.1067,0.0,-3.0619,0.0,0.0,0.0,0.0,0.0,0.0,0.0,0.0,-3.3295,-3.3731,-3.494,-3.4703,-3.5096,-3.6588,-3.6931,-3.6965,-3.66,-3.6166,-3.6102,-3.6477,-3.6072,-3.5976,-3.6507,-3.663,-3.6691,-3.6691,-3.6828,-3.6859,-3.6752,-3.7041,-3.727,-3.7207,-3.8217,-3.8854,-3.8351,-3.8789,-3.8874,-3.8245,-3.8037,-3.7864,-3.7367,-3.7698,-3.7918,-3.766,-3.8379,-3.8826,-3.8585,-3.9231,-3.9671,-3.9224,-3.9206,-3.9262,-3.9355,-3.9803,-4.0293,-4.0648,-4.1064,-4.1215,-4.4886,-4.4984,-4.4415,-4.4168,-4.4064,-4.2895,-4.2367,-4.2288,-4.1596,-4.0573,-3.9364,-3.8854,-3.8837,-3.9202,-3.8989,-3.9016,-3.9315,-3.9315,-3.8576,-3.735,-3.7798,-3.7682,-3.7152,-3.7557,-3.8245,-3.9067,-3.91,-3.9166,-3.9315,-3.9315,-3.9315,-3.9282,-3.8709,-3.8361,-3.8146,0.0,0.0,0.0,-3.5127,-3.5055,-3.5182,-3.5787,-3.5557,-3.4376,-3.4273,0.0,-3.2475,-3.1598,-3.1052,-3.0919,-3.0566,0.0,0.0,0.0,0.0,0.0,0.0,0.0,0.0,0.0,0.0,0.0,-3.1577,-3.1196,-3.0847,-3.224,-3.3323,-3.3604,-3.5027,-3.5611,-3.4784,-3.6161,-3.66,-3.5432,-3.5625,-3.5753,-3.535,-3.5121,-3.5136,-3.5219,-3.5753,-3.6055,-3.604,-3.6134,-3.6118,-3.604,-3.615,-3.5929,-3.5449,-3.6783,-3.7851,-3.8189,-3.8248,-3.8077,-3.7417,-3.7292,-3.7226,-3.7126,-3.7083,-3.6969,-3.6588,-3.7675,-3.8231,-3.7398,-3.8545,-3.9321,-3.8485,-3.8327,-3.802,-3.7254,-3.7649,-3.8402,-3.9301,-3.9904,-3.9896,-4.4107,0.0,-4.3473,-4.3343,0.0,-4.2281,-4.1659,-4.1268,-4.0696,-3.9853,-3.8794,-3.8738,-3.881,-3.8947,-3.8931,-3.9013,-3.9148,-3.9164,-3.8596,-3.7665,-3.7649,-3.7665,-3.7665,-3.7665,-3.8228,-3.9282,-3.9315,-3.9315,-3.9315,-3.9315,-3.9315,-3.9282,-3.856,-3.8004,-3.7632,-3.6191,-3.5263,-3.4899,-3.4899,-3.4899,-3.4916,-3.5628,-3.5438,-3.4299,0.0,0.0,0.0,0.0,0.0,0.0,0.0,0.0,0.0,0.0,0.0,-2.9725,-2.9552,-2.9738,-3.0264,-2.947,-2.9281,-2.9946,-2.9677,-2.9771,-3.0422,-3.1803,-3.2683,-3.276,-3.3771,-3.4118,-3.3576,-3.4409,-3.463,-3.3862,-3.4026,-3.4194,-3.4208,-3.42,-3.4332,-3.4581,-3.4691,-3.483,-3.5124,-3.4656,-3.4626,-3.5038,-3.4735,-3.4465,-3.449,-3.5692,-3.6825,-3.6858,-3.6632,-3.6398,-3.62,-3.6338,-3.6332,-3.6109,-3.6199,-3.61,-3.5554,-3.6447,-3.696,-3.6152,-3.6976,-3.7608,-3.7047,-3.6731,-3.6512,-3.6158,-3.6256,-3.6559,-3.7182,-3.7929,-3.827,-4.325,-4.2602,-4.2602,-4.2602,-4.2538,-4.1743,-4.0931,-4.0121,0.0,0.0,0.0,-3.856,-3.8588,-3.8644,-3.8591,-3.8652,-3.8772,-3.8683,-3.8319,-3.7763,-3.7292,-3.7433,-3.7937,-3.7491,-3.798,-3.9265,-3.9315,-3.9315,-3.9299,-3.9139,-3.9129,-3.9146,-3.8259,-3.7399,-3.6638,-3.5423,-3.4828,-3.4851,-3.4875,-3.4899,-3.4916,-3.5455,-3.5373,-3.451,-3.3785,-3.2852,-3.162,-3.0309,-2.9371,-2.8904,-2.8889,-2.8842,-2.8753,-2.9275,-2.9614,-2.9743,-2.9668,-2.9675,-2.9728,-2.8643,-2.8054,-2.8275,-2.8289,-2.8916,-3.0428,-3.1177,-3.1662,-3.1886,-3.1931,-3.2107,-3.2549,-3.2489,-3.247,-3.2469,-3.2425,-3.2643,-3.3373,-3.3387,-3.3561,-3.4051,-3.3707,-3.3518,-3.3939,-3.3357,-3.3036,-3.374,-3.3472,-3.2983,-3.349,-3.4699,-3.5495,-3.5071,-3.4856,-3.4686,-3.4839,-3.5122,-3.521,-3.5011,-3.5251,-3.535,-3.506,-3.5349,-3.5473,-3.509,-3.5471,-3.5892,-3.5673,-3.5369,-3.5131,-3.5432,-3.5295,-3.5029,-3.4935,-3.5766,-3.6453,-4.3266,-4.2602,-4.2602,-4.2602,-4.2505,-4.1193,-3.9897,-3.8699,-3.8659,-3.8602,-3.8604,-3.8476,-3.8544,-3.8717,-3.8014,-3.778,-3.7941,-3.7423,-3.6825,0.0,-3.6803,-3.7152,-3.7301,-3.7798,-3.8477,-3.9265,-3.9315,-3.9315,-3.9206,-3.8553,-3.8457,-3.8737,-3.7105,-3.5787,-3.5061,-3.4734,-3.4546,-3.457,-3.4804,-3.4899,-3.4899,-3.4886,-3.4517,-3.3745,-3.256,-3.1525,-3.0701,-2.9508,-2.8826,-2.8709,-2.8288,-2.8295,-2.8814,-2.855,-2.8785,-2.964,-2.8775,-2.8385,-2.883,-2.7713,-2.7469,-2.8503,-2.8634,-2.864,-2.8625,-2.9144,-2.9768,-3.0319,-3.0437,-3.0822,-3.1729,-3.1392,-3.1433,-3.2237,-3.1959,-3.2121,-3.3227,-3.2962,-3.2904,-3.3532,-3.305,-3.2672,-3.2832,-3.2614,-3.2515,-3.273,-3.2693,-3.2465,-3.2379,-3.3336,-3.389,-3.3517,-3.3668,-3.3849,-3.3836,-3.3861,-3.4115,-3.4505,-3.4546,-3.4578,-3.4603,-3.5087,-3.5309,-3.4823,-3.5316,-3.5697,-3.5577,-3.504,-3.4675,-3.4687,-3.4708,-3.4394,-3.3586,-3.4213,-3.486,-4.3864,-4.3153,-4.2764,-4.2602,-4.2489,-4.1096,-3.993,-3.8974,-3.857,-3.842,-3.8492,-3.842,-3.8476,-3.8507,-3.7768,-3.7481,-3.76,-3.6977,-3.6521,-3.6303,-3.6288,-3.6717,-3.7442,-3.7494,-3.8074,-3.9065,-3.8848,-3.8692,-3.8642,-3.7911,-3.7609,-3.7755,-3.6394,-3.5333,-3.4643,-3.4521,-3.448,-3.4497,-3.4618,-3.4667,-3.4683,-3.4618,-3.4201,-3.3392,-3.2232,-3.1094,-3.0037,-2.8876,-2.811,-2.7785,-2.7635,-2.7742,-2.8213,-2.8086,-2.8201,-2.859,-2.8125,-2.7733,-2.7677,-2.7447,-2.7534,-2.81,-2.8158,-2.8097,-2.7942,-2.8592,-2.9104,-2.9411,-2.9456,-2.9752,-3.0498,-3.0032,-3.0002,-3.0843,-3.0625,-3.0887,-3.1745,-3.2004,-3.2251,-3.2774,-3.2382,-3.2089,-3.2483,-3.1917,-3.1816,-3.2295,-3.222,-3.1774,-3.1241,-3.1707,-3.2139,-3.1989,-3.229,-3.2563,-3.268,-3.2875,-3.3271,-3.391,-3.3885,-3.4027,-3.4358,-3.4791,-3.4783,-3.4636,-3.4676,-3.4738,-3.4968,-3.399,-3.359,-3.4081,-3.37,-3.3213,-3.3033,-3.3376,-3.3831,-4.4269,-4.3427,-4.2829,-4.2505,-4.223,-4.1031,-4.0137,-3.9457,-3.8715,-3.8391,-3.8391,-3.8391,-3.8391,-3.8311,-3.7457,-3.7134,-3.7096,-3.6368,-3.6055,-3.6109,-3.5611,-3.6053,-3.7193,-3.6969,-3.7505,-3.8591,-3.8451,-3.8272,-3.8041,-3.7322,-3.6743,-3.6312,-3.5749,-3.5142,-3.4464,-3.4423,-3.4423,-3.4423,-3.4399,-3.4431,-3.448,-3.4472,-3.3991,-3.3056,-3.1926,-3.0714,-2.9441,-2.8253,-2.7444,-2.7003,-2.7067,-2.7308,-2.7665,-2.7804,-2.7875,-2.7911,-2.7768,-2.742,-2.6895,-2.7347,-2.771,-2.771,-2.771,-2.771,-2.7739,-2.8123,-2.8482,-2.8585,-2.8497,-2.8675,-2.9203,-2.8695,-2.855,-2.9276,-2.9233,-2.9523,-3.0263,-3.08,-3.1337,-3.1874,-3.1613,-3.1511,-3.1758,-3.1206,-3.1062,-3.1714,-3.1627,-3.1119,-3.0714,-3.0612,-3.0732,-3.091,-3.1161,-3.1466,-3.1736,-3.2059,-3.2567,-3.3209,-3.3365,-3.3614,-3.4018,-3.4184,-3.4349,-3.4382,-3.3907,-3.3831,-3.414,-3.3095,-3.2547,-3.314,-3.2808,-3.2388,-3.2855,-3.3044,-3.3286,-4.3994,-4.2797,-4.2651,-4.2245,-4.1677,-4.0836,-4.0124,-3.9473,-3.8715,-3.8391,-3.8391,-3.8391,-3.8391,-3.8213,-3.7015,-3.6432,-3.6346,-3.5096,-3.4544,-3.4586,-3.4579,-3.5021,-3.5906,-3.6455,-3.7154,-3.7914,-3.845,-3.8362,-3.7771,-3.6918,-3.5876,-3.4748,-3.5006,-3.4924,-3.4381,-3.4201,-3.4151,-3.4126,-3.4126,-3.4234,-3.4472,-3.4374,-3.3785,-3.2588,-3.124,-2.992,-2.8746,-2.7532,-2.6884,-2.6806,-2.6832,-2.7096,-2.7608,-2.7723,-2.7969,-2.8477,-2.8028,-2.742,-2.6895,-2.7347,-2.7681,-2.771,-2.7681,-2.7681,-2.7666,-2.7285,-2.7241,-2.7619,-2.7329,-2.7617,-2.8534,-2.775,-2.759,-2.8594,-2.8318,-2.8348,-2.9479,-2.9726,-3.006,-3.0684,-3.083,-3.0698,-3.0874,-3.0685,-3.0656,-3.0932,-3.08,-3.0699,-3.0641,-3.0612,-3.0612,-3.0672,-3.0687,-3.094,-3.1364,-3.1537,-3.1892,-3.2422,-3.2922,-3.3224,-3.3501,-3.391,-3.4284,-3.4039,-3.3631,-3.3294,-3.3177,-3.25,-3.1717,-3.2229,-3.2214,-3.2021,-3.2654,-3.2932,-3.3055,-4.3816,-4.3201,-4.278,-4.2472,-4.2067,-4.0982,-4.0335,-3.9978,-3.8877,-3.8391,-3.8391,-3.8391,-3.8391,-3.8311,-3.695,-3.6276,-3.6189,-3.4832,-3.4176,-3.4201,-3.4267,-3.4666,-3.5382,-3.6218,-3.6947,-3.76,-3.7981,-3.7806,-3.7052,-3.5843,-3.5082,-3.4935,-3.4711,-3.4417,-3.4192,-3.4126,-3.4101,-3.4101,-3.4101,-3.4134,-3.4202,-3.3835,-3.2998,-3.1752,-3.047,-2.9235,-2.803,-2.7195,-2.6794,-2.6794,-2.6794,-2.707,-2.7666,-2.771,-2.7811,-2.8057,-2.752,-2.7055,-2.6808,-2.7026,-2.7304,-2.7666,-2.7389,-2.7316,-2.7637,-2.7157,-2.691,-2.707,-2.6951,-2.7198,-2.7897,-2.7302,-2.7157,-2.7911,-2.784,-2.8058,-2.8927,-2.9392,-2.9871,-3.0496,-3.0612,-3.0612,-3.0539,-3.0234,-3.0205,-3.0423,-3.0292,-3.0161,-3.051,-3.0612,-3.0612,-3.0612,-3.0612,-3.0687,-3.0955,-3.097,-3.1263,-3.1751,-3.2339,-3.2761,-3.3109,-3.3322,-3.36,-3.3591,-3.2738,-3.2329,-3.2611,-3.1718,-3.0917,-3.1523,-3.2097,-3.2179,-3.2506,-3.2737,-3.2914,-4.3589,-4.3314,-4.2813,-4.2473,-4.2198,-4.1031,-4.0383,-4.0105,-3.891,-3.8391,-3.8391,-3.8391,-3.8278,-3.7938,-3.6837,-3.6276,-3.6108,-3.4781,-3.4101,-3.4101,-3.4101,-3.4376,-3.4968,-3.5997,-3.6674,-3.7188,-3.7682,-3.7541,-3.6741,-3.5293,-3.482,-3.5161,-3.4507,-3.4101,-3.4101,-3.4101,-3.4101,-3.4101,-3.4101,-3.3953,-3.3553,-3.2933,-3.2061,-3.0995,-2.995,-2.8747,-2.7372,-2.6959,-2.6794,-2.6794,-2.6794,-2.6997,-2.7391,-2.7449,-2.7449,-2.742,-2.7055,-2.6794,-2.6794,-2.6953,-2.7157,-2.7391,-2.7302,-2.7345,-2.7389,-2.72,-2.6994,-2.6808,-2.6794,-2.7012,-2.7316,-2.7055,-2.7012,-2.7403,-2.7449,-2.7679,-2.8142,-2.884,-2.9508,-3.0016,-3.0336,-3.051,-3.0277,-2.9798,-2.9581,-3.0074,-2.9914,-2.9813,-3.0438,-3.0612,-3.0612,-3.0612,-3.0612,-3.0612,-3.0612,-3.0657,-3.0866,-3.1175,-3.1751,-3.2207,-3.2569,-3.2558,-3.2659,-3.2481,-3.1483,-3.1121,-3.1609,-3.0969,-3.0479,-3.1379,-3.1867,-3.2056,-3.2318,-3.2555,-3.2737,-4.3298,-4.2683,-4.2619,-4.2229,-4.1579,-4.0788,-4.0154,-3.957,-3.8732,-3.8391,-3.8391,-3.8391,-3.8019,-3.7355,-3.6643,-3.6276,-3.6076,-3.4764,-3.4101,-3.4101,-3.4101,-3.4117,-3.4262,-3.5606,-3.6319,-3.654,-3.7588,-3.7788,-3.714,-3.5843,-3.5163,-3.5163,-3.4441,-3.4101,-3.4101,-3.4101,-3.4101,-3.4101,-3.405,-3.3551,-3.2492,-3.1702,-3.1033,-3.0381,-2.9734,-2.8516,-2.7088,-2.6832,-2.6794,-2.6794,-2.6794,-2.6835,-2.6852,-2.6852,-2.6866,-2.6852,-2.6808,-2.6794,-2.6852,-2.7229,-2.736,-2.7111,-2.7694,-2.8041,-2.7055,-2.7246,-2.7273,-2.6864,-2.6794,-2.6864,-2.6881,-2.6852,-2.6837,-2.6924,-2.6907,-2.6951,-2.6982,-2.8158,-2.8665,-2.9072,-2.9886,-3.0205,-2.9697,-2.9116,-2.9116,-2.9508,-2.961,-2.9798,-3.0408,-3.0612,-3.0612,-3.0612,-3.0612,-3.0612,-3.0612,-3.0612,-3.0642,-3.0866,-3.1232,-3.1501,-3.1338,-3.1301,-3.1512,-3.1554,-3.1078,-3.0838,-3.0807,-3.0751,-3.0629,-3.0955,-3.1233,-3.1471,-3.2038,-3.2249,-3.2488,-4.2845,-4.2554,-4.2132,-4.1823,-4.1482,-4.0364,-3.9703,-3.9457,-3.8699,-3.8391,-3.8391,-3.8391,-3.8003,-3.7247,-3.661,-3.6044,-3.5509,-3.4538,-3.4101,-3.4101,-3.4101,-3.4101,-3.4214,-3.5137,-3.5866,-3.6335,-3.6837,-3.6934,-3.6627,-3.5639,-3.5185,-3.5082,-3.4441,-3.4101,-3.4101,-3.4101,-3.4101,-3.405,-3.3723,-3.3131,-3.2254,-3.1205,-3.0197,-2.9264,-2.8561,-2.7744,-2.682,-2.6794,-2.6794,-2.6794,-2.6794,-2.6794,-2.6794,-2.6794,-2.6794,-2.6794,-2.6794,-2.6794,-2.6765,-2.6591,-2.6605,-2.682,-2.6765,-2.6994,-2.6864,-2.6997,-2.7026,-2.6864,-2.6794,-2.6794,-2.6794,-2.6794,-2.698,-2.7258,-2.7026,-2.6939,-2.7418,-2.8158,-2.8826,-2.9247,-2.974,-2.9697,-2.9102,-2.8477,-2.8507,-2.932,-2.929,-2.9537,-3.0336,-3.0612,-3.0612,-3.0612,-3.0612,-3.0612,-3.0612,-3.0612,-3.0642,-3.0777,-3.1028,-3.1333,-3.1345,-3.1116,-3.1269,-3.1052,-3.0688,-3.0394,-3.0322,-3.0446,-3.0405,-3.0613,-3.0825,-3.1203,-3.1805,-3.202,-3.2386,-4.2602,-4.2489,-4.1904,-4.1466,-4.111,-4.0008,-3.9376,-3.9088,-3.8602,-3.8278,-3.8084,-3.8035,-3.7517,-3.6675,-3.6141,-3.5525,-3.4871,-3.4311,-3.4101,-3.4101,-3.4101,-3.4101,-3.4214,-3.4871,-3.5471,-3.593,-3.6206,-3.6276,-3.6222,-3.5568,-3.5202,-3.5137,-3.4457,-3.4101,-3.4101,-3.4101,-3.4101,-3.3984,-3.3501,-3.2745,-3.173,-3.0634,-2.9493,-2.8401,-2.7658,-2.7111,-2.6806,-2.6794,-2.6794,-2.6794,-2.6794,-2.6794,-2.6794,-2.6794,-2.6794,-2.6794,-2.6794,-2.6794,-2.6736,-2.6384,-2.6315,-2.6762,-2.6605,-2.6576,-2.6835,-2.6968,-2.6982,-2.6852,-2.6794,-2.6823,-2.6997,-2.691,-2.6968,-2.7302,-2.7041,-2.6939,-2.7362,-2.7969,-2.8594,-2.9102,-2.9276,-2.9029,-2.8448,-2.7824,-2.8086,-2.916,-2.8927,-2.9232,-3.0278,-3.0612,-3.0612,-3.0612,-3.0612,-3.0612,-3.0612,-3.0612,-3.0612,-3.0717,-3.0762,-3.1087,-3.1066,-3.0935,-3.0761,-3.0528,-3.0258,-2.9963,-2.9897,-3.0065,-3.0253,-3.0426,-3.0634,-3.0945,-3.1414,-3.1823,-3.2179,-4.257,-4.2424,-4.1871,-4.1093,-4.0415,-3.9687,-3.9068,-3.8521,-3.8424,-3.8051,-3.7517,-3.736,-3.6691,-3.5493,-3.5347,-3.4871,-3.4279,-3.4133,-3.4101,-3.4101,-3.4101,-3.4101,-3.4149,-3.4748,-3.5082,-3.525,-3.5946,-3.6238,-3.606,-3.5503,-3.5153,-3.5033,-3.4424,-3.4101,-3.4101,-3.4101,-3.4075,-3.3908,-3.3423,-3.229,-3.0598,-2.9868,-2.899,-2.7846,-2.7166,-2.6861,-2.6837,-2.6808,-2.6794,-2.6794,-2.6794,-2.6794,-2.6794,-2.6794,-2.6835,-2.6852,-2.6808,-2.6794,-2.6837,-2.6765,-2.6692,-2.6849,-2.7287,-2.7188,-2.6924,-2.7244,-2.7331,-2.6922,-2.6808,-2.6997,-2.7347,-2.7099,-2.6852,-2.6849,-2.6866,-2.6823,-2.6953,-2.7403,-2.7971,-2.8608,-2.884,-2.8477,-2.7868,-2.749,-2.7737,-2.8594,-2.8884,-2.9246,-3.0336,-3.0612,-3.0612,-3.0612,-3.0612,-3.0612,-3.0612,-3.0612,-3.0612,-3.0642,-3.0613,-3.0704,-3.0426,-3.0226,-3.0057,-2.9832,-2.9697,-2.945,-2.9927,-3.0103,-3.0231,-3.0384,-3.0551,-3.072,-3.1142,-3.1565,-3.1913,-4.1905,-4.1759,-4.064,-4.0056,-3.9703,-3.9039,-3.8586,-3.8424,-3.8391,-3.797,-3.7376,-3.7295,-3.6529,-3.5454,-3.5195,-3.4806,-3.4133,-3.4101,-3.4101,-3.4101,-3.4101,-3.4101,-3.4149,-3.4327,-3.4441,-3.4651,-3.572,-3.5752,-3.5024,-3.5065,-3.4968,-3.4473,-3.423,-3.4101,-3.4101,-3.4075,-3.3917,-3.3449,-3.2938,-3.1732,-2.9989,-2.929,-2.8556,-2.7737,-2.7113,-2.6968,-2.7374,-2.7012,-2.6794,-2.6794,-2.6794,-2.6794,-2.6794,-2.6794,-2.6982,-2.7331,-2.6997,-2.7012,-2.7316,-2.7026,-2.6794,-2.6823,-2.6997,-2.6997,-2.6823,-2.6968,-2.7012,-2.682,-2.6794,-2.6895,-2.6982,-2.6924,-2.6939,-2.7374,-2.7055,-2.6794,-2.6895,-2.7708,-2.839,-2.8666,-2.9058,-2.9015,-2.8536,-2.8113,-2.8332,-2.9058,-2.929,-2.9653,-3.0365,-3.0612,-3.0612,-3.0612,-3.0612,-3.0612,-3.0612,-3.0612,-3.0612,-3.0612,-3.0598,-3.0583,-3.0206,-2.9623,-2.9428,-2.9225,-2.9102,-2.93,-2.977,-3.0103,-3.0231,-3.0342,-3.0468,-3.072,-3.1041,-3.1336,-3.164,-4.145,-4.1077,-3.9975,-3.9476,-3.9424,-3.8715,-3.8391,-3.8343,-3.81,-3.7582,-3.6999,-3.6643,-3.5898,-3.4959,-3.4806,-3.4538,-3.4117,-3.4101,-3.4101,-3.4101,-3.4101,-3.4101,-3.4101,-3.4101,-3.4101,-3.423,-3.504,-3.5007,-3.4182,-3.4538,-3.4538,-3.4165,-3.4101,-3.4101,-3.4101,-3.4075,-3.379,-3.3198,-3.2652,-3.1598,-3.0158,-2.9339,-2.884,-2.8348,-2.7592,-2.7505,-2.7955,-2.7273,-2.6794,-2.6794,-2.6794,-2.6794,-2.6794,-2.6794,-2.6968,-2.7186,-2.7055,-2.6968,-2.7287,-2.6982,-2.6794,-2.6794,-2.6794,-2.6794,-2.6794,-2.6794,-2.6794,-2.6794,-2.6794,-2.6794,-2.6794,-2.6794,-2.6982,-2.7275,-2.7012,-2.6794,-2.6939,-2.7679,-2.8231,-2.8405,-2.884,-2.8985,-2.8811,-2.8709,-2.8942,-2.9436,-2.9595,-2.9813,-3.0394,-3.0598,-3.0612,-3.0612,-3.0612,-3.0612,-3.0612,-3.0612,-3.0612,-3.0612,-3.0612,-3.0598,-3.0438,-2.9537,-2.9047,-2.8778,-2.8576,-2.906,-2.9522,-2.9995,-3.0231,-3.0338,-3.0405,-3.0576,-3.0821,-3.1044,-3.1338,-4.1126,-4.0383,-3.9703,-3.9363,-3.9311,-3.8667,-3.8391,-3.8294,-3.7776,-3.7096,-3.6351,-3.5817,-3.4959,-3.4279,-3.423,-3.4165,-3.4101,-3.4101,-3.4101,-3.4101,-3.4101,-3.4101,-3.4101,-3.4101,-3.4101,-3.4117,-3.4214,-3.4165,-3.4101,-3.4182,-3.4101,-3.4101,-3.4101,-3.4101,-3.4075,-3.4075,-3.3688,-3.3082,-3.2559,-3.1627,-3.0391,-2.9869,-2.9523,-2.9436,-2.8391,-2.8042,-2.8332,-2.7447,-2.6794,-2.6794,-2.6794,-2.6794,-2.6794,-2.6794,-2.6823,-2.698,-2.6852,-2.6866,-2.6893,-2.6878,-2.6794,-2.6794,-2.6794,-2.6794,-2.6794,-2.6794,-2.6794,-2.6794,-2.6794,-2.6753,-2.6727,-2.6674,-2.6703,-2.6741,-2.6756,-2.6779,-2.6785,-2.7321,-2.7811,-2.8013,-2.8332,-2.8811,-2.897,-2.8985,-2.9218,-2.9566,-2.9784,-3.0089,-3.0364,-3.0612,-3.0612,-3.0612,-3.0598,-3.0612,-3.0612,-3.0612,-3.0612,-3.0612,-3.0554,-3.0467,-3.0249,-2.9348,-2.857,-2.8289,-2.8336,-2.8818,-2.9296,-2.9782,-3.0124,-3.0253,-3.0321,-3.0426,-3.0613,-3.0804,-3.1044,-4.0367,-3.9716,-3.8974,-3.8683,-3.8651,-3.8456,-3.8391,-3.8391,-3.8181,-3.7355,-3.6448,-3.6108,-3.5234,-3.4182,-3.4101,-3.4101,-3.4101,-3.4101,-3.4101,-3.4101,-3.4101,-3.4101,-3.4101,-3.4101,-3.4101,-3.4101,-3.4101,-3.4101,-3.4101,-3.4101,-3.4101,-3.4101,-3.4101,-3.4075,-3.4075,-3.3672,-3.3161,-3.2614,-3.2033,-3.1152,-3.0088,-2.9784,-2.9595,-2.9508,-2.8855,-2.8536,-2.8593,-2.7461,-2.6794,-2.6794,-2.6794,-2.6794,-2.6794,-2.6794,-2.6953,-2.7258,-2.7026,-2.6997,-2.7258,-2.7026,-2.6808,-2.6794,-2.6794,-2.6794,-2.6794,-2.6794,-2.6794,-2.6794,-2.6794,-2.658,-2.626,-2.6138,-2.6138,-2.6192,-2.642,-2.6594,-2.6494,-2.7061,-2.7869,-2.839,-2.8956,-2.9406,-2.9827,-3.0002,-3.006,-3.0234,-3.0277,-3.0321,-3.0539,-3.0612,-3.0612,-3.0598,-3.0598,-3.0598,-3.0612,-3.0612,-3.0612,-3.0612,-3.0481,-3.0249,-2.9697,-2.884,-2.8182,-2.7678,-2.8143,-2.863,-2.912,-2.9611,-2.9832,-3.0087,-3.0231,-3.0316,-3.0422,-3.0593,-3.0781,-4.0575,-3.9862,-3.9153,-3.8861,-3.8796,-3.8537,-3.8391,-3.8327,-3.8035,-3.7355,-3.6416,-3.5946,-3.5185,-3.4165,-3.4101,-3.4101,-3.4101,-3.4101,-3.4101,-3.4101,-3.4101,-3.4101,-3.4101,-3.4101,-3.4101,-3.4101,-3.4101,-3.4101,-3.4101,-3.4101,-3.4101,-3.4101,-3.4101,-3.3984,-3.3672,-3.3397,-3.2799,-3.2132,-3.1652,-3.0982,-3.0104,-3.0262,-3.0234,-3.006,-2.961,-2.9232,-2.8361,-2.7549,-2.7084,-2.6866,-2.6794,-2.6794,-2.6794,-2.6794,-2.6968,-2.7316,-2.6994,-2.6968,-2.7171,-2.6982,-2.6808,-2.6794,-2.6794,-2.6794,-2.6794,-2.6779,-2.6753,-2.6447,-2.642,-2.6096,-2.5674,-2.5508,-2.5398,-2.5231,-2.5688,-2.6111,-2.6206,-2.6654,-2.7518,-2.835,-2.9015,-2.9595,-3.0438,-3.0583,-3.0612,-3.0598,-3.0539,-3.0569,-3.0612,-3.0612,-3.0612,-3.0598,-3.0437,-3.038,-3.0409,-3.0423,-3.0452,-3.0481,-2.9973,-2.9784,-2.9232,-2.8419,-2.7915,-2.7606,-2.8,-2.836,-2.8693,-2.9166,-2.9716,-2.993,-3.0076,-3.0205,-3.0295,-3.0359,-3.0551,-4.1174,-4.0448,-3.9862,-3.957,-3.9392,-3.8812,-3.8505,-3.8278,-3.7797,-3.708,-3.6319,-3.559,-3.4975,-3.4117,-3.4101,-3.4101,-3.4101,-3.4101,-3.4009,-3.3993,-3.4009,-3.4034,-3.3933,-3.405,-3.4075,-3.4101,-3.4101,-3.4101,-3.4101,-3.4101,-3.4101,-3.4034,-3.4009,-3.3739,-3.3303,-3.3066,-3.2446,-3.1737,-3.1393,-3.1058,-3.0657,-3.0945,-3.0974,-3.051,-3.0234,-2.9508,-2.8463,-2.7753,-2.7461,-2.691,-2.6864,-2.6794,-2.6794,-2.6794,-2.6808,-2.6864,-2.6849,-2.6808,-2.6808,-2.6837,-2.6794,-2.6794,-2.6794,-2.6794,-2.6779,-2.6686,-2.642,-2.6056,-2.5866,-2.5508,-2.5021,-2.4838,-2.4624,-2.4408,-2.4681,-2.5328,-2.6192,-2.6206,-2.662,-2.835,-2.8709,-2.9319,-3.006,-3.0569,-3.0612,-3.0612,-3.0612,-3.0612,-3.0612,-3.0612,-3.0612,-3.0612,-3.0394,-3.0074,-3.0118,-3.0176,-3.0219,-3.0205,-2.945,-2.9028,-2.8695,-2.8086,-2.7679,-2.7548,-2.773,-2.7815,-2.7849,-2.8432,-2.9266,-2.9627,-2.9694,-2.9951,-3.0167,-3.0189,-3.0316,-4.1174,-4.048,-4.0335,-3.9962,-3.9538,-3.9298,-3.8922,-3.8359,-3.8197,-3.7371,-3.6465,-3.6092,-3.5266,-3.4101,-3.4101,-3.4101,-3.4075,-3.4034,-3.3866,-3.3475,-3.3933,-3.379,-3.3646,-3.3882,-3.4075,-3.4101,-3.4101,-3.4101,-3.4101,-3.4101,-3.4101,-3.4034,-3.3672,-3.3329,-3.3145,-3.2379,-3.1807,-3.1422,-3.1058,-3.0807,-3.0774,-3.1163,-3.1235,-3.0685,-3.0176,-2.9711,-2.9116,-2.8217,-2.7652,-2.742,-2.7099,-2.6852,-2.6808,-2.6794,-2.6794,-2.6794,-2.6794,-2.6794,-2.6794,-2.6794,-2.6794,-2.6794,-2.6794,-2.6794,-2.6753,-2.6367,-2.6098,-2.5811,-2.5481,-2.4936,-2.4379,-2.3796,-2.3796,-2.3914,-2.3826,-2.4118,-2.5133,-2.5688,-2.6663,-2.7993,-2.8638,-2.8971,-2.9711,-3.035,-3.0495,-3.0583,-3.0582,-3.0612,-3.0612,-3.0582,-3.0552,-3.0538,-3.0322,-3.006,-3.0307,-3.0307,-3.0176,-2.9987,-2.9203,-2.868,-2.8332,-2.7708,-2.7273,-2.7223,-2.7339,-2.7408,-2.7563,-2.8084,-2.8991,-2.9146,-2.9344,-2.9675,-2.9907,-2.9978,-3.0098,-4.1549,-4.1387,-4.0432,-3.9994,-3.9878,-3.925,-3.857,-3.7987,-3.7862,-3.7096,-3.5995,-3.5785,-3.5121,-3.4149,-3.4101,-3.4101,-3.4009,-3.3774,-3.3527,-3.3303,-3.3553,-3.3646,-3.3723,-3.3908,-3.4101,-3.4101,-3.4101,-3.4101,-3.4101,-3.4101,-3.4101,-3.4034,-3.3459,-3.3066,-3.2772,-3.1936,-3.1393,-3.1058,-3.0807,-3.0612,-3.0699,-3.1177,-3.1424,-3.0974,-3.0408,-2.9958,-2.9508,-2.871,-2.8058,-2.771,-2.7391,-2.7084,-2.6837,-2.6794,-2.6794,-2.6794,-2.6794,-2.6794,-2.6794,-2.6794,-2.6794,-2.6794,-2.6794,-2.6621,-2.6447,-2.6056,-2.5578,-2.516,-2.4723,-2.4321,-2.3721,-2.3395,-2.3365,-2.3424,-2.3348,-2.3663,-2.4715,-2.531,-2.5897,-2.7258,-2.8125,-2.867,-2.9304,-3.0013,-3.0436,-3.0538,-3.0129,-3.016,-3.0417,-3.0417,-3.0417,-3.0345,-3.0175,-3.0147,-3.0467,-3.0452,-3.019,-2.9798,-2.9145,-2.8781,-2.8505,-2.7706,-2.6852,-2.7044,-2.7284,-2.7487,-2.7691,-2.8218,-2.8618,-2.8818,-2.9119,-2.9429,-2.9666,-2.9786,-2.993,-4.1729,-4.2133,-4.0278,-3.9825,-4.0092,-3.9046,-3.8092,-3.7376,-3.7295,-3.661,-3.5406,-3.5185,-3.4845,-3.423,-3.4101,-3.4075,-3.379,-3.3345,-3.2986,-3.2799,-3.3172,-3.3345,-3.361,-3.3857,-3.4101,-3.4101,-3.4101,-3.4101,-3.4101,-3.4101,-3.4101,-3.3968,-3.3371,-3.2868,-3.2382,-3.168,-3.1117,-3.0717,-3.0672,-3.0612,-3.0714,-3.1177,-3.1453,-3.1337,-3.0814,-3.0306,-2.9827,-2.9189,-2.8594,-2.8029,-2.7898,-2.7592,-2.7229,-2.6965,-2.6951,-2.6939,-2.6895,-2.6794,-2.6794,-2.6794,-2.6808,-2.6866,-2.6806,-2.6592,-2.6213,-2.5925,-2.5306,-2.456,-2.4031,-2.375,-2.3185,-2.3095,-2.3095,-2.3163,-2.3188,-2.3712,-2.4433,-2.4856,-2.5476,-2.6461,-2.7481,-2.8105,-2.8995,-2.9774,-3.0155,-3.0358,-2.9948,-2.9701,-2.9962,-3.0237,-3.0237,-3.0282,-3.0156,-3.0248,-3.0539,-2.9929,-2.9755,-2.9392,-2.8826,-2.8521,-2.8346,-2.7795,-2.7113,-2.712,-2.731,-2.7542,-2.7856,-2.8348,-2.8629,-2.87,-2.8946,-2.9366,-2.9522,-2.9586,-2.9776,-4.0498,-4.079,-3.992,-3.9628,-3.9596,-3.9084,-3.8228,-3.7397,-3.7231,-3.6497,-3.5309,-3.5153,-3.4741,-3.4246,-3.4101,-3.3841,-3.3251,-3.2718,-3.2312,-3.2158,-3.261,-3.3055,-3.3071,-3.3662,-3.4009,-3.4101,-3.4101,-3.4101,-3.4101,-3.4101,-3.405,-3.3857,-3.3071,-3.2492,-3.2104,-3.1408,-3.0807,-3.0628,-3.0612,-3.0612,-3.0743,-3.109,-3.1393,-3.138,-3.0858,-3.0569,-3.0292,-2.9798,-2.9378,-2.9276,-2.8811,-2.8534,-2.8245,-2.7853,-2.7608,-2.7418,-2.7099,-2.6895,-2.6808,-2.6794,-2.707,-2.7268,-2.7082,-2.6721,-2.6455,-2.6052,-2.5319,-2.4334,-2.3641,-2.3245,-2.3125,-2.3158,-2.312,-2.3208,-2.3502,-2.3701,-2.3755,-2.427,-2.5384,-2.6577,-2.7112,-2.7436,-2.8134,-2.8969,-2.9606,-2.9781,-2.9598,-2.9341,-2.9376,-2.9766,-3.0043,-3.0147,-3.0222,-3.0389,-3.0612,-2.9653,-2.9015,-2.8739,-2.8274,-2.7853,-2.7694,-2.7666,-2.7505,-2.7748,-2.7731,-2.7761,-2.8117,-2.8574,-2.8623,-2.8693,-2.8996,-2.9332,-2.9289,-2.9273,-2.971,-4.0054,-4.037,-3.923,-3.9017,-3.926,-3.8303,-3.7689,-3.7231,-3.6529,-3.5833,-3.5218,-3.4822,-3.4441,-3.4074,-3.3739,-3.3172,-3.2419,-3.2089,-3.1737,-3.1694,-3.2046,-3.261,-3.2707,-3.3423,-3.379,-3.4009,-3.4101,-3.4075,-3.4101,-3.4101,-3.3933,-3.3491,-3.2776,-3.2259,-3.1838,-3.1087,-3.0657,-3.0612,-3.0612,-3.0612,-3.0612,-3.093,-3.1018,-3.0945,-3.083,-3.0627,-3.0481,-2.9958,-2.961,-2.9523,-2.9319,-2.9189,-2.9073,-2.8841,-2.8362,-2.7811,-2.7432,-2.7084,-2.6866,-2.6794,-2.6951,-2.7159,-2.7124,-2.6708,-2.6271,-2.5864,-2.5415,-2.4317,-2.3513,-2.3095,-2.3108,-2.3333,-2.3384,-2.3258,-2.3653,-2.369,-2.3462,-2.3768,-2.4921,-2.6267,-2.6344,-2.6483,-2.6786,-2.7693,-2.8783,-2.9144,-2.9158,-2.899,-2.8807,-2.9216,-2.9655,-3.0072,-3.0192,-3.0245,-3.0365,-2.9668,-2.8768,-2.8347,-2.8144,-2.7708,-2.7708,-2.8013,-2.8391,-2.8753,-2.8594,-2.8347,-2.8447,-2.8893,-2.8814,-2.8719,-2.9022,-2.922,-2.9002,-2.9028,-2.939,-3.9544,-3.9933,-3.8395,-3.8216,-3.864,-3.7313,-3.667,-3.6556,-3.5641,-3.5111,-3.4878,-3.4249,-3.3924,-3.3697,-3.3119,-3.2336,-3.148,-3.1437,-3.1277,-3.1321,-3.1537,-3.2102,-3.2772,-3.3119,-3.3319,-3.3764,-3.3626,-3.3882,-3.4075,-3.4101,-3.3764,-3.3282,-3.2695,-3.2104,-3.1508,-3.0925,-3.0687,-3.0612,-3.0612,-3.0612,-3.0612,-3.0612,-3.0612,-3.0612,-3.0612,-3.0612,-3.0554,-3.0161,-2.9914,-2.9885,-2.9827,-2.9813,-2.9813,-2.9813,-2.9218,-2.8145,-2.7797,-2.7405,-2.7142,-2.6794,-2.6881,-2.7159,-2.719,-2.6455,-2.5739,-2.548,-2.5214,-2.4189,-2.3459,-2.3108,-2.3158,-2.3496,-2.3602,-2.3627,-2.3816,-2.4042,-2.376,-2.3833,-2.4093,-2.4944,-2.522,-2.5851,-2.6496,-2.6754,-2.7884,-2.8184,-2.8198,-2.8253,-2.8148,-2.8726,-2.9234,-2.9877,-3.0135,-3.0086,-3.0031,-2.9827,-2.9015,-2.8405,-2.8405,-2.8302,-2.8462,-2.8695,-2.9,-2.9102,-2.9479,-2.9276,-2.9276,-2.9116,-2.9026,-2.9005,-2.9104,-2.894,-2.8458,-2.849,-2.8828,-3.8309,-3.8577,-3.7528,-3.715,-3.7141,-3.6379,-3.5663,-3.5236,-3.5,-3.4591,-3.4367,-3.3658,-3.3355,-3.3024,-3.2198,-3.1665,-3.1364,-3.1029,-3.0822,-3.0896,-3.1234,-3.1766,-3.241,-3.2492,-3.2788,-3.3188,-3.29,-3.3245,-3.3736,-3.3956,-3.3761,-3.3214,-3.2667,-3.2107,-3.1484,-3.091,-3.0642,-3.0612,-3.0612,-3.0612,-3.0612,-3.0612,-3.0612,-3.0612,-3.0612,-3.0612,-3.0612,-3.0423,-3.0409,-3.0423,-3.0452,-3.0481,-3.0496,-3.0481,-2.9784,-2.8811,-2.81,-2.7666,-2.7447,-2.7055,-2.6953,-2.707,-2.6778,-2.6097,-2.5547,-2.4478,-2.3976,-2.4116,-2.3434,-2.312,-2.3108,-2.3208,-2.3434,-2.3866,-2.4243,-2.4544,-2.4449,-2.3941,-2.4185,-2.4165,-2.4637,-2.5801,-2.6738,-2.6773,-2.691,-2.7088,-2.7247,-2.7323,-2.7566,-2.8147,-2.8996,-2.9725,-3.0008,-2.9986,-2.99,-2.9639,-2.9203,-2.8507,-2.8666,-2.884,-2.8985,-2.9102,-2.8884,-2.9102,-2.9581,-2.9929,-2.9755,-2.9537,-2.9305,-2.9127,-2.9057,-2.8474,-2.7735,-2.7955,-2.8428,-3.846,-3.8303,-3.7139,-3.697,-3.7208,-3.5587,-3.525,-3.5596,-3.4654,-3.4394,-3.4459,-3.3603,-3.2879,-3.2226,-3.1652,-3.1306,-3.0999,-3.0717,-3.0612,-3.0612,-3.0911,-3.1335,-3.1781,-3.1923,-3.2173,-3.2559,-3.2574,-3.2629,-3.3181,-3.3475,-3.3459,-3.3177,-3.2665,-3.2092,-3.1456,-3.0893,-3.0671,-3.0612,-3.0612,-3.0612,-3.0612,-3.0612,-3.0612,-3.0612,-3.0612,-3.0612,-3.0612,-3.0612,-3.0612,-3.0612,-3.0612,-3.0612,-3.0598,-3.0539,-3.0118,-2.9334,-2.8623,-2.7955,-2.7273,-2.6953,-2.7012,-2.7025,-2.6624,-2.6289,-2.5621,-2.4292,-2.3346,-2.3941,-2.3434,-2.3145,-2.3195,-2.3421,-2.3703,-2.4092,-2.455,-2.4763,-2.4845,-2.4443,-2.4199,-2.4092,-2.4155,-2.5272,-2.6146,-2.6075,-2.5963,-2.6028,-2.6264,-2.6449,-2.6925,-2.7591,-2.8584,-2.9709,-2.9826,-2.9827,-2.974,-2.9581,-2.9232,-2.8797,-2.9102,-2.9247,-2.9406,-2.9406,-2.9305,-2.9319,-2.974,-2.9972,-3.0045,-2.9972,-2.9769,-2.9347,-2.8906,-2.8334,-2.7828,-2.7957,-2.842,-3.8456,-3.8185,-3.7125,-3.6832,-3.6816,-3.4757,-3.4569,-3.5479,-3.4128,-3.3878,-3.4101,-3.3275,-3.2185,-3.148,-3.1234,-3.1014,-3.0642,-3.0612,-3.0612,-3.0612,-3.0687,-3.0999,-3.135,-3.1495,-3.1595,-3.216,-3.1879,-3.202,-3.2275,-3.2566,-3.2769,-3.2837,-3.2294,-3.1812,-3.1287,-3.0859,-3.0612,-3.0612,-3.0612,-3.0612,-3.0612,-3.0612,-3.0612,-3.0612,-3.0612,-3.0612,-3.0612,-3.0612,-3.0612,-3.0612,-3.0612,-3.0612,-3.0612,-3.0569,-3.0234,-2.9624,-2.9087,-2.8361,-2.752,-2.6968,-2.6823,-2.6724,-2.6368,-2.5814,-2.5212,-2.3922,-2.3208,-2.369,-2.3384,-2.3133,-2.3208,-2.3627,-2.4017,-2.4343,-2.4713,-2.4938,-2.5109,-2.4858,-2.4594,-2.4456,-2.4431,-2.4443,-2.5058,-2.5086,-2.5032,-2.4995,-2.5201,-2.5608,-2.6421,-2.7317,-2.8194,-2.9334,-2.9363,-2.929,-2.9073,-2.9,-2.8826,-2.9,-2.9305,-2.9508,-2.9566,-2.9885,-3.0031,-3.0074,-3.0016,-2.9958,-2.9987,-3.0118,-3.0176,-2.9537,-2.8924,-2.8508,-2.8169,-2.8218,-2.8278,-3.77,-3.7915,-3.756,-3.6337,-3.4695,-3.4109,-3.3638,-3.3568,-3.3099,-3.2942,-3.2944,-3.2076,-3.1407,-3.0851,-3.0777,-3.0732,-3.0612,-3.0612,-3.0612,-3.0612,-3.0672,-3.0911,-3.1117,-3.1102,-3.0999,-3.1408,-3.1263,-3.1263,-3.1469,-3.1679,-3.1723,-3.1601,-3.1916,-3.1324,-3.1025,-3.0974,-3.0685,-3.0641,-3.0612,-3.0612,-3.0612,-3.0612,-3.0612,-3.0612,-3.0612,-3.0612,-3.0612,-3.0612,-3.0612,-3.0612,-3.0612,-3.0612,-3.0612,-3.0612,-3.0248,-2.9581,-2.9363,-2.8579,-2.765,-2.7099,-2.6852,-2.6502,-2.5964,-2.521,-2.4557,-2.3705,-2.3248,-2.3351,-2.3321,-2.3296,-2.3371,-2.3622,-2.4268,-2.4732,-2.5146,-2.5498,-2.5611,-2.546,-2.5197,-2.4888,-2.4859,-2.4995,-2.5199,-2.5501,-2.5076,-2.5008,-2.5252,-2.5648,-2.6602,-2.7456,-2.8054,-2.871,-2.8767,-2.8565,-2.8145,-2.8159,-2.8594,-2.8869,-2.9116,-2.9392,-2.9595,-2.9987,-3.0467,-3.0292,-3.0118,-3.0016,-2.9943,-3.0089,-3.0016,-2.9493,-2.9013,-2.8716,-2.8497,-2.8444,-2.8374,-3.7706,-3.7546,-3.7062,-3.634,-3.5458,-3.4116,-3.3404,-3.316,-3.2924,-3.2477,-3.1977,-3.1623,-3.1175,-3.0747,-3.0612,-3.0612,-3.0612,-3.0612,-3.0612,-3.0612,-3.0657,-3.0747,-3.0807,-3.0807,-3.0717,-3.091,-3.0717,-3.0904,-3.1437,-3.1182,-3.127,-3.1438,-3.1823,-3.2299,-3.214,-3.1395,-3.0945,-3.0656,-3.0612,-3.0612,-3.0612,-3.0612,-3.0612,-3.0612,-3.0612,-3.0612,-3.0612,-3.0612,-3.0612,-3.0612,-3.0612,-3.0612,-3.0612,-3.0612,-3.0089,-2.9319,-2.9189,-2.8492,-2.7621,-2.7202,-2.7054,-2.6261,-2.5743,-2.5175,-2.4363,-2.3881,-2.3726,-2.3697,-2.3727,-2.3887,-2.4211,-2.4393,-2.472,-2.5159,-2.5594,-2.6051,-2.6249,-2.6184,-2.6031,-2.5831,-2.573,-2.5761,-2.5991,-2.6283,-2.5636,-2.5083,-2.5387,-2.5796,-2.6666,-2.7297,-2.7759,-2.8057,-2.8113,-2.8317,-2.7969,-2.8216,-2.8564,-2.8695,-2.887,-2.9204,-2.9494,-3.0161,-3.051,-3.035,-3.0248,-3.0161,-3.0103,-3.0118,-2.9929,-2.961,-2.9362,-2.9126,-2.8936,-2.8639,-2.87,-3.7387,-3.6906,-3.6243,-3.576,-3.531,-3.381,-3.3018,-3.2811,-3.2511,-3.1977,-3.1234,-3.116,-3.097,-3.0657,-3.0538,-3.0507,-3.0507,-3.0552,-3.0507,-3.0507,-3.0507,-3.0538,-3.0552,-3.0611,-3.0714,-3.0742,-3.0699,-3.0918,-3.1456,-3.0888,-3.1019,-3.1484,-3.193,-3.2338,-3.2367,-3.2048,-3.1206,-3.0757,-3.0612,-3.0612,-3.0612,-3.0612,-3.0612,-3.0612,-3.0612,-3.0612,-3.0612,-3.0612,-3.0612,-3.0612,-3.0612,-3.0612,-3.0612,-3.0467,-2.9972,-2.9363,-2.8811,-2.8318,-2.7549,-2.7089,-2.7056,-2.6424,-2.6002,-2.5439,-2.4878,-2.464,-2.4688,-2.4667,-2.4766,-2.5009,-2.5364,-2.5505,-2.58,-2.6298,-2.6365,-2.6711,-2.7083,-2.7157,-2.6954,-2.6785,-2.681,-2.6921,-2.6934,-2.7139,-2.6749,-2.6112,-2.6005,-2.6204,-2.6489,-2.6957,-2.712,-2.7345,-2.7447,-2.7708,-2.7955,-2.7939,-2.7895,-2.7997,-2.8274,-2.8956,-2.9406,-3.0045,-3.0539,-3.051,-3.0423,-3.0306,-3.0277,-3.0277,-3.0103,-2.99,-2.945,-2.891,-2.8636,-2.8416,-2.9037,-3.661,-3.5892,-3.5219,-3.4408,-3.3611,-3.3037,-3.237,-3.1743,-3.1567,-3.1219,-3.0687,-3.0493,-3.0507,-3.0477,-3.0387,-3.0312,-3.0357,-3.0477,-3.0431,-3.028,-3.0477,-3.0447,-3.0447,-3.0535,-3.0756,-3.1192,-3.0974,-3.0932,-3.1496,-3.0872,-3.0988,-3.1351,-3.1625,-3.1698,-3.1582,-3.1524,-3.1177,-3.0699,-3.0598,-3.0423,-3.0598,-3.0539,-3.0452,-3.0612,-3.0612,-3.0612,-3.0612,-3.0612,-3.0612,-3.0612,-3.0612,-3.0612,-3.0612,-3.051,-3.006,-2.9479,-2.9377,-2.8754,-2.7753,-2.7171,-2.6828,-2.665,-2.6286,-2.5893,-2.5813,-2.5755,-2.5704,-2.5551,-2.5968,-2.6482,-2.6714,-2.6734,-2.6974,-2.7104,-2.7157,-2.7262,-2.7583,-2.7879,-2.7662,-2.7674,-2.8032,-2.8325,-2.8163,-2.8039,-2.7811,-2.7381,-2.6905,-2.6803,-2.6841,-2.6888,-2.7099,-2.7041,-2.72,-2.7447,-2.7665,-2.7302,-2.7227,-2.7343,-2.7808,-2.8594,-2.9218,-2.9769,-3.0161,-3.0481,-3.0539,-3.0379,-3.0438,-3.0481,-3.0016,-2.9464,-2.8927,-2.8446,-2.8217,-2.8434,-2.9223,-3.6091,-3.5141,-3.4632,-3.3907,-3.3006,-3.2675,-3.202,-3.1248,-3.0984,-3.0717,-3.0433,-3.0326,-3.028,-3.0249,-3.0219,-3.0144,-3.0174,-3.0326,-3.0235,-3.0172,-3.0431,-3.0417,-3.0417,-3.0476,-3.0727,-3.0816,-3.0699,-3.0901,-3.1496,-3.0903,-3.0988,-3.1335,-3.1393,-3.1495,-3.1364,-3.1192,-3.0727,-3.0452,-2.9973,-2.9668,-3.0438,-3.0234,-3.0176,-3.0583,-3.0612,-3.0612,-3.0612,-3.0612,-3.0612,-3.0612,-3.0612,-3.0583,-3.0467,-3.0322,-2.9682,-2.9044,-2.8724,-2.7998,-2.7302,-2.6878,-2.6808,-2.6729,-2.6594,-2.6286,-2.6004,-2.5924,-2.6088,-2.6321,-2.6528,-2.7018,-2.7584,-2.7422,-2.753,-2.757,-2.7627,-2.7694,-2.7934,-2.8241,-2.8295,-2.8442,-2.8707,-2.932,-2.9466,-2.9151,-2.8864,-2.8511,-2.8054,-2.7596,-2.7483,-2.7378,-2.7405,-2.7186,-2.7186,-2.736,-2.7432,-2.7534,-2.7706,-2.7982,-2.82,-2.8578,-2.9116,-2.9668,-2.9871,-3.0176,-3.0365,-3.0481,-3.0234,-2.9943,-2.9435,-2.8913,-2.8783,-2.8739,-2.8765,-2.9121,-2.9809,-3.5799,-3.4653,-3.4122,-3.3246,-3.2389,-3.2312,-3.1838,-3.1129,-3.0684,-3.0387,-3.0235,-3.0174,-3.0144,-3.0066,-3.0036,-3.0005,-3.0021,-3.0158,-3.0083,-3.0019,-3.0264,-3.028,-3.0296,-3.0385,-3.0678,-3.0681,-3.0683,-3.0841,-3.1453,-3.0903,-3.0845,-3.1047,-3.1206,-3.1134,-3.1076,-3.0959,-3.0684,-3.0321,-2.9755,-2.9929,-3.0336,-3.0306,-3.0234,-3.0496,-3.0612,-3.0612,-3.0612,-3.0612,-3.0612,-3.0612,-3.0583,-3.0481,-3.0205,-2.9827,-2.9189,-2.8492,-2.7998,-2.7492,-2.7273,-2.7186,-2.72,-2.7159,-2.6953,-2.6635,-2.6385,-2.6517,-2.6736,-2.6903,-2.6868,-2.7631,-2.8435,-2.8246,-2.8357,-2.8398,-2.8467,-2.8595,-2.8841,-2.9153,-2.9251,-2.9376,-2.947,-3.0085,-3.0433,-3.0303,-2.9999,-2.9595,-2.9204,-2.8681,-2.8159,-2.7971,-2.7855,-2.7708,-2.7636,-2.7911,-2.8115,-2.8245,-2.8447,-2.8651,-2.8796,-2.8898,-2.9261,-2.9827,-2.9871,-2.9943,-3.0277,-3.035,-2.9813,-2.9378,-2.9363,-2.9377,-2.9421,-2.9392,-2.9377,-2.9549,-2.9878,-3.5691,-3.4434,-3.3592,-3.2526,-3.1516,-3.1871,-3.1776,-3.1176,-3.0585,-3.0219,-3.008,-2.9915,-2.9898,-3.0005,-2.9853,-2.9792,-2.9853,-3.0005,-2.9882,-2.9834,-3.005,-3.0066,-3.0097,-3.0172,-3.0512,-3.0836,-3.0807,-3.0648,-3.1321,-3.0781,-3.0565,-3.064,-3.0712,-3.0625,-3.0713,-3.0843,-3.064,-3.0219,-2.9842,-3.0089,-3.0423,-3.0322,-3.0307,-3.0452,-3.0496,-3.051,-3.0539,-3.0612,-3.0612,-3.0583,-3.0525,-3.0161,-2.9842,-2.9552,-2.8739,-2.8058,-2.7652,-2.7652,-2.7623,-2.7579,-2.7739,-2.7694,-2.7215,-2.6927,-2.6828,-2.6953,-2.7177,-2.7623,-2.7883,-2.8685,-2.9376,-2.9454,-2.9539,-2.9596,-2.9652,-2.982,-3.0109,-3.0256,-3.0328,-3.0342,-3.0312,-3.0568,-3.0539,-3.0496,-3.0205,-3.006,-2.9653,-2.9435,-2.8942,-2.8521,-2.8434,-2.8434,-2.8462,-2.8623,-2.8797,-2.8956,-2.9188,-2.9406,-2.929,-2.9406,-2.9755,-2.9885,-2.99,-3.0031,-3.0379,-3.035,-3.0016,-2.9842,-2.9769,-2.9784,-2.9566,-2.9102,-2.8797,-2.8884,-2.9083,-3.4851,-3.3395,-3.2673,-3.1816,-3.1061,-3.1298,-3.1046,-3.0444,-3.0215,-3.0066,-2.9898,-2.9839,-2.9792,-2.9727,-2.9682,-2.9651,-2.9713,-2.9775,-2.9744,-2.9789,-2.9896,-2.9943,-2.9991,-3.0097,-3.0362,-3.0422,-3.0424,-3.0397,-3.0465,-3.0249,-3.0326,-3.0371,-3.0447,-3.026,-3.0306,-3.0539,-3.0466,-3.0248,-2.9857,-3.006,-3.0176,-2.9958,-3.0104,-3.0336,-3.0219,-3.0277,-3.0525,-3.0598,-3.0612,-3.0598,-3.0132,-2.9726,-2.9668,-2.8783,-2.7797,-2.7287,-2.7403,-2.771,-2.7782,-2.8158,-2.8376,-2.8202,-2.7752,-2.7215,-2.7026,-2.707,-2.7347,-2.7826,-2.8348,-2.8942,-2.9494,-2.9752,-2.9878,-2.9949,-3.005,-3.0227,-3.0452,-3.0481,-3.0539,-3.0438,-3.0438,-3.0423,-3.0409,-3.0132,-2.9914,-3.0031,-3.0001,-2.9798,-2.9653,-2.9218,-2.9087,-2.9101,-2.916,-2.9319,-2.9537,-2.9711,-2.9958,-3.0118,-2.9929,-2.9726,-2.9769,-2.9885,-2.99,-3.0089,-3.0393,-3.051,-3.0438,-3.0176,-2.9798,-2.9523,-2.9276,-2.871,-2.8303,-2.8419,-2.8347,-3.4045,-3.3212,-3.216,-3.1195,-3.0432,-3.0449,-3.0239,-2.9955,-2.9988,-2.9867,-2.973,-2.9699,-2.9682,-2.9634,-2.9602,-2.9602,-2.9602,-2.9682,-2.9651,-2.9696,-2.9834,-2.9882,-2.996,-3.0007,-3.0142,-3.0189,-3.0249,-3.0264,-3.0219,-3.028,-3.0371,-3.0447,-3.0403,-3.0246,-3.0248,-3.0466,-3.0598,-3.0351,-3.0104,-3.006,-2.9944,-2.9828,-3.0162,-3.0292,-3.0089,-3.0292,-3.0525,-3.0598,-3.0612,-3.0525,-2.9958,-2.961,-2.9479,-2.8666,-2.784,-2.7549,-2.8129,-2.8275,-2.8318,-2.8476,-2.8636,-2.8521,-2.8144,-2.7594,-2.736,-2.7345,-2.7478,-2.7768,-2.8275,-2.8797,-2.9334,-2.9798,-2.9914,-3.0016,-3.0219,-3.0393,-3.0438,-3.0467,-3.0365,-3.0205,-3.0161,-3.0132,-3.0001,-2.9711,-2.9624,-2.9798,-2.9856,-2.974,-2.9827,-2.9813,-2.9769,-2.9813,-2.99,-3.0001,-3.0176,-3.0234,-3.0336,-3.038,-3.0322,-3.0132,-3.0001,-3.0031,-3.0205,-3.0277,-3.0364,-3.0379,-3.0321,-2.9958,-2.9566,-2.9377,-2.9116,-2.8637,-2.8231,-2.8029,-2.7882,-3.3166,-3.3396,-3.184,-3.058,-2.969,-2.9645,-2.9662,-2.9602,-2.9744,-2.9713,-2.9634,-2.9602,-2.9602,-2.9602,-2.9602,-2.9602,-2.9602,-2.9634,-2.9634,-2.9602,-2.9634,-2.9758,-2.9851,-2.982,-3.0036,-3.0249,-3.0341,-3.0219,-3.0447,-3.0431,-3.0401,-3.0582,-3.0538,-3.0451,-3.0466,-3.0539,-3.0612,-3.0525,-3.0452,-3.0452,-3.0467,-3.051,-3.0554,-3.0554,-3.0496,-3.0496,-3.0569,-3.0612,-3.0612,-3.0409,-3.006,-2.9639,-2.9261,-2.8956,-2.8303,-2.829,-2.8797,-2.8826,-2.8797,-2.8956,-2.8927,-2.871,-2.8245,-2.8116,-2.8072,-2.7868,-2.7955,-2.8116,-2.8623,-2.9044,-2.9552,-3.006,-3.0277,-3.0336,-3.0438,-3.0525,-3.0525,-3.0481,-3.0292,-3.0176,-3.0132,-3.006,-2.9581,-2.9363,-2.9595,-2.9653,-2.9668,-2.9653,-2.9958,-3.019,-3.0278,-3.0351,-3.0336,-3.0351,-3.0423,-3.0481,-3.0525,-3.0554,-3.0525,-3.051,-3.0306,-3.0423,-3.0583,-3.0554,-3.0481,-3.0234,-3.0074,-2.9914,-2.9755,-2.945,-2.9131,-2.8623,-2.8274,-2.8058,-2.752,-3.2085,-3.1809,-3.0523,-2.9823,-2.9617,-2.9602,-2.9602,-2.9602,-2.9634,-2.9634,-2.9602,-2.9602,-2.9602,-2.9602,-2.9602,-2.9602,-2.9602,-2.9602,-2.9602,-2.9602,-2.9602,-2.9713,-2.9867,-2.9792,-2.996,-3.008,-3.0142,-3.0189,-3.031,-3.031,-3.031,-3.0387,-3.0417,-3.0477,-3.0598,-3.0598,-3.0582,-3.0582,-3.0582,-3.0582,-3.0553,-3.019,-3.0001,-3.0219,-3.0321,-3.0292,-3.0423,-3.0612,-3.0612,-3.0496,-2.9943,-2.945,-2.8927,-2.8811,-2.8665,-2.8652,-2.9203,-2.9232,-2.9189,-2.9421,-2.9639,-2.9464,-2.9175,-2.9175,-2.9044,-2.8681,-2.8565,-2.8753,-2.9029,-2.9407,-2.9769,-3.0248,-3.0612,-3.0612,-3.0612,-3.0612,-3.0627,-3.051,-3.0321,-3.0219,-3.0176,-2.9813,-2.9348,-2.9276,-2.9494,-2.961,-2.961,-2.9726,-3.0205,-3.051,-3.0496,-3.0539,-3.0525,-3.0554,-3.0612,-3.0612,-3.0612,-3.0612,-3.0569,-3.0583,-3.0612,-3.0612,-3.0612,-3.0612,-3.0539,-3.0335,-3.0292,-3.035,-3.0147,-2.9813,-2.9319,-2.8898,-2.8695,-2.8507,-2.765,-3.1065,-3.113,-3.0075,-2.9602,-2.9602,-2.9602,-2.9602,-2.9602,-2.9602,-2.9602,-2.9602,-2.9602,-2.9602,-2.9602,-2.9602,-2.9602,-2.9602,-2.9602,-2.9602,-2.9602,-2.9651,-2.973,-2.9777,-2.9808,-3.0007,-3.0113,-3.028,-3.0341,-3.028,-3.0341,-3.0401,-3.0417,-3.0447,-3.0477,-3.0568,-3.0538,-3.0477,-3.0447,-3.0477,-3.0477,-3.0507,-3.0262,-3.0161,-3.0364,-3.038,-3.0336,-3.0409,-3.0612,-3.0612,-3.0569,-3.0219,-2.9784,-2.9479,-2.9493,-2.9392,-2.9377,-2.9581,-2.9769,-2.9595,-2.9798,-3.0248,-2.9871,-2.9972,-2.9914,-2.9552,-2.9247,-2.9334,-2.9523,-2.9784,-3.0147,-3.0176,-3.0539,-3.0598,-3.0612,-3.067,-3.0699,-3.0901,-3.1047,-3.0742,-3.0408,-3.0306,-3.0074,-2.9668,-2.9407,-2.9711,-3.0248,-3.0161,-3.0176,-3.0568,-3.0816,-3.0801,-3.0714,-3.067,-3.0627,-3.0612,-3.0612,-3.0612,-3.0612,-3.0612,-3.0612,-3.0612,-3.0612,-3.0612,-3.0612,-3.0612,-3.0583,-3.0569,-3.0525,-3.0539,-3.0249,-2.9726,-2.9218,-2.9073,-2.8898,-2.8231,-3.0194,-3.0862,-3.0015,-2.9602,-2.9602,-2.9602,-2.9602,-2.9602,-2.9602,-2.9602,-2.9602,-2.9602,-2.9602,-2.9602,-2.9602,-2.9602,-2.9602,-2.9602,-2.9602,-2.9634,-2.9744,-2.9822,-2.9822,-2.9839,-2.9976,-3.016,-3.0357,-3.0447,-3.0462,-3.0522,-3.0552,-3.0612,-3.0612,-3.0582,-3.0507,-3.0403,-3.0326,-3.0296,-3.0296,-3.0326,-3.0387,-3.0477,-3.0553,-3.0583,-3.0612,-3.0612,-3.0612,-3.0612,-3.0612,-3.0583,-3.0525,-3.022,-3.0031,-3.006,-3.0016,-3.0001,-3.0118,-3.006,-2.9856,-3.0118,-3.0074,-2.9958,-3.035,-3.0364,-3.0016,-2.9958,-3.0031,-3.0176,-3.0452,-3.0554,-3.0569,-3.0598,-3.0627,-3.067,-3.0743,-3.0903,-3.1206,-3.148,-3.1148,-3.0742,-3.0684,-3.0495,-3.0001,-2.9726,-3.0205,-3.0713,-3.0945,-3.0959,-3.1003,-3.109,-3.1134,-3.0916,-3.0757,-3.0699,-3.0627,-3.0612,-3.0612,-3.0612,-3.0612,-3.0612,-3.0612,-3.0612,-3.0612,-3.0612,-3.0612,-3.0612,-3.0496,-3.0394,-3.0423,-3.0539,-2.9958,-2.9435,-2.9464,-2.9261,-2.8855,-2.9721,-2.9882,-2.9676,-2.9602,-2.9602,-2.9602,-2.9602,-2.9602,-2.9602,-2.9602,-2.9602,-2.9602,-2.9602,-2.9602,-2.9602,-2.9602,-2.9602,-2.9602,-2.9602,-2.9634,-2.9775,-2.9898,-2.996,-2.9915,-2.9853,-3.0038,-3.0251,-3.0342,-3.0477,-3.0582,-3.0612,-3.0612,-3.0612,-3.0538,-3.0357,-3.0296,-3.0266,-3.0219,-3.0266,-3.0296,-3.0357,-3.0477,-3.0582,-3.0612,-3.0612,-3.0612,-3.0612,-3.0612,-3.0612,-3.0612,-3.0598,-3.0496,-3.0452,-3.0467,-3.0423,-3.0394,-3.0539,-3.0248,-3.0147,-3.0422,-3.0321,-2.9943,-3.0292,-3.0611,-3.0393,-3.038,-3.0423,-3.0438,-3.0612,-3.0627,-3.0641,-3.0699,-3.0728,-3.0816,-3.0903,-3.1206,-3.1555,-3.1685,-3.1598,-3.1642,-3.1787,-3.1119,-3.019,-3.0408,-3.1163,-3.1584,-3.183,-3.1816,-3.1511,-3.1496,-3.1555,-3.1293,-3.1018,-3.0714,-3.0612,-3.0612,-3.0612,-3.0612,-3.0612,-3.0612,-3.0612,-3.0612,-3.0612,-3.0612,-3.0612,-3.0612,-3.0467,-3.038,-3.0467,-3.051,-2.9987,-2.961,-2.9668,-2.9566,-2.9117]},{"header":{"parameterUnit":"m.s-1","parameterCategory":1,"la1":31.0,"la2":29.5877,"lo1":-88.7671,"lo2":-86.6584,"dy":0.0162,"dx":0.0185,"nx":115,"ny":88,"refTime":"2024-05-05T12:00:00:Z","depth":0,"parameterNumber":3,"parameterNumberName":"V-component_of_WINDS"},"data":[0.0,0.0,0.0,0.0,0.0,0.0,0.0,0.0,0.0,0.0,0.0,0.0,0.0,0.0,0.0,0.0,0.0,0.0,0.0,0.0,0.0,0.0,0.0,0.0,0.0,0.0,0.0,0.0,0.0,0.0,0.0,0.0,0.0,0.0,0.0,0.0,0.0,0.0,0.0,0.0,0.0,0.0,0.0,0.0,0.0,0.0,0.0,0.0,0.0,0.0,0.0,0.0,0.0,0.0,0.0,0.0,0.0,0.0,0.0,0.0,0.0,0.0,0.0,0.0,0.0,0.0,0.0,0.0,0.0,0.0,0.0,0.0,0.0,0.0,0.0,0.0,0.0,0.0,0.0,0.0,0.0,0.0,0.0,0.0,0.0,0.0,0.0,0.0,0.0,0.0,0.0,0.0,0.0,0.0,0.0,0.0,0.0,0.0,0.0,0.0,0.0,0.0,0.0,0.0,0.0,0.0,0.0,0.0,0.0,0.0,0.0,0.0,0.0,0.0,0.0,0.0,0.0,0.0,0.0,0.0,0.0,0.0,0.0,0.0,0.0,0.0,0.0,0.0,0.0,0.0,0.0,0.0,0.0,0.0,0.0,0.0,0.0,0.0,0.0,0.0,0.0,0.0,0.0,0.0,0.0,0.0,0.0,0.0,0.0,0.0,0.0,0.0,0.0,0.0,0.0,0.0,0.0,0.0,0.0,0.0,0.0,0.0,0.0,0.0,0.0,0.0,0.0,0.0,0.0,0.0,0.0,0.0,0.0,0.0,0.0,0.0,0.0,0.0,0.0,0.0,0.0,0.0,0.0,0.0,0.0,0.0,0.0,0.0,0.0,0.0,0.0,0.0,0.0,0.0,0.0,0.0,0.0,0.0,0.0,0.0,0.0,0.0,0.0,0.0,0.0,0.0,0.0,0.0,0.0,0.0,0.0,0.0,0.0,0.0,0.0,0.0,0.0,0.0,0.0,0.0,0.0,0.0,0.0,0.0,0.0,0.0,0.0,0.0,0.0,0.0,0.0,0.0,0.0,0.0,0.0,0.0,0.0,0.0,0.0,0.0,0.0,0.0,0.0,0.0,0.0,0.0,0.0,0.0,0.0,0.0,0.0,0.0,0.0,0.0,0.0,0.0,0.0,0.0,0.0,0.0,0.0,0.0,0.0,0.0,0.0,0.0,0.0,0.0,0.0,0.0,0.0,0.0,0.0,0.0,0.0,0.0,0.0,0.0,0.0,0.0,0.0,0.0,0.0,0.0,0.0,0.0,0.0,0.0,0.0,0.0,0.0,0.0,0.0,0.0,0.0,0.0,0.0,0.0,0.0,0.0,0.0,0.0,0.0,0.0,0.0,0.0,0.0,0.0,0.0,0.0,0.0,0.0,0.0,0.0,0.0,0.0,0.0,0.0,0.0,0.0,0.0,0.0,0.0,0.0,0.0,0.0,0.0,0.0,0.0,0.0,0.0,0.0,0.0,0.0,0.0,0.0,0.0,0.0,0.0,0.0,0.0,0.0,0.0,0.0,0.0,0.0,0.0,0.0,0.0,0.0,0.0,0.0,0.0,0.0,0.0,0.0,0.0,0.0,0.0,0.0,0.0,0.0,0.0,0.0,0.0,0.0,0.0,0.0,0.0,0.0,0.0,0.0,0.0,0.0,0.0,0.0,0.0,0.0,0.0,0.0,0.0,0.0,0.0,0.0,0.0,0.0,0.0,0.0,0.0,0.0,0.0,0.0,0.0,0.0,0.0,0.0,0.0,0.0,0.0,0.0,0.0,0.0,0.0,0.0,0.0,0.0,0.0,0.0,0.0,0.0,0.0,0.0,0.0,0.0,0.0,0.0,0.0,0.0,0.0,0.0,0.0,0.0,0.0,0.0,0.0,0.0,0.0,0.0,0.0,0.0,0.0,0.0,0.0,0.0,0.0,0.0,0.0,0.0,0.0,0.0,0.0,0.0,0.0,0.0,0.0,0.0,0.0,0.0,0.0,0.0,0.0,0.0,0.0,0.0,0.0,0.0,0.0,0.0,0.0,0.0,0.0,0.0,0.0,0.0,0.0,0.0,0.0,0.0,0.0,0.0,0.0,0.0,0.0,0.0,0.0,0.0,0.0,0.0,0.0,0.0,0.0,0.0,0.0,0.0,0.0,0.0,0.0,0.0,0.0,0.0,0.0,0.0,0.0,0.0,0.0,0.0,0.0,0.0,0.0,0.0,0.0,0.0,0.0,0.0,0.0,0.0,0.0,0.0,0.0,0.0,0.0,0.0,0.0,0.0,0.0,0.0,0.0,0.0,0.0,0.0,0.0,0.0,0.0,0.0,0.0,0.0,0.0,0.0,0.0,0.0,0.0,0.0,0.0,0.0,0.0,0.0,0.0,0.0,0.0,0.0,0.0,0.0,0.0,0.0,0.0,0.0,0.0,0.0,0.0,0.0,0.0,0.0,0.0,0.0,0.0,0.0,0.0,0.0,0.0,0.0,0.0,0.0,0.0,0.0,0.0,0.0,0.0,0.0,0.0,0.0,0.0,0.0,0.0,0.0,0.0,0.0,0.0,0.0,0.0,0.0,0.0,0.0,0.0,0.0,0.0,0.0,0.0,0.0,0.0,0.0,0.0,0.0,0.0,0.0,0.0,0.0,0.0,0.0,0.0,0.0,0.0,0.0,0.0,0.0,0.0,0.0,0.0,0.0,0.0,0.0,0.0,0.0,0.0,0.0,0.0,0.0,0.0,0.0,0.0,0.0,0.0,0.0,0.0,0.0,0.0,0.0,0.0,0.0,0.0,0.0,0.0,0.0,0.0,0.0,0.0,0.0,0.0,0.0,0.0,0.0,0.0,0.0,0.0,0.0,0.0,0.0,0.0,0.0,0.0,0.0,0.0,0.0,0.0,0.0,0.0,0.0,0.0,0.0,0.0,0.0,0.0,0.0,0.0,0.0,0.0,0.0,0.0,0.0,0.0,0.0,0.0,0.0,0.0,0.0,0.0,0.0,0.0,0.0,0.0,0.0,0.0,0.0,0.0,0.0,0.0,0.0,0.0,0.0,0.0,0.0,0.0,0.0,0.0,0.0,0.0,0.0,0.0,0.0,0.0,0.0,0.0,0.0,0.0,0.0,0.0,0.0,0.0,0.0,0.0,0.0,0.0,0.0,0.0,0.0,0.0,0.0,0.0,0.0,0.0,0.0,0.0,0.0,0.0,0.0,0.0,0.0,0.0,0.0,0.0,0.0,0.0,0.0,0.0,0.0,0.0,0.0,0.0,0.0,0.0,0.0,0.0,0.0,0.0,0.0,0.0,0.0,0.0,0.0,0.0,0.0,0.0,0.0,0.0,0.0,0.0,0.0,0.0,0.0,0.0,0.0,0.0,0.0,0.0,0.0,0.0,0.0,0.0,0.0,0.0,0.0,0.0,0.0,0.0,0.0,0.0,0.0,0.0,0.0,0.0,0.0,0.0,0.0,0.0,0.0,0.0,0.0,0.0,0.0,0.0,0.0,0.0,0.0,0.0,0.0,0.0,0.0,0.0,0.0,0.0,0.0,0.0,0.0,0.0,0.0,0.0,0.0,0.0,0.0,0.0,0.0,0.0,0.0,0.0,0.0,0.0,0.0,0.0,0.0,0.0,0.0,0.0,0.0,0.0,0.0,0.0,0.0,0.0,0.0,0.0,0.0,0.0,0.0,0.0,0.0,0.0,0.0,0.0,0.0,0.0,0.0,0.0,0.0,0.0,0.0,0.0,0.0,0.0,0.0,0.0,0.0,0.0,0.0,0.0,0.0,0.0,0.0,0.0,0.0,0.0,0.0,0.0,0.0,0.0,0.0,0.0,0.0,0.0,0.0,0.0,0.0,0.0,0.0,0.0,0.0,0.0,0.0,0.0,0.0,0.0,0.0,0.0,0.0,0.0,0.0,0.0,0.0,0.0,0.0,0.0,0.0,0.0,0.0,0.0,0.0,0.0,0.0,0.0,0.0,0.0,0.0,0.0,0.0,0.0,0.0,0.0,0.0,0.0,0.0,0.0,0.0,0.0,0.0,0.0,0.0,0.0,0.0,0.0,0.0,0.0,0.0,0.0,0.0,0.0,0.0,0.0,0.0,0.0,0.0,0.0,0.0,0.0,0.0,0.0,0.0,0.0,0.0,0.0,0.0,0.0,0.0,0.0,0.0,0.0,0.0,0.0,0.0,0.0,0.0,0.0,0.0,0.0,0.0,0.0,0.0,0.0,0.0,0.0,0.0,0.0,0.0,0.0,0.0,0.0,0.0,0.0,0.0,-0.0363,0.0,0.0,0.0,0.0,0.0,0.0,0.0,0.0,0.0,0.0,0.0,0.0,0.0,0.0,0.0,0.0,0.0,0.0,0.0,0.0,0.0,0.0,0.0,0.0,0.0,0.0,0.0,0.0,0.0,0.0,0.0,0.0,0.0,0.0,0.0,0.0,0.0,0.0,0.0,0.0,0.0,0.0,0.0,0.0,0.0,0.0,0.0,0.0,0.0,0.0,0.0,0.0,0.0,0.0,0.0,0.0,0.0,0.0,0.0,0.0,0.0,0.0,0.0,0.0,0.0,0.0,0.0,0.0,0.0,0.0,0.0,0.0,0.0,0.0,0.0,0.0,0.0,0.0,0.0,0.0,0.0,0.0,0.0,0.0,0.0,0.0,0.0,0.0,0.0,0.0,0.0,0.0,0.0,0.0,0.0,0.0,0.0,0.0,0.0,0.0,0.0,0.0,0.0,0.0,0.0,0.0,0.0,0.0,0.0,0.0,0.1379,0.031,-0.1225,-0.1343,-0.0119,0.0,0.0,0.0,0.0,0.0,0.0,0.0,0.0,0.0,0.0,0.0,0.0,0.0,0.0,0.0,0.0,0.0,0.0,0.0,0.0,0.0,0.0,0.0,0.0,0.0,0.0,0.0,0.0,0.0,0.0,0.0,0.0,0.0,0.0,0.0,0.0,0.0,0.0,0.0,0.0,0.0,0.0,0.0,0.0,0.0,0.0,0.0,0.0,0.0,0.0,0.0,0.0,0.0,0.0,0.0,0.0,0.0,0.0,0.0,0.0,0.0,0.0,0.0,0.0,0.0,0.0,0.0,0.0,0.0,0.0,0.0,0.0,0.0,0.0,0.0,0.0,0.0,0.0,0.0,0.0,0.0,0.0,0.0,0.0,0.0,0.0,0.0,0.0,0.0,0.0,0.0,0.0,0.0,0.0,0.0,0.0,0.0,0.0,0.0,0.0,0.0,0.0,0.0,0.0,0.0,0.0,0.0,0.0,0.0,0.0,0.0,0.0,-0.1657,-0.2346,-0.1387,0.0,0.0,0.0,0.0,0.0,0.0,0.0,0.0,0.0,0.0,0.0,0.0,0.0,0.0,0.0,0.0,0.0,0.0,0.0,0.0,0.0,0.0,0.0,0.0,0.0,0.0,0.0,0.0,0.0,0.0,0.0,0.0,0.0,0.0,0.0,0.0,0.0,0.0,0.0,0.0,0.0,0.0,0.0,0.0,0.0,0.0,0.0,0.0,0.0,0.0,0.0,0.0,0.0,0.0,0.0,0.0,0.0,0.0,0.0,0.0,0.0,0.0,0.0,0.0,0.0,0.0,0.0,0.0,0.0,0.0,0.0,0.0,0.0,0.0,0.0,0.0,0.0,0.0,0.0,0.0,0.0,0.0,0.0,0.0,0.0,0.0,0.0,0.0,0.0,0.0,0.0,0.0,0.0,0.0,0.0,0.0,0.0,0.0,0.0,0.0,0.0,0.0,0.0,0.0,0.0,0.0,0.0,0.0,0.0,0.0,0.2033,0.0667,-0.3118,0.0,-0.5176,0.0,0.0,0.0,0.0,0.0,0.0,0.0,0.0,0.0,0.0,0.0,0.0,0.0,0.0,0.0,0.0,0.0,0.0,0.0,0.0,0.0,0.0,0.0,0.0,0.0,0.0,0.0,0.0,0.0,0.0,0.0,0.0,0.0,0.0,0.0,0.0,0.0,0.0,0.0,0.0,0.0,0.0,0.0,0.0,0.0,0.0,0.0,0.0,0.0,0.0,0.0,0.0,0.0,0.0,0.0,0.0,0.0,0.0,0.0,0.0,0.0,0.0,0.0,0.0,0.0,0.0,0.0,0.0,0.0,0.0,0.0,0.0,0.0,0.0,0.0,0.0,0.0,0.0,0.0,0.0,0.0,0.0,0.0,0.0,0.0,0.0,0.0,0.0,0.0,0.0,0.0,0.0,0.0,0.0,0.0,0.0,0.0,0.0,0.0,0.0,0.0,0.0,0.0,0.0,0.0,0.0,0.0,0.0,0.0,0.0,0.2942,0.0953,-0.1337,-0.3431,0.0,0.0,0.0,0.0,0.0,0.0,0.0,0.0,0.0,0.0,0.0,0.0,0.0,0.0,0.0,0.0,0.0,0.0,0.0,0.0,0.0,0.0,0.0,0.0,0.0,0.0,0.0,0.0,0.0,0.0,0.0,0.0,0.0,0.0,0.0,0.0,0.0,0.0,0.0,0.0,0.0,0.0,0.0,0.0,0.0,0.0,0.0,0.0,0.0,0.0,0.0,0.0,0.0,0.0,0.0,0.0,0.0,0.0,0.0,0.0,0.0,0.0,0.0,0.0,0.0,0.0,0.0,0.0,0.0,0.0,0.0,0.0,0.0,0.0,0.0,0.0,0.0,0.0,0.0,0.0,0.0,0.0,0.0,0.0,0.0,0.0,0.0,0.0,0.0,0.0,0.0,0.0,0.0,0.0,0.0,0.0,0.0,0.0,0.0,0.0,0.0,0.0,0.0,0.0,0.0,0.0,0.0,0.0,0.0,0.0,0.5219,0.2903,-0.0624,-0.0672,-0.2241,-0.5513,0.0,0.0,0.0,0.0,0.0,0.0,0.0,0.0,0.0,0.0,0.0,0.0,0.0,0.0,0.0,0.0,0.0,0.0,0.0,0.0,0.0,0.0,0.0,0.0,0.0,0.0,0.0,0.0,0.0,0.0,0.0,0.0,0.0,0.0,0.0,0.0,0.0,0.0,0.0,0.0,0.0,0.0,0.0,0.0,0.0,0.0,0.0,0.0,0.0,0.0,0.0,0.0,0.0,0.0,0.0,0.0,0.0,0.0,0.0,0.0,0.0,0.0,0.0,0.0,0.0,0.0,0.0,0.0,0.0,0.0,0.0,0.0,0.0,0.0,0.0,0.0,0.0,0.0,0.0,0.0,0.0,0.0,0.0,0.0,0.0,0.0,0.0,0.0,0.0,0.0,0.0,0.0,0.0,0.0,0.0,0.0,0.0,0.0,0.0,0.0,0.0,0.0,0.0,0.0,0.0,0.0,0.0,0.0,0.6405,0.5084,0.1269,-0.512,-0.2655,-0.2849,0.0,0.0,0.0,0.0,0.0,0.0,0.0,0.0,0.0,0.0,0.0,0.0,0.0,0.0,0.0,0.0,0.0,0.0,0.0,0.0,0.0,0.0,0.0,0.0,0.0,0.0,0.0,0.0,0.0,0.0,0.0,0.0,0.0,0.0,0.0,0.0,0.0,0.0,0.0,0.0,0.0,0.0,0.0,0.0,0.0,0.0,0.0,0.0,0.0,0.0,0.0,0.0,0.0,0.0,0.0,0.0,0.0,0.0,0.0,0.0,0.0,0.0,0.0,0.0,0.0,0.0,0.0,0.0,0.0,0.0,0.0,0.0,0.0,0.0,0.0,0.0,0.0,0.0,0.0,0.0,0.0,0.0,0.0,0.0,0.0,0.0,0.0,0.0,0.0,0.0,0.0,0.0,0.0,0.0,0.0,0.0,0.0,0.0,0.0,0.0,0.0,0.0,0.0,0.0,0.0,0.0,0.0,0.0,0.0,0.6277,0.3621,-0.0414,-0.5701,-0.2813,-0.2863,0.0,0.0,0.0,0.0,0.0,0.0,0.0,0.0,0.0,0.0,0.0,0.0,0.0,0.0,0.0,0.0,0.0,0.0,0.0,0.0,0.0,0.0,0.0,0.0,0.0,0.0,0.0,0.0,0.0,0.0,0.0,0.0,0.0,0.0,0.0,0.0,0.0,0.0,0.0,0.0,0.0,0.0,0.0,0.0,0.0,0.0,0.0,0.0,0.0,0.0,0.0,0.0,0.0,0.0,0.0,0.0,0.0,0.0,0.0,0.0,0.0,0.0,0.0,0.0,0.0,0.0,0.0,0.0,0.0,0.0,0.0,0.0,0.0,0.0,0.0,0.0,0.0,0.0,0.0,0.0,0.0,0.0,0.0,0.0,0.0,0.0,0.0,0.0,0.0,0.0,0.0,0.0,0.0,0.0,0.0,0.0,0.0,0.0,0.0,0.0,0.0,0.0,0.0,0.0,0.0,0.0,0.0,0.0,0.0,0.5607,0.0,-0.0932,-0.4823,-0.2383,-0.2503,0.0,0.0,0.0,0.0,0.0,0.0,0.0,0.0,0.0,0.0,0.0,0.0,0.0,0.0,0.0,0.0,0.0,0.0,0.0,0.0,0.0,0.0,0.0,0.0,0.0,0.0,0.0,0.0,0.0,0.0,0.0,0.0,0.0,0.0,0.0,0.0,0.0,0.0,0.0,0.0,0.0,0.0,0.0,0.0,0.0,0.0,0.0,0.0,0.0,0.0,0.0,0.0,0.0,0.0,0.0,0.0,0.0,0.0,0.0,0.0,0.0,0.0,0.0,0.0,0.0,0.0,0.0,0.0,0.0,0.0,0.0,0.0,0.0,0.0,0.0,0.0,0.0,0.0,0.0,0.0,0.0,0.0,0.0,0.0,0.0,0.0,0.0,0.0,0.0,0.0,0.0,0.0,0.0,0.0,0.0,0.0,0.0,0.0,0.0,0.0,0.0,0.0,0.0,0.0,0.0,0.0,0.0,0.0,0.7837,0.4336,0.2346,0.0,-0.2621,-0.1647,-0.1788,0.0,0.0,0.0,0.0,0.0,0.0,0.0,0.0,0.0,0.0,0.0,0.0,0.0,0.0,0.0,0.0,0.0,0.0,0.0,0.0,0.0,0.0,0.0,0.0,0.0,0.0,0.0,0.0,0.0,0.0,0.0,0.0,0.0,0.0,0.0,0.0,0.0,0.0,0.0,0.0,0.0,0.0,0.0,0.0,0.0,0.0,0.0,0.0,0.0,0.0,0.0,0.0,0.0,0.0,0.0,0.0,0.0,0.0,0.0,0.0,0.0,0.0,0.0,0.0,0.0,0.0,0.0,0.0,0.0,0.0,0.0,0.0,0.0,0.0,0.0,0.0,0.0,0.0,0.0,0.0,0.0,0.0,0.0,0.0,0.0,0.0,0.0,0.0,0.0,0.0,0.0,0.0,0.0,0.0,0.0,0.0,0.0,0.0,0.0,0.0,0.0,0.0,0.0,0.0,0.0,0.0,0.0,0.0,0.0,0.4492,0.3431,0.0812,-0.3373,-0.185,-0.2011,0.0,0.0,0.0,0.0,0.0,0.0,0.0,0.0,0.0,0.0,0.0,0.0,0.0,0.0,0.0,0.0,0.0,0.0,0.0,0.0,0.0,0.0,0.0,0.0,0.0,0.0,0.0,0.0,0.0,0.0,0.0,0.0,0.0,0.0,0.0,0.0,0.0,0.0,0.0,0.0,0.0,0.0,0.0,0.0,0.0,0.0,0.0,0.0,0.0,0.0,0.0,0.0,0.0,0.0,0.0,0.0,0.0,0.0,0.0,0.0,0.0,0.0,0.0,0.0,0.0,0.0,0.0,0.0,0.0,0.0,0.0,0.0,0.0,0.0,0.0,0.0,0.0,0.0,0.0,0.0,0.0,0.0,0.0,0.0,0.0,0.0,0.0,0.0,0.0,0.0,0.0,0.0,0.0,0.0,0.0,0.0,0.0,0.0,0.0,0.0,0.0,0.0,0.0,0.0,0.0,0.0,0.0,0.0,0.0,0.4946,0.3998,0.1545,-0.2632,-0.1429,-0.1548,-0.3253,0.0,0.0,0.0,0.0,0.0,0.0,0.0,0.0,0.0,0.0,0.0,0.0,0.0,0.0,0.0,0.0,0.0,0.0,0.0,0.0,0.0,0.0,0.0,0.0,0.0,0.0,0.0,0.0,0.0,0.0,0.0,0.0,0.0,0.0,0.0,0.0,0.0,0.0,0.0,0.0,0.0,0.0,0.0,0.0,0.0,0.0,0.0,0.0,0.0,0.0,0.0,0.0,0.0,0.0,0.0,0.0,0.0,0.0,0.0,0.0,0.0,0.0,0.0,0.0,0.0,0.0,0.0,0.0,0.0,0.0,0.0,0.0,0.0,0.0,0.0,0.0,0.0,0.0,0.0,0.0,0.0,0.0,0.0,0.0,0.0,0.0,0.0,0.0,0.0,0.0,0.0,0.0,0.0,0.0,0.0,0.0,0.0,0.0,0.0,0.0,0.0,0.0,0.0,0.0,0.0,0.0,0.0,0.0,0.5541,0.4165,0.2219,-0.0354,-0.0406,-0.0571,0.0,0.0,0.0,0.0,0.0,0.0,0.0,0.0,0.0,0.0,0.0,0.0,0.0,0.0,0.0,0.0,0.0,0.0,0.0,0.0,0.0,0.0,0.0,0.0,0.0,0.0,0.0,0.0,0.0,0.0,0.0,0.0,0.0,0.0,0.0,0.0,0.0,0.0,0.0,0.0,0.0,0.0,0.0,0.0,0.0,0.0,0.0,0.0,0.0,0.0,0.0,0.0,0.0,0.0,0.0,0.0,0.0,0.0,0.0,0.0,0.0,0.0,0.0,0.0,0.0,0.0,0.0,0.0,0.0,0.0,0.0,0.0,0.0,0.0,0.0,0.0,0.0,0.0,0.0,0.0,0.0,0.0,0.0,0.0,0.0,0.0,0.0,0.0,0.0,0.0,0.0,0.0,0.0,0.0,0.0,0.0,0.0,0.0,0.0,0.0,0.0,0.0,0.0,0.0,0.0,0.0,0.0,0.0,0.0,0.5474,0.5182,0.348,0.0,-0.0351,-0.0663,0.0,0.0,0.0,0.0,0.0,0.0,0.0,0.0,0.0,0.0,0.0,0.0,0.0,0.0,0.0,0.0,0.0,0.0,0.0,0.0,0.0,0.0,0.0,0.0,0.0,0.0,0.0,0.0,0.0,0.0,0.0,0.0,0.0,0.0,0.0,0.0,0.0,0.0,0.0,0.0,0.0,0.0,0.0,0.0,0.0,0.0,0.0,0.0,0.0,0.0,0.0,0.0,0.0,0.0,0.0,0.0,0.0,0.0,0.0,0.0,0.0,0.0,0.0,0.0,0.0,0.0,0.0,0.0,0.0,0.0,0.0,0.0,0.0,0.0,0.0,0.0,0.0,0.0,0.0,0.0,0.0,0.0,0.0,0.0,0.0,0.0,0.0,0.0,0.0,0.0,0.0,0.0,0.0,0.0,0.0,0.0,0.0,0.0,0.0,0.0,0.0,0.0,0.0,0.0,0.0,0.0,0.0,0.0,0.9092,0.7089,0.6348,0.4595,0.1533,0.0359,-0.0339,0.0,0.0,0.0,0.0,0.0,0.0,0.0,0.0,0.0,0.0,0.0,0.0,0.0,0.0,0.0,0.0,0.0,0.0,0.0,0.0,0.0,0.0,0.0,0.0,0.0,0.0,0.0,0.0,0.0,0.0,0.0,0.0,0.0,0.0,0.0,0.0,0.0,0.0,0.0,0.0,0.0,0.0,0.0,0.0,0.0,0.0,0.0,0.0,0.0,0.0,0.0,0.0,0.0,0.0,0.0,0.0,0.0,0.0,0.0,0.0,0.0,0.0,0.0,0.0,0.0,0.0,0.0,0.0,0.0,0.0,0.0,0.0,0.0,0.0,0.0,0.0,0.0,0.0,0.0,0.0,0.0,0.0,0.0,0.0,0.0,0.0,0.0,0.0,0.0,0.0,0.0,0.0,0.0,0.0,0.0,0.0,0.0,0.0,0.0,0.0,0.0,0.0,0.0,0.0,0.0,0.0,0.0,0.0,1.0034,0.9324,0.743,0.5474,0.3548,0.13,0.0068,0.0,0.0,0.0,0.0,0.0,0.0,0.0,0.0,0.0,0.0,0.0,0.0,0.0,0.0,0.0,0.0,0.0,0.0,0.0,0.0,0.0,0.0,0.0,0.0,0.0,0.0,0.0,0.0,0.0,0.0,0.0,0.0,0.0,0.0,0.0,0.0,0.0,0.0,0.0,0.0,0.0,0.0,0.0,0.0,0.0,0.0,0.0,0.0,0.0,0.0,0.0,0.0,0.0,0.0,0.0,0.0,0.0,0.0,0.0,0.0,0.0,0.0,0.0,0.0,0.0,0.0,0.0,0.0,0.0,0.0,0.0,0.0,0.0,0.0,0.0,0.0,0.0,0.0,0.0,0.0,0.0,0.0,0.0,0.0,0.0,0.0,0.0,0.0,0.0,0.0,0.0,0.0,0.0,0.0,0.0,0.0,0.0,0.0,0.0,0.0,0.0,0.0,0.0,0.0,0.0,0.0,0.0,0.0,1.0179,0.8895,0.7256,0.5598,0.387,0.1624,0.0335,0.0,0.0,0.0,0.0,0.0,0.0,0.0,0.0,0.0,0.0,0.0,0.0,0.0,0.0,0.0,0.0,0.0,0.0,0.0,0.0,0.0,0.0,0.0,0.0,0.0,0.0,0.0,0.0,0.0,0.0,0.0,0.0,0.0,0.0,0.0,0.0,0.0,0.0,0.0,0.0,0.0,0.0,0.0,0.0,0.0,0.0,0.0,0.0,0.0971,0.0,0.0,0.0,0.0,0.0,0.0,0.0,0.0,0.0,0.0,0.0,0.0,0.0,0.0,0.0,0.0,0.0,0.0,0.0,0.0,0.0,0.0,0.0,0.0,0.0,0.0,0.0,0.0,0.0,0.0,0.0,0.0,0.0,0.0,0.0,0.0,0.0,0.0,0.0,0.0,0.0,0.0,0.0,0.0,0.0,0.0,0.0,0.0,0.0,0.0,0.0,0.0,0.0,0.0,0.0,0.0,0.0,0.0,0.0,1.0853,1.0213,0.8666,0.6888,0.4993,0.3132,0.1794,0.0,0.0,0.0,0.0,0.0,0.0,0.0,0.0,0.0,0.0,0.0,0.0,0.0,0.0,0.0,0.0,0.0,0.0,0.0,0.0,0.0,0.0,0.0,0.0,0.0,0.0,0.0,0.0,0.0,0.0,0.0,0.0,0.0,0.0,0.0,0.0,0.0,0.0,0.0,0.0,0.0,0.0,0.0,0.0,0.0,0.0,0.0,0.0,0.0,0.0,0.0,0.0,0.0,0.0,0.0,0.0,0.0,0.0,0.0,0.0,0.0,0.0,0.0,0.0,0.0,0.0,0.0,0.0,0.0,0.0,0.0,0.0,0.0,0.0,0.0,0.0,0.0,0.0,0.0,0.0,0.0,0.0,0.0,0.0,0.0,0.0,0.0,0.0,0.0,0.0,0.0,0.0,0.0,0.0,0.0,0.0,0.0,0.0,0.0,0.0,0.0,0.0,0.0,0.0,0.0,0.0,0.0,1.1302,1.152,1.1933,1.0256,0.8456,0.6586,0.4947,0.3831,0.3313,0.0,0.0,0.0,0.0,0.0,0.0,0.0,0.0,0.0,0.0,0.0,0.0,0.0,0.0,0.0,0.0,0.0,0.0,0.0,0.0,0.0,0.0,0.0,0.0,0.0,0.0,0.0,0.0,0.0,0.0,0.0,0.0,0.0,0.0,0.0,0.0,0.0,0.0,1.556,1.5227,0.0,0.0,0.0,0.0,0.0,0.0,0.0,0.0,0.0266,0.0,0.0,0.0,0.0,0.0,0.0,0.0,0.0,0.0,0.0,0.0,0.0,0.0,0.0,0.0,0.0,0.0,0.0,0.0,0.0,0.0,0.0,0.0,0.0,0.0,0.0,0.0,0.0,0.0,0.0,0.0,0.0,0.0,0.0,0.0,0.0,0.0,0.0,0.0,0.0,0.0,0.0,0.0,0.0,0.0,0.0,0.0,0.0,0.0,0.0,0.0,0.0,0.0,0.0,0.0,0.0,1.1731,1.1376,1.1429,1.1919,1.0031,0.8826,0.8419,0.6462,0.5695,0.625,0.0,0.0,0.0,0.0,0.0,0.0,0.0,0.0,0.0,0.0,0.0,0.0,0.0,0.0,0.0,0.0,0.0,0.0,0.0,0.0,0.0,0.0,0.0,0.0,0.0,0.0,0.0,0.0,0.0,0.0,0.0,0.0,0.0,0.0,0.0,0.0,0.0,0.0,0.0,1.725,1.5909,0.0,0.0,0.0,0.0,0.0,0.0,0.0,0.0,0.1693,0.0,0.0,0.0,0.0,0.0,0.0,0.0,0.0,0.0,0.0,0.0,0.0,0.0,0.0,0.0,0.0,0.0,0.0,0.0,0.0,0.0,0.0,0.0,0.0,0.0,0.0,0.0,0.0,0.0,0.0,0.0,0.0,0.0,0.0,0.0,0.0,0.0,0.0,0.0,0.0,0.0,0.0,0.0,0.0,0.0,0.0,0.0,0.0,0.0,0.0,0.0,0.0,0.0,0.0,0.0,1.1298,1.1311,1.1437,1.158,1.0725,0.9707,0.8607,0.7525,0.7022,0.0,0.0,0.0,0.0,0.0,0.0,0.0,0.0,0.0,0.0,0.0,0.0,0.0,0.0,0.0,0.0,0.0,0.0,0.0,0.0,0.0,0.0,0.0,0.0,0.0,0.0,0.0,0.0,0.0,0.0,0.0,0.0,0.0,0.0,0.0,0.0,0.0,0.0,0.0,0.0,1.7315,1.5953,1.2767,0.0,0.0,0.0,0.0,0.0,0.0,0.3557,0.3348,0.0,0.0,0.0,0.0,0.0,0.0,0.0,0.0,0.0,0.0,0.0,0.0,0.0,0.0,0.0,0.0,0.0,0.0,0.0,0.0,0.0,0.0,0.0,0.0,0.0,0.0,0.0,0.0,0.0,0.0,0.0,0.0,0.0,0.0,0.0,0.0,0.0,0.0,0.0,0.0,0.0,0.0,0.0,0.0,0.0,0.0,0.0,0.0,0.0,0.0,0.0,0.0,0.0,0.0,0.0,1.1168,1.1732,1.1938,1.1696,1.1744,1.0942,0.9289,0.8836,0.8225,0.0,0.0,0.0,0.0,0.0,0.0,0.0,0.0,0.0,0.0,0.0,0.0,0.0,0.0,0.0,0.0,0.0,0.0,0.0,0.0,0.0,0.0,0.0,0.0,0.0,0.0,0.0,0.0,0.0,0.0,0.0,0.0,0.0,0.0,0.0,0.0,0.0,0.0,0.0,0.0,0.0,1.6074,1.3928,1.2368,0.0,0.0,0.0,0.0,0.5547,0.5508,0.0,0.0,0.0,0.0,0.0,0.0,0.0,0.0,0.0,0.0,0.0,0.0,0.0,0.0,0.0,0.0,0.0,0.0,0.0,0.0,0.0,0.0,0.0,0.0,0.0,0.0,0.0,0.0,0.0,0.0,0.0,0.0,0.0,0.0,0.0,0.0,0.0,0.0,0.0,0.0,0.0,0.0,0.0,0.0,0.0,0.0,0.0,0.0,0.0,0.0,0.0,0.0,0.0,0.0,0.0,0.0,1.2474,1.3503,1.379,1.3269,1.2798,1.2506,1.2427,1.0863,0.9677,0.0,0.0,0.0,0.0,0.0,0.0,0.0,0.0,0.0,0.0,0.0,0.0,0.0,0.0,0.0,0.0,0.0,0.0,0.0,0.0,0.0,0.0,0.0,0.0,0.0,0.0,0.0,0.0,0.0,0.0,0.0,0.0,0.0,0.0,0.0,0.0,0.0,0.0,0.0,0.0,0.0,1.7727,1.4166,1.3738,1.3007,0.0,0.0,0.9773,0.7507,0.7891,0.0,0.0,0.0,0.0,0.0,0.0,0.0,0.0,0.0,0.0,0.0,0.0,0.0,0.0,0.0,0.0,0.0,0.0,0.0,0.0,0.0,0.0,0.0,0.0,0.0,0.0,0.0,0.0,0.0,0.0,0.0,0.0,0.0,0.0,0.0,0.0,0.0,0.0,0.0,0.0,0.0,0.0,0.0,0.0,0.0,0.0,0.0,0.0,0.0,0.0,0.0,0.0,0.0,0.0,0.0,1.4214,1.3055,1.3645,1.3832,1.3576,1.3292,1.313,1.3,1.1612,1.0638,0.0,0.0,0.0,0.0,0.0,0.0,0.0,0.0,0.0,0.0,0.0,0.0,0.0,0.0,0.0,0.0,0.0,0.0,0.0,0.0,0.0,0.0,0.0,0.0,0.0,0.0,0.0,0.0,0.0,0.0,0.0,0.0,0.0,0.0,0.0,0.0,0.0,0.0,0.0,0.0,0.0,0.0,1.4544,1.4844,0.0,0.0,0.0,1.1547,0.9839,0.0,0.0,0.0,0.0,0.0,0.0,0.0,0.0,0.0,0.0,0.0,0.0,0.0,0.0,0.0,0.0,0.0,0.0,0.0,0.0,0.0,0.0,0.0,0.0,0.0,0.0,0.0,0.0,0.0,0.0,0.0,0.0,0.0,0.0,0.0,0.0,0.0,0.0,0.0,0.0,0.0,0.0,0.0,0.0,0.0,0.0,0.0,0.0,0.0,0.0,0.0,0.0,0.0,0.0,0.0,0.0,0.0,1.3689,1.4176,1.4209,1.3814,1.3738,1.3634,1.343,1.2284,0.0,0.0,0.0,0.0,0.0,0.0,0.0,0.0,0.0,0.0,0.0,0.0,0.0,0.0,0.0,0.0,0.0,0.0,0.0,0.0,0.0,0.0,0.0,0.0,0.0,0.0,0.0,1.3711,0.0,0.0,0.0,0.0,0.0,0.0,0.0,0.0,0.0,0.0,0.0,0.0,0.0,0.0,1.7818,1.5585,1.6298,1.6541,0.0,0.0,1.338,1.1975,1.1792,1.1013,0.0,0.0,0.0,0.0,0.0,0.0,0.0,0.0,0.0,0.0,0.0,0.0,0.0,0.0,0.0,0.0,0.0,0.0,0.0,0.0,0.0,0.0,0.0,0.0,0.0,0.0,0.0,0.0,0.0,0.0,0.0,0.0,0.0,0.0,0.0,0.0,0.0,0.0,0.0,0.0,0.0,0.0,0.0,0.0,0.0,0.0,0.0,0.0,0.0,0.0,0.0,0.0,0.0,0.0,0.0,1.4684,1.5994,1.5879,1.4424,1.4346,1.4447,1.462,1.3265,1.2431,0.0,0.0,0.0,0.0,0.0,0.0,0.0,0.0,0.0,0.0,0.0,0.0,0.0,0.0,0.0,0.0,0.0,0.0,0.0,0.0,0.0,0.0,0.0,0.0,0.0,0.0,0.0,0.0,0.0,0.0,0.0,0.0,0.0,0.0,0.0,0.0,0.0,0.0,0.0,0.0,0.0,1.8661,1.7699,1.8305,1.8307,0.0,0.0,1.5535,1.3689,1.3994,1.377,1.1724,0.0,0.0,0.0,0.0,0.0,0.0,0.0,0.0,0.0,0.0,0.0,0.0,0.0,0.0,0.0,0.0,0.0,0.0,0.0,0.0,0.0,0.0,0.0,0.0,0.0,0.0,0.0,0.0,0.0,0.0,0.0,0.0,0.0,0.0,0.0,0.0,0.0,0.0,0.0,0.0,0.0,0.0,0.0,0.0,0.0,0.0,0.0,0.0,0.0,0.0,0.0,0.0,0.0,1.6196,1.5774,1.6324,1.6348,1.5731,1.5318,1.5279,1.5586,1.4467,1.3714,0.0,0.0,0.0,0.0,0.0,0.0,0.0,0.0,0.0,0.0,0.0,0.0,0.0,0.0,0.0,0.0,0.0,0.0,0.0,0.0,0.0,0.0,0.0,0.0,0.0,0.0,0.0,0.0,1.6288,1.6801,1.7885,0.0,0.0,0.0,0.0,0.0,0.0,0.0,0.0,0.0,0.0,2.0127,1.8742,1.9041,0.0,0.0,1.6049,1.4983,1.4503,1.4104,1.3693,1.3179,1.3125,0.0,0.0,0.0,0.0,0.0,0.0,0.0,0.0,0.0,0.0,0.0,0.0,0.0,0.0,0.0,0.0,0.0,0.0,0.0,0.0,0.0,0.0,0.0,0.0,0.0,0.0,0.0,0.0,0.0,0.0,0.0,0.0,0.0,0.0,0.0,0.0,0.0,0.0,0.0,0.0,0.0,0.0,0.0,0.0,0.0,0.0,0.0,0.0,0.0,0.0,0.0,0.0,1.6367,1.6235,1.6465,1.6548,1.6364,1.5956,1.5849,1.6106,1.5424,1.4917,0.0,0.0,0.0,0.0,0.0,0.0,0.0,0.0,0.0,0.0,0.0,0.0,0.0,0.0,0.0,0.0,0.0,0.0,0.0,0.0,0.0,0.0,0.0,0.0,0.0,0.0,0.0,0.0,1.7464,1.7903,1.8607,0.0,0.0,0.0,0.0,0.0,0.0,0.0,0.0,0.0,0.0,2.095,1.9807,2.0115,1.9927,1.8395,1.6936,1.5923,1.5719,1.473,1.4103,1.4251,0.0,0.0,0.0,0.0,0.0,0.0,0.0,0.0,0.0,0.0,0.0,0.0,0.0,0.0,0.0,0.0,0.0,0.0,0.0,0.0,0.0,0.0,0.0,0.0,0.0,0.0,0.0,0.0,0.0,0.0,1.6939,0.0,0.0,0.0,0.0,0.0,0.0,0.0,0.0,0.0,0.0,0.0,0.0,0.0,0.0,0.0,0.0,0.0,0.0,0.0,0.0,0.0,0.0,1.6221,1.595,1.6543,1.6613,1.6063,1.599,1.6088,1.6211,1.6172,1.6032,1.5672,0.0,0.0,0.0,0.0,0.0,0.0,0.0,0.0,0.0,0.0,0.0,0.0,0.0,0.0,0.0,0.0,0.0,0.0,0.0,0.0,0.0,0.0,0.0,0.0,0.0,0.0,1.8279,1.7981,1.768,0.0,0.0,0.0,0.0,0.0,0.0,0.0,0.0,0.0,0.0,2.02,2.0757,2.1059,2.165,2.1422,1.9826,1.9496,1.8917,1.7457,1.633,1.5504,0.0,0.0,0.0,0.0,0.0,0.0,0.0,0.0,0.0,0.0,0.0,0.0,0.0,0.0,0.0,0.0,0.0,0.0,0.0,0.0,0.0,0.0,0.0,0.0,0.0,0.0,0.0,1.8753,1.8362,0.0,0.0,0.0,0.0,0.0,0.0,0.0,0.0,0.0,0.0,0.0,2.1817,2.1904,0.0,0.0,0.0,0.0,0.0,0.0,0.0,0.0,0.0,0.0,0.0,0.0,1.6277,1.6265,1.6603,1.6721,1.6599,1.6395,1.6387,1.6668,1.6675,1.6523,1.616,0.0,0.0,0.0,0.0,0.0,0.0,0.0,0.0,0.0,0.0,0.0,0.0,0.0,0.0,0.0,0.0,0.0,0.0,0.0,0.0,0.0,0.0,0.0,0.0,0.0,1.7562,0.0,0.0,0.0,0.0,0.0,0.0,0.0,0.0,0.0,0.0,0.0,1.9662,2.0818,2.1929,2.2551,2.2436,2.2568,2.2261,0.0,0.0,0.0,0.0,0.0,0.0,0.0,0.0,0.0,0.0,0.0,0.0,0.0,0.0,1.4758,1.2845,1.1437,1.0297,0.9498,0.0,0.0,0.0,0.0,0.0,0.0,0.0,0.0,0.0,0.0,0.0,0.0,0.0,0.0,0.0,0.0,1.9483,0.0,0.0,0.0,0.0,0.0,0.0,0.0,0.0,2.2067,2.2741,2.3071,2.3157,2.2823,0.0,2.2014,2.066,0.0,0.0,0.0,0.0,0.0,0.0,0.0,0.0,1.6415,1.6396,1.681,1.7093,1.7149,1.6859,1.6844,1.7011,1.7266,1.7346,1.7235,1.5802,1.4909,0.0,0.0,0.0,0.0,0.0,0.0,0.0,0.0,0.0,0.0,0.0,0.0,0.0,0.0,0.0,0.0,0.0,0.0,0.0,0.0,0.0,0.0,0.0,1.775,0.0,0.0,0.0,0.0,0.0,0.0,0.0,0.0,0.0,2.0598,2.0666,2.1113,2.2174,2.3028,2.3434,2.3108,0.0,0.0,0.0,0.0,0.0,0.0,0.0,1.9001,1.9358,1.9248,1.8968,1.8666,1.8949,1.9119,1.8618,0.0,0.0,1.5583,1.387,1.2528,1.1442,1.0243,0.9295,0.892,0.8434,0.7898,0.0,0.0,0.0,0.0,0.0,0.0,0.0,0.0,2.173,2.2057,0.0,2.1399,0.0,0.0,0.0,0.0,0.0,0.0,0.0,0.0,2.405,2.4673,2.4493,2.4887,2.4442,2.3212,2.3382,2.2599,2.0853,1.9066,0.0,0.0,0.0,0.0,0.0,0.0,1.6643,1.6329,1.7244,1.7699,1.7645,1.7412,1.7326,1.7358,1.7971,1.8444,1.8806,1.792,1.6934,1.5777,1.5043,0.0,0.0,0.0,0.0,0.0,0.0,0.0,0.0,0.0,0.0,0.0,0.0,0.0,0.0,0.0,0.0,0.0,0.0,0.0,0.0,1.9128,0.0,0.0,0.0,0.0,0.0,0.0,0.0,0.0,0.0,0.0,2.2026,2.2333,2.2835,2.3524,0.0,0.0,0.0,0.0,2.2988,2.3167,2.3135,2.3258,2.3526,2.2621,2.173,2.1271,0.0,0.0,2.0043,2.1086,2.1642,2.0984,2.1051,2.0464,1.7347,1.5966,1.4968,1.4056,1.299,1.2158,1.1215,1.083,1.0404,2.4826,0.0,0.0,0.0,0.0,2.301,2.3578,2.3918,2.4364,2.405,2.3235,2.2649,0.0,0.0,0.0,0.0,0.0,0.0,2.2656,2.2736,2.3717,2.4247,2.4487,2.4353,2.4061,2.3684,2.4036,2.3816,2.2998,2.1861,2.028,1.836,0.0,0.0,0.0,0.0,1.6523,1.6586,1.7391,1.7682,1.737,1.7502,1.7846,1.8334,1.8555,1.8999,1.9704,1.917,1.859,1.801,1.6549,0.0,0.0,0.0,0.0,0.0,0.0,0.0,0.0,0.0,0.0,0.0,0.0,0.0,0.0,0.0,0.0,0.0,0.0,0.0,1.972,1.9528,1.9628,0.0,0.0,0.0,0.0,0.0,0.0,0.0,0.0,0.0,2.4202,2.3893,2.3936,0.0,0.0,2.5003,2.4602,2.4812,2.4908,2.4547,0.0,0.0,0.0,2.273,2.2417,2.2309,2.1771,2.1136,2.0424,2.0802,2.1076,2.0623,2.0806,2.0542,1.9145,1.7777,1.6508,1.5252,1.4294,1.3614,1.3268,1.2335,1.1349,2.7713,2.5947,2.4355,2.3645,2.371,2.4678,2.5262,2.553,2.5894,2.5711,2.5009,2.4248,2.3198,2.2055,2.2031,0.0,0.0,0.0,2.341,2.3444,2.3727,2.4022,2.424,2.3815,2.3701,2.3877,2.396,2.4011,2.4094,2.3458,2.221,2.0399,0.0,0.0,1.7499,1.7714,1.7863,1.7853,1.8056,1.8081,1.7822,1.7883,1.8417,1.9389,1.9794,2.0456,2.1475,2.0632,1.99,1.9448,1.7957,1.6812,0.0,0.0,0.0,0.0,0.0,0.0,0.0,0.0,0.0,0.0,0.0,1.8271,1.7651,0.0,0.0,0.0,1.9636,2.0361,2.0422,2.0522,0.0,0.0,0.0,0.0,0.0,0.0,0.0,2.3732,2.4165,2.4673,2.5127,2.4816,2.4774,2.5388,2.5533,2.555,2.5249,0.0,2.5282,2.5179,2.5116,2.4832,2.4164,2.4029,2.3857,2.3392,2.2652,2.1859,2.0966,2.0908,2.0865,2.0414,2.0361,2.0353,1.9891,1.8817,1.7625,1.6277,1.5223,1.4518,1.4376,1.3126,1.204,3.0107,2.9804,2.6754,2.5263,2.4974,2.6228,2.6708,2.662,2.663,2.6864,2.7092,2.5844,2.5199,2.5086,2.4312,0.0,2.4507,2.4507,2.4456,2.4373,2.4012,2.3846,2.3743,2.3339,2.3381,2.3857,2.3422,2.367,2.4394,2.4105,2.3703,2.3163,2.1499,2.0305,1.9647,1.9913,1.9996,1.9743,1.9142,1.8819,1.8776,1.8561,1.9066,2.041,2.125,2.2279,2.3501,2.2035,2.0845,2.0177,1.9136,1.7957,1.6597,0.0,0.0,0.0,0.0,0.0,0.0,0.0,0.0,0.0,0.0,0.0,0.0,0.0,0.0,0.0,2.1103,0.0,2.1431,2.1902,0.0,0.0,0.0,2.4192,2.4391,2.5306,2.5589,2.4775,0.0,0.0,2.5197,0.0,2.5404,2.5854,2.5495,2.5199,2.5285,2.49,2.4704,2.5166,2.521,2.5323,2.5443,2.5519,2.5148,2.4231,2.3438,2.2447,2.1484,2.1249,2.0866,2.0095,1.9894,1.9885,1.9885,1.9169,1.8355,1.7291,1.6029,1.5033,1.465,1.3598,1.2603,3.0291,2.9726,2.858,2.8038,2.7914,2.7938,2.7656,2.7154,2.7143,2.6812,2.6221,2.5865,2.5347,2.4652,2.4435,2.4404,2.4507,2.4507,2.4167,2.3525,2.3401,2.3163,2.2822,2.2718,2.2904,2.335,2.3598,2.3836,2.4043,2.4271,2.4298,2.4122,2.3738,2.2454,2.0412,2.0159,2.0012,1.9961,1.994,1.98,1.9621,1.9494,1.9911,2.0815,2.1076,2.1607,2.2433,2.1467,2.0807,2.0587,1.9221,1.8285,1.7993,1.7508,0.0,0.0,0.0,0.0,0.0,0.0,0.0,0.0,0.0,1.9478,1.8789,0.0,2.109,0.0,2.1219,2.2195,2.329,2.3123,0.0,0.0,2.5512,2.563,2.6329,2.6659,2.67,2.6494,2.5872,2.5538,2.5656,2.5678,2.571,2.5786,2.5439,2.5313,2.5647,2.5347,2.5065,2.5202,2.5213,2.5096,2.4869,2.4817,2.4604,2.3893,2.357,2.2966,2.1671,2.1142,2.0725,2.0155,1.9721,1.955,1.9519,1.9336,1.8894,1.8115,1.6877,1.584,1.5512,1.4329,1.3203,3.0292,2.9924,2.9657,2.9334,2.8953,2.8208,2.7719,2.7394,2.7128,2.6687,2.6169,2.5464,2.4992,2.4647,2.4375,2.4353,2.4497,2.4507,2.4125,2.3494,2.3287,2.306,2.2791,2.2594,2.2842,2.3494,2.3753,2.3981,2.4178,2.4383,2.4507,2.4507,2.4507,2.3701,2.2119,2.1648,2.1434,2.1434,2.0752,2.0138,1.9688,2.015,2.0664,2.1084,2.1452,2.1879,2.2254,2.1412,2.0837,2.0595,1.9772,1.9148,1.8782,1.8608,1.8087,0.0,0.0,0.0,0.0,0.0,0.0,0.0,0.0,0.0,0.0,0.0,2.2014,0.0,2.3025,2.3881,2.5462,2.5315,2.5698,2.7111,2.729,2.7331,2.7424,2.7747,2.7827,2.7464,2.7005,2.6666,2.6707,2.6607,2.6607,2.6678,2.6312,2.613,2.6249,2.5569,2.4999,2.5378,2.5129,2.4724,2.4322,2.424,2.4038,2.3556,2.3587,2.3264,2.1887,2.1553,2.1257,2.0386,2.0159,1.9911,1.9414,1.9253,1.9007,1.8198,1.7178,1.6325,1.5792,1.4597,1.3461,3.0161,3.0161,3.0095,2.9688,2.8967,2.7778,2.7405,2.7516,2.6868,2.6515,2.6315,2.4946,2.4546,2.4797,2.4252,2.4209,2.4497,2.4507,2.4228,2.3784,2.3432,2.3246,2.3174,2.2832,2.3122,2.3981,2.4002,2.4167,2.4497,2.4507,2.4507,2.4497,2.4445,2.426,2.3919,2.336,2.311,2.2998,2.145,2.0294,1.9659,2.0759,2.1302,2.1234,2.1913,2.2263,2.2128,2.1321,2.0669,2.0276,2.0315,2.0031,1.9293,1.9685,1.9792,0.0,2.0266,0.0,0.0,0.0,0.0,0.0,0.0,0.0,0.0,2.1778,2.3128,2.5211,2.5271,2.5793,2.7322,2.7515,2.7666,2.8084,2.8703,2.8846,2.8243,2.8821,2.9003,2.8203,2.8044,2.7964,2.7964,2.7815,2.7775,2.7884,2.7597,2.7452,2.7406,2.6082,2.5232,2.5746,2.501,2.4291,2.3898,2.3826,2.366,2.335,2.3557,2.335,2.2073,2.2158,2.1967,2.0787,2.0695,2.0487,1.929,1.9016,1.8674,1.7728,1.7049,1.6484,1.5807,1.4693,1.3591,3.0063,2.9845,2.9467,2.9096,2.8684,2.7723,2.7317,2.7331,2.6819,2.6098,2.5198,2.5052,2.4861,2.4615,2.466,2.4617,2.4507,2.4507,2.4105,2.3339,2.3619,2.3546,2.3215,2.3525,2.3898,2.4352,2.4373,2.4414,2.4507,2.4507,2.4507,2.4487,2.4188,2.3971,2.3836,0.0,0.0,0.0,2.1737,2.1482,2.1349,2.1931,2.1896,2.1169,2.1261,0.0,2.0342,1.9793,1.945,1.9367,1.9849,0.0,0.0,0.0,0.0,0.0,0.0,0.0,0.0,0.0,0.0,0.0,2.2995,2.2355,2.1801,2.2943,2.3879,2.4359,2.539,2.6411,2.7238,2.7435,2.8148,2.9665,2.9433,2.9277,2.9793,3.0063,3.0075,2.9947,2.9277,2.8873,2.8861,2.8806,2.8794,2.8861,2.8755,2.903,2.9614,2.7844,2.6442,2.588,2.4838,2.3909,2.3381,2.3359,2.3318,2.3255,2.3398,2.3213,2.2531,2.247,2.2296,2.1159,2.0983,2.0524,1.8979,1.859,1.8237,1.6782,1.6615,1.6598,1.6229,1.5019,1.3835,2.9611,0.0,2.9048,2.8892,0.0,2.7985,2.7508,2.725,2.6555,2.5881,2.5253,2.5338,2.5264,2.5052,2.5041,2.4914,2.47,2.4711,2.4294,2.3536,2.3525,2.3536,2.3536,2.3536,2.3888,2.4487,2.4507,2.4507,2.4507,2.4507,2.4507,2.4487,2.4095,2.3805,2.3515,2.2615,2.2035,2.1807,2.1807,2.1807,2.1818,2.2263,2.2198,2.1589,0.0,0.0,0.0,0.0,0.0,0.0,0.0,0.0,0.0,0.0,0.0,2.2248,2.2574,2.2973,2.3538,2.3442,2.3553,2.4034,2.3871,2.3628,2.3397,2.4293,2.5135,2.5768,2.6504,2.7261,2.8049,2.8176,2.8674,2.9696,2.9448,2.9463,3.0132,3.0258,3.0374,3.0594,3.0024,2.9682,2.9999,2.9404,2.9378,2.9859,2.9341,2.9176,2.9718,2.8264,2.6571,2.5748,2.4767,2.392,2.3509,2.315,2.2868,2.2673,2.2895,2.2833,2.2271,2.2499,2.2483,2.1669,2.1618,2.1224,1.9854,1.907,1.8254,1.715,1.6475,1.6182,1.5975,1.5036,1.3976,2.9241,2.8803,2.8803,2.8803,2.876,2.8156,2.7544,2.6998,0.0,0.0,0.0,2.5644,2.5601,2.5517,2.5241,2.5041,2.4819,2.4703,2.4294,2.3711,2.3359,2.3391,2.3764,2.3484,2.3732,2.4476,2.4507,2.4507,2.4497,2.4457,2.451,2.452,2.4023,2.3483,2.3005,2.2296,2.1921,2.1883,2.1845,2.1807,2.1818,2.2208,2.2265,2.1985,2.1523,2.1385,2.1681,2.0831,2.0709,2.1388,2.1376,2.1537,2.1914,2.2261,2.2621,2.303,2.3758,2.4245,2.4397,2.4355,2.4441,2.4633,2.4646,2.4697,2.4805,2.5247,2.6042,2.7234,2.7332,2.7726,2.8734,2.8744,2.8853,2.9235,2.9196,2.9392,2.9983,2.9996,3.0153,3.066,3.0283,3.0113,3.0492,2.9707,2.9421,3.0246,2.9548,2.8862,2.9113,2.7911,2.6566,2.5892,2.5093,2.4287,2.3721,2.3302,2.2702,2.2144,2.2457,2.252,2.2175,2.2412,2.2545,2.198,2.2219,2.1834,2.0752,1.9706,1.863,1.7618,1.6646,1.5825,1.5508,1.486,1.4038,2.9252,2.8803,2.8803,2.8803,2.8738,2.7785,2.6911,2.6103,2.5953,2.5793,2.5612,2.577,2.5633,2.5263,2.4982,2.477,2.4522,2.3956,2.3404,0.0,2.3109,2.3215,2.3308,2.3619,2.4043,2.4476,2.4507,2.4507,2.4498,2.4325,2.4441,2.4619,2.3582,2.2744,2.2283,2.2288,2.2327,2.2289,2.1959,2.1807,2.1807,2.2012,2.1937,2.155,2.1756,2.1717,2.1397,2.139,2.1428,2.1585,2.2101,2.2659,2.3229,2.3798,2.4639,2.5652,2.5069,2.4893,2.5451,2.468,2.4571,2.5496,2.5613,2.5283,2.4556,2.5001,2.5593,2.624,2.6343,2.6853,2.801,2.7773,2.7932,2.9026,2.8839,2.8922,2.9852,2.968,2.9627,3.0127,2.9758,2.9418,2.9562,2.9366,2.9213,2.947,2.9308,2.8976,2.8396,2.7726,2.7078,2.6542,2.5776,2.4819,2.3968,2.349,2.3119,2.2461,2.2542,2.2671,2.2311,2.2677,2.2766,2.2185,2.2283,2.1929,2.08,2.0129,1.9023,1.7579,1.6788,1.6175,1.5129,1.4523,1.4084,2.9587,2.9175,2.8913,2.8803,2.8727,2.7719,2.6933,2.6289,2.6016,2.5853,2.578,2.5853,2.577,2.5547,2.5176,2.4867,2.4652,2.407,2.366,2.3351,2.3229,2.3391,2.3853,2.3771,2.4023,2.4648,2.4334,2.4178,2.4146,2.3805,2.3845,2.4052,2.3353,2.2727,2.2283,2.2365,2.2392,2.2402,2.2214,2.2138,2.2149,2.2214,2.2105,2.1737,2.1894,2.2026,2.2024,2.2107,2.2359,2.2854,2.3035,2.3485,2.4256,2.4523,2.4895,2.5574,2.5157,2.4862,2.4866,2.4713,2.4792,2.5301,2.5354,2.5188,2.4775,2.513,2.5524,2.5736,2.5775,2.6207,2.722,2.6804,2.6837,2.7771,2.7635,2.7811,2.8521,2.8817,2.9039,2.951,2.9157,2.8957,2.9248,2.8739,2.8647,2.9078,2.9074,2.8547,2.7884,2.7562,2.7268,2.6901,2.6323,2.5671,2.485,2.4493,2.3952,2.3143,2.318,2.3005,2.258,2.2702,2.2643,2.2332,2.2197,2.1918,2.1324,2.0222,1.9004,1.8026,1.6802,1.5886,1.4881,1.4296,1.3711,2.986,2.9292,2.8957,2.8738,2.8552,2.7676,2.7009,2.6551,2.6114,2.5895,2.5895,2.5895,2.5895,2.5841,2.5325,2.493,2.467,2.4072,2.3695,2.3506,2.3126,2.3413,2.4096,2.3722,2.4008,2.4703,2.4378,2.4148,2.4002,2.3605,2.3351,2.33,2.3271,2.2986,2.2488,2.2515,2.2515,2.2515,2.2553,2.2467,2.2392,2.244,2.2391,2.2244,2.2303,2.2521,2.2847,2.293,2.3233,2.3891,2.3789,2.4107,2.4909,2.4871,2.4879,2.5132,2.5057,2.4743,2.4217,2.4678,2.5005,2.5005,2.5005,2.5005,2.5031,2.5101,2.5255,2.5345,2.5268,2.5537,2.6237,2.5837,2.5707,2.636,2.6379,2.6641,2.7249,2.7732,2.8216,2.8699,2.8464,2.8373,2.8595,2.8098,2.7907,2.8556,2.8477,2.802,2.7594,2.7503,2.7369,2.7167,2.685,2.6461,2.6045,2.5615,2.4933,2.4072,2.3854,2.3537,2.3054,2.2841,2.2628,2.2435,2.202,2.1813,2.1802,2.053,1.9171,1.837,1.7216,1.5841,1.48,1.4325,1.3702,2.9674,2.8935,2.8836,2.8495,2.8045,2.7545,2.7064,2.6562,2.6114,2.5895,2.5895,2.5895,2.5895,2.5775,2.4967,2.4574,2.4458,2.334,2.2864,2.2837,2.2563,2.2743,2.3317,2.3618,2.4013,2.4563,2.485,2.4734,2.4353,2.4089,2.3577,2.2945,2.3335,2.3281,2.2757,2.2852,2.2927,2.2964,2.2964,2.2767,2.244,2.259,2.2735,2.2925,2.3222,2.3534,2.3591,2.388,2.3995,2.4083,2.4054,2.4344,2.4913,2.4962,2.5184,2.5641,2.5236,2.4743,2.4217,2.4678,2.4979,2.5005,2.4979,2.4979,2.4966,2.4514,2.4475,2.4814,2.4553,2.4758,2.5636,2.4931,2.4788,2.5746,2.5497,2.5581,2.6543,2.6824,2.7066,2.7628,2.7699,2.7641,2.7738,2.7568,2.7542,2.779,2.7732,2.7581,2.7529,2.7503,2.7503,2.7436,2.739,2.7074,2.6552,2.6346,2.5884,2.5217,2.4528,2.4084,2.3731,2.3143,2.2692,2.253,2.2049,2.1673,2.1494,2.0705,1.9675,1.8748,1.7582,1.6271,1.5054,1.4533,1.4201,2.9554,2.9208,2.8924,2.8648,2.8375,2.7643,2.7206,2.6966,2.6223,2.5895,2.5895,2.5895,2.5895,2.5841,2.4923,2.4526,2.441,2.3384,2.2889,2.2852,2.2788,2.2999,2.3474,2.3802,2.4223,2.4652,2.4783,2.4551,2.4062,2.3556,2.322,2.3123,2.3248,2.316,2.29,2.2964,2.3001,2.3001,2.3001,2.2916,2.2745,2.2555,2.2573,2.2753,2.3013,2.3203,2.3416,2.385,2.4125,2.4125,2.4125,2.4374,2.4966,2.5005,2.5097,2.5262,2.4779,2.436,2.4138,2.4334,2.4639,2.4966,2.4661,2.4596,2.494,2.4452,2.423,2.4374,2.4213,2.4435,2.5118,2.4583,2.4452,2.5132,2.5123,2.5319,2.6046,2.6465,2.6896,2.7398,2.7503,2.7503,2.7438,2.7223,2.7196,2.7333,2.7275,2.7157,2.7411,2.7503,2.7503,2.7503,2.7503,2.739,2.7087,2.704,2.6701,2.6057,2.5323,2.4743,2.411,2.317,2.2451,2.2498,2.1772,2.1398,2.1432,2.0549,1.9554,1.8754,1.7427,1.6,1.5417,1.4919,1.4525,2.9401,2.9285,2.8946,2.8716,2.853,2.7676,2.7239,2.6988,2.6245,2.5895,2.5895,2.5895,2.5819,2.559,2.4847,2.4526,2.4355,2.346,2.3001,2.3001,2.3001,2.3187,2.3531,2.3996,2.4389,2.4673,2.4882,2.4671,2.4146,2.336,2.3156,2.3383,2.3166,2.3001,2.3001,2.3001,2.3001,2.3001,2.3001,2.301,2.3007,2.2634,2.2554,2.2831,2.2826,2.2969,2.3378,2.3852,2.4125,2.4125,2.4125,2.4308,2.4717,2.4769,2.4769,2.4743,2.436,2.4125,2.4125,2.4269,2.4452,2.4717,2.4583,2.4622,2.4661,2.4491,2.4253,2.4138,2.4125,2.4321,2.4596,2.436,2.4321,2.4674,2.4769,2.4922,2.5284,2.5968,2.6569,2.6968,2.7255,2.7411,2.7262,2.6831,2.6634,2.7079,2.6935,2.6902,2.7346,2.7503,2.7503,2.7503,2.7503,2.7503,2.7503,2.7423,2.7188,2.6803,2.6057,2.5333,2.4543,2.3438,2.2446,2.2533,2.1537,2.0992,2.1071,2.0304,1.937,1.8576,1.7483,1.6245,1.5762,1.5267,1.4919,2.9205,2.8858,2.8814,2.8484,2.798,2.7512,2.702,2.6628,2.6125,2.5895,2.5895,2.5895,2.5644,2.5196,2.4716,2.4526,2.4334,2.3449,2.3001,2.3001,2.3001,2.3012,2.311,2.4017,2.4497,2.4589,2.5235,2.5428,2.4992,2.412,2.3662,2.3662,2.323,2.3001,2.3001,2.3001,2.3001,2.3001,2.3075,2.3113,2.3229,2.2822,2.2911,2.3418,2.3074,2.3195,2.3913,2.4054,2.4125,2.4125,2.4125,2.4109,2.4178,2.4178,2.4191,2.4178,2.4138,2.4125,2.4178,2.4517,2.4635,2.4357,2.4936,2.5192,2.436,2.4586,2.4557,2.4135,2.4125,2.4135,2.4204,2.4178,2.4164,2.4243,2.4174,2.4213,2.4295,2.5354,2.5754,2.6119,2.685,2.7137,2.6798,2.6216,2.6216,2.6569,2.6719,2.6889,2.7379,2.7503,2.7503,2.7503,2.7503,2.7503,2.7503,2.7503,2.7469,2.7188,2.6616,2.6083,2.5264,2.44,2.3478,2.2559,2.171,2.1096,2.0829,2.0209,1.9279,1.86,1.8169,1.731,1.628,1.5903,1.5409,2.8967,2.8771,2.8418,2.8143,2.7914,2.7162,2.678,2.6551,2.6103,2.5895,2.5895,2.5895,2.5633,2.5182,2.4694,2.4312,2.3951,2.3296,2.3001,2.3001,2.3001,2.3001,2.3078,2.37,2.4192,2.4508,2.4847,2.4912,2.4705,2.4039,2.3733,2.3607,2.323,2.3001,2.3001,2.3001,2.3001,2.3075,2.3449,2.3578,2.3326,2.3302,2.3433,2.3698,2.3232,2.3331,2.4096,2.4125,2.4125,2.4125,2.4125,2.4125,2.4125,2.4125,2.4125,2.4125,2.4125,2.4125,2.4099,2.3942,2.3955,2.4096,2.4099,2.4253,2.4135,2.4308,2.4334,2.4135,2.4125,2.4125,2.4125,2.4125,2.424,2.4543,2.4334,2.4256,2.4687,2.5354,2.5955,2.6334,2.6778,2.6739,2.6203,2.5641,2.5667,2.6457,2.6373,2.6595,2.7255,2.7503,2.7503,2.7503,2.7503,2.7503,2.7503,2.7503,2.7469,2.7289,2.6913,2.6467,2.5782,2.4917,2.3994,2.282,2.189,2.1085,2.0743,2.0104,1.9231,1.8898,1.8476,1.7789,1.6689,1.6315,1.5621,2.8803,2.8727,2.8198,2.7903,2.7664,2.6922,2.6497,2.6365,2.6037,2.5819,2.5688,2.5655,2.5306,2.4738,2.4377,2.3962,2.3465,2.3143,2.3001,2.3001,2.3001,2.3001,2.3078,2.3465,2.3869,2.4235,2.4421,2.4526,2.4432,2.3934,2.3744,2.37,2.3241,2.3001,2.3001,2.3001,2.3001,2.3139,2.3731,2.3846,2.3479,2.3826,2.4097,2.4097,2.3674,2.3619,2.4083,2.4125,2.4125,2.4125,2.4125,2.4125,2.4125,2.4125,2.4125,2.4125,2.4125,2.4125,2.4073,2.3704,2.3694,2.4044,2.3955,2.3929,2.4109,2.4282,2.4295,2.4178,2.4125,2.4151,2.4308,2.423,2.4282,2.4583,2.4347,2.4256,2.4691,2.5184,2.5746,2.6203,2.636,2.6138,2.5615,2.5053,2.5288,2.6255,2.6046,2.6263,2.7203,2.7503,2.7503,2.7503,2.7503,2.7503,2.7503,2.7503,2.7503,2.7356,2.7276,2.6845,2.6299,2.5388,2.4359,2.3162,2.2085,2.1225,2.05,1.99,1.9506,1.9198,1.8865,1.8273,1.7413,1.6655,1.6,2.8781,2.8683,2.8176,2.7653,2.7261,2.6769,2.629,2.5983,2.5917,2.5666,2.5306,2.5259,2.4749,2.394,2.3842,2.3465,2.3121,2.3023,2.3001,2.3001,2.3001,2.3001,2.3034,2.3438,2.3607,2.3777,2.4246,2.4443,2.4323,2.3891,2.3711,2.3575,2.322,2.3001,2.3001,2.3001,2.3038,2.325,2.3841,2.4003,2.3745,2.4349,2.476,2.4853,2.4354,2.408,2.4164,2.4138,2.4125,2.4125,2.4125,2.4125,2.4125,2.4125,2.4109,2.4178,2.4138,2.4125,2.4164,2.4099,2.4034,2.4122,2.457,2.4534,2.4243,2.453,2.4609,2.4187,2.4138,2.4308,2.4678,2.44,2.4178,2.4122,2.4191,2.4151,2.4269,2.4674,2.524,2.5759,2.5968,2.5641,2.5092,2.4753,2.4975,2.5746,2.6007,2.6276,2.7255,2.7503,2.7503,2.7503,2.7503,2.7503,2.7503,2.7503,2.7503,2.7469,2.7443,2.7224,2.6683,2.593,2.4888,2.3676,2.2025,2.1103,2.0281,1.9736,1.9539,1.9264,1.8998,1.8687,1.7935,1.7139,1.6524,2.8265,2.8167,2.7347,2.6955,2.678,2.6332,2.6026,2.5917,2.5895,2.5611,2.527,2.5215,2.4639,2.3858,2.3684,2.3422,2.3023,2.3001,2.3001,2.3001,2.3001,2.3001,2.3034,2.3154,2.323,2.3372,2.4093,2.4115,2.3624,2.3596,2.3531,2.3252,2.3088,2.3001,2.3001,2.3038,2.3202,2.3804,2.454,2.4736,2.4448,2.5071,2.5319,2.4975,2.4413,2.4282,2.4648,2.4321,2.4125,2.4125,2.4125,2.4125,2.4125,2.4125,2.4295,2.4609,2.4308,2.4321,2.4596,2.4334,2.4125,2.4151,2.4308,2.4308,2.4151,2.4282,2.4321,2.4096,2.4125,2.4217,2.4295,2.4243,2.4256,2.4648,2.436,2.4125,2.4217,2.4949,2.5563,2.5811,2.6164,2.6125,2.5694,2.5258,2.5511,2.6164,2.6373,2.67,2.7281,2.7503,2.7503,2.7503,2.7503,2.7503,2.7503,2.7503,2.7503,2.7503,2.749,2.7477,2.7019,2.6324,2.5301,2.3931,2.223,2.1044,2.027,1.9736,1.9539,1.933,1.9131,1.8687,1.8148,1.7594,1.7001,2.7893,2.7642,2.69,2.6627,2.653,2.6114,2.5895,2.5863,2.5699,2.5349,2.4956,2.4716,2.4213,2.358,2.3422,2.3296,2.3012,2.3001,2.3001,2.3001,2.3001,2.3001,2.3001,2.3001,2.3001,2.3088,2.3635,2.3613,2.3056,2.3296,2.3296,2.3045,2.3001,2.3001,2.3001,2.3038,2.3386,2.412,2.4886,2.519,2.5194,2.573,2.5968,2.5581,2.4844,2.4766,2.5171,2.4557,2.4125,2.4125,2.4125,2.4125,2.4125,2.4125,2.4282,2.4478,2.436,2.4282,2.457,2.4295,2.4125,2.4125,2.4125,2.4125,2.4125,2.4125,2.4125,2.4125,2.4125,2.4125,2.4125,2.4125,2.4295,2.4612,2.4321,2.4125,2.4256,2.4922,2.5419,2.5576,2.5968,2.6099,2.5942,2.5793,2.6059,2.6562,2.6706,2.6902,2.7307,2.749,2.7503,2.7503,2.7503,2.7503,2.7503,2.7503,2.7503,2.7503,2.7503,2.749,2.7287,2.6479,2.553,2.3829,2.2176,2.1308,2.0528,1.99,1.9539,1.9374,1.9231,1.8921,1.8519,1.8104,1.755,2.7674,2.7239,2.678,2.6551,2.6453,2.6081,2.5895,2.583,2.548,2.5022,2.4519,2.4159,2.358,2.3121,2.3088,2.3045,2.3001,2.3001,2.3001,2.3001,2.3001,2.3001,2.3001,2.3001,2.3001,2.3012,2.3078,2.3045,2.3001,2.3056,2.3001,2.3001,2.3001,2.3001,2.3038,2.3038,2.3534,2.4312,2.504,2.5497,2.5615,2.6252,2.6641,2.6562,2.562,2.5249,2.5511,2.4713,2.4125,2.4125,2.4125,2.4125,2.4125,2.4125,2.4151,2.424,2.4178,2.4191,2.4161,2.4148,2.4125,2.4125,2.4125,2.4125,2.4125,2.4125,2.4125,2.4125,2.4125,2.4141,2.4171,2.4229,2.4255,2.4184,2.4197,2.4112,2.4223,2.4708,2.5097,2.5223,2.5511,2.5884,2.6028,2.6041,2.6308,2.6621,2.6817,2.7092,2.734,2.7503,2.7503,2.7503,2.749,2.7503,2.7503,2.7503,2.7503,2.7503,2.7451,2.7372,2.7177,2.6367,2.5332,2.3684,2.2388,2.1569,2.0848,2.0183,1.9704,1.9506,1.9363,1.9198,1.8898,1.8509,1.8104,2.7228,2.6726,2.6289,2.6092,2.607,2.5939,2.5895,2.5895,2.5753,2.5196,2.4585,2.4355,2.3766,2.3056,2.3001,2.3001,2.3001,2.3001,2.3001,2.3001,2.3001,2.3001,2.3001,2.3001,2.3001,2.3001,2.3001,2.3001,2.3001,2.3001,2.3001,2.3001,2.3001,2.3038,2.3038,2.3522,2.4204,2.4969,2.5709,2.6197,2.6387,2.6583,2.6706,2.6627,2.5981,2.5694,2.5688,2.4726,2.4125,2.4125,2.4125,2.4125,2.4125,2.4125,2.4269,2.4543,2.4334,2.4308,2.4543,2.4334,2.4138,2.4125,2.4125,2.4125,2.4125,2.4125,2.4125,2.4125,2.4125,2.4303,2.4649,2.475,2.475,2.4692,2.4476,2.4316,2.4598,2.4905,2.5149,2.5563,2.6073,2.6478,2.6857,2.6955,2.7007,2.7163,2.7262,2.7301,2.7438,2.7503,2.7503,2.749,2.749,2.749,2.7503,2.7503,2.7503,2.7503,2.7385,2.7177,2.6739,2.5968,2.4769,2.3379,2.2537,2.1721,2.106,2.0399,2.0074,1.9726,1.9539,1.9407,1.9241,1.8931,1.8586,2.7304,2.6824,2.6409,2.6212,2.6168,2.5994,2.5895,2.5852,2.5655,2.5196,2.4563,2.4246,2.3733,2.3045,2.3001,2.3001,2.3001,2.3001,2.3001,2.3001,2.3001,2.3001,2.3001,2.3001,2.3001,2.3001,2.3001,2.3001,2.3001,2.3001,2.3001,2.3001,2.3001,2.3139,2.3522,2.3877,2.466,2.5616,2.6208,2.6578,2.6987,2.7308,2.7223,2.7066,2.6661,2.6321,2.5537,2.4805,2.4387,2.4191,2.4125,2.4125,2.4125,2.4125,2.4282,2.4596,2.4253,2.4282,2.4465,2.4295,2.4138,2.4125,2.4125,2.4125,2.4125,2.4112,2.4141,2.4447,2.4476,2.4765,2.5175,2.5342,2.5453,2.5619,2.5188,2.4778,2.4706,2.4856,2.5216,2.5695,2.6125,2.6648,2.7346,2.7477,2.7503,2.749,2.7438,2.7464,2.7503,2.7503,2.7503,2.749,2.7406,2.7294,2.732,2.7333,2.7359,2.7385,2.6929,2.6817,2.6321,2.5589,2.4806,2.3734,2.2776,2.2009,2.1573,2.0996,2.028,1.9998,1.9813,1.9615,1.944,1.9341,1.8998,2.7707,2.7282,2.6824,2.6628,2.6508,2.6179,2.5972,2.5819,2.5554,2.5011,2.4497,2.4006,2.3591,2.3012,2.3001,2.3001,2.3001,2.3001,2.3102,2.3091,2.3102,2.3065,2.3213,2.3075,2.3038,2.3001,2.3001,2.3001,2.3001,2.3001,2.3001,2.3065,2.3102,2.346,2.3975,2.4301,2.5122,2.6104,2.6517,2.6879,2.7423,2.7863,2.7889,2.7411,2.7223,2.6569,2.5628,2.5044,2.4726,2.423,2.4135,2.4125,2.4125,2.4125,2.4138,2.4135,2.4122,2.4138,2.4138,2.4164,2.4125,2.4125,2.4125,2.4125,2.4112,2.4187,2.4476,2.4835,2.5033,2.5342,2.5797,2.5946,2.6176,2.6404,2.6122,2.5495,2.4692,2.4706,2.5206,2.5695,2.5793,2.6341,2.7007,2.7464,2.7503,2.7503,2.7503,2.7503,2.7503,2.7503,2.7503,2.7503,2.7307,2.7079,2.7118,2.717,2.721,2.7196,2.6459,2.608,2.5837,2.5288,2.4922,2.4159,2.3165,2.2725,2.2652,2.1916,2.0924,2.041,2.0313,1.9966,1.9638,1.9605,1.9407,2.7707,2.7304,2.7206,2.6955,2.6606,2.6507,2.6192,2.5874,2.5764,2.5207,2.4596,2.4344,2.3787,2.3001,2.3001,2.3001,2.3038,2.3065,2.3276,2.3768,2.3213,2.3386,2.3559,2.3287,2.3038,2.3001,2.3001,2.3001,2.3001,2.3001,2.3001,2.3065,2.3522,2.3938,2.4192,2.524,2.5988,2.6483,2.6939,2.7255,2.7527,2.8059,2.8124,2.7568,2.717,2.6752,2.6274,2.5463,2.4953,2.4743,2.44,2.4178,2.4138,2.4125,2.4125,2.4125,2.4125,2.4125,2.4125,2.4125,2.4125,2.4125,2.4125,2.4125,2.4141,2.4534,2.482,2.509,2.537,2.5878,2.6431,2.6956,2.6956,2.6852,2.693,2.6669,2.5687,2.5188,2.5302,2.5651,2.5842,2.6086,2.6811,2.7327,2.7458,2.7477,2.7536,2.7503,2.7503,2.7536,2.757,2.7556,2.7242,2.7066,2.7229,2.7229,2.717,2.7,2.6295,2.5767,2.5511,2.4949,2.4557,2.4085,2.3505,2.3305,2.3334,2.2641,2.1599,2.1224,2.0882,2.0443,2.0172,2.0031,1.978,2.8025,2.7916,2.7272,2.6977,2.6835,2.6474,2.6016,2.5622,2.5598,2.5022,2.4279,2.4137,2.3689,2.3034,2.3001,2.3001,2.3102,2.3375,2.3694,2.3975,2.3658,2.3559,2.3449,2.325,2.3001,2.3001,2.3001,2.3001,2.3001,2.3001,2.3001,2.3065,2.3756,2.4301,2.4696,2.5861,2.6517,2.6939,2.7255,2.7503,2.7581,2.8072,2.8294,2.7889,2.7379,2.6974,2.6627,2.585,2.5319,2.5005,2.4717,2.4387,2.4164,2.4125,2.4125,2.4125,2.4125,2.4125,2.4125,2.4125,2.4125,2.4125,2.4125,2.4287,2.4447,2.4835,2.53,2.5715,2.6109,2.6484,2.7049,2.7331,2.7357,2.7306,2.7397,2.7281,2.6678,2.5924,2.5616,2.598,2.5999,2.6387,2.6852,2.7321,2.7465,2.7556,2.7973,2.7941,2.7689,2.7689,2.7689,2.7624,2.7229,2.7144,2.7372,2.7359,2.7183,2.6831,2.6242,2.5858,2.561,2.4892,2.4178,2.3874,2.3718,2.3842,2.3755,2.3004,2.2662,2.2566,2.2143,2.1332,2.0628,2.0281,1.9998,2.8213,2.8486,2.736,2.7052,2.7042,2.6461,2.5815,2.527,2.5215,2.4694,2.3825,2.3733,2.3504,2.3088,2.3001,2.3038,2.3386,2.395,2.4409,2.466,2.4156,2.395,2.3644,2.3324,2.3001,2.3001,2.3001,2.3001,2.3001,2.3001,2.3001,2.3128,2.3913,2.46,2.53,2.6173,2.6871,2.7356,2.7436,2.7503,2.7594,2.8072,2.832,2.8216,2.7745,2.7288,2.6857,2.6282,2.5746,2.5293,2.5175,2.4844,2.4517,2.4227,2.4213,2.4256,2.4217,2.4125,2.4125,2.4125,2.4138,2.4191,2.4402,2.4635,2.5039,2.5588,2.6091,2.6395,2.6747,2.7023,2.7509,2.7585,2.7585,2.7604,2.7634,2.7702,2.7435,2.6654,2.6497,2.6461,2.6538,2.6846,2.7157,2.7523,2.7571,2.7696,2.8111,2.8371,2.8124,2.7829,2.7829,2.7809,2.7512,2.7236,2.7438,2.6889,2.6791,2.6465,2.5955,2.568,2.5467,2.5027,2.4413,2.4259,2.4162,2.4313,2.4429,2.4158,2.3917,2.3923,2.3128,2.1978,2.1204,2.0572,2.0226,2.7833,2.7578,2.8083,2.7683,2.6834,2.6925,2.6274,2.5344,2.5171,2.4618,2.376,2.3711,2.3378,2.3099,2.3001,2.3313,2.4047,2.4767,2.5358,2.5522,2.4909,2.4348,2.436,2.357,2.3102,2.3001,2.3001,2.3001,2.3001,2.3001,2.3075,2.3324,2.436,2.5158,2.5652,2.653,2.7255,2.7456,2.7503,2.7503,2.762,2.7994,2.8328,2.8255,2.7785,2.7464,2.7275,2.6831,2.651,2.636,2.5942,2.5636,2.5432,2.5079,2.4913,2.4687,2.44,2.4217,2.4138,2.4125,2.4374,2.4823,2.5199,2.5468,2.594,2.6919,2.7211,2.7026,2.7196,2.7458,2.756,2.766,2.7615,2.772,2.8008,2.8121,2.7691,2.7372,2.7043,2.6869,2.7053,2.7198,2.7407,2.7611,2.779,2.7832,2.8026,2.852,2.868,2.8247,2.7894,2.7868,2.7815,2.7604,2.7503,2.6641,2.6125,2.5876,2.5458,2.5079,2.4936,2.4966,2.4766,2.4875,2.4806,2.4832,2.4931,2.5003,2.4827,2.4506,2.3533,2.2507,2.1623,2.088,2.0324,2.7272,2.7294,2.7469,2.7193,2.6668,2.651,2.6024,2.5171,2.4639,2.417,2.3755,2.3433,2.323,2.3146,2.346,2.4156,2.5158,2.5639,2.6104,2.6126,2.5662,2.4909,2.4814,2.3841,2.3386,2.3102,2.3001,2.3038,2.3001,2.3001,2.3213,2.3779,2.4755,2.5488,2.6013,2.6905,2.7423,2.7503,2.7503,2.7503,2.7503,2.785,2.7928,2.7863,2.7699,2.7516,2.7385,2.6974,2.6719,2.6641,2.6399,2.6282,2.6177,2.6026,2.5594,2.5097,2.47,2.4387,2.4191,2.4125,2.4213,2.4508,2.5183,2.5567,2.6099,2.7018,2.7918,2.7851,2.7409,2.7585,2.76,2.7869,2.7929,2.7779,2.8188,2.8233,2.7838,2.7706,2.7496,2.72,2.7043,2.7126,2.7376,2.7633,2.7917,2.8021,2.8035,2.8488,2.9059,2.8648,2.808,2.792,2.7848,2.7472,2.7281,2.6713,2.5903,2.5524,2.5341,2.4949,2.4949,2.5223,2.562,2.589,2.5746,2.5524,2.5558,2.5675,2.5381,2.5075,2.4299,2.3347,2.2104,2.1187,2.0579,2.6736,2.6998,2.6822,2.6635,2.6433,2.6188,2.5676,2.4948,2.421,2.3738,2.3525,2.3374,2.3261,2.3486,2.4228,2.5264,2.6414,2.6496,2.6654,2.6633,2.6346,2.5592,2.4696,2.4228,2.3986,2.3423,2.3655,2.3287,2.3038,2.3001,2.3423,2.407,2.4862,2.5652,2.638,2.7121,2.739,2.7503,2.7503,2.7503,2.7503,2.7503,2.7503,2.7503,2.7503,2.7503,2.7451,2.7157,2.6935,2.6909,2.6857,2.6844,2.6844,2.6844,2.6308,2.5398,2.5083,2.473,2.4439,2.4125,2.4204,2.4508,2.5024,2.5548,2.6078,2.7086,2.7942,2.8322,2.8019,2.76,2.766,2.8064,2.8128,2.8158,2.8382,2.8652,2.8378,2.8215,2.8147,2.7764,2.7223,2.7301,2.7738,2.8193,2.8624,2.8494,2.8507,2.8563,2.9021,2.8726,2.8293,2.8044,2.7795,2.7328,2.704,2.6857,2.6125,2.5576,2.5576,2.5427,2.5571,2.5837,2.6112,2.6261,2.6543,2.636,2.636,2.6216,2.5907,2.5549,2.5078,2.4123,2.2738,2.142,2.0563,2.6329,2.6143,2.7265,2.7053,2.6127,2.6553,2.5911,2.4558,2.428,2.3774,2.3235,2.3677,2.3902,2.4325,2.544,2.6161,2.6552,2.6973,2.7209,2.7154,2.6735,2.607,2.5264,2.5158,2.4707,2.4168,2.4623,2.4154,2.3567,2.3283,2.353,2.4298,2.5123,2.5711,2.6712,2.7227,2.7469,2.7503,2.7503,2.7503,2.7503,2.7503,2.7503,2.7503,2.7503,2.7503,2.7503,2.7333,2.732,2.7333,2.7359,2.7385,2.7398,2.7385,2.6759,2.5942,2.5301,2.4966,2.4713,2.436,2.4269,2.4751,2.5691,2.6383,2.6862,2.7186,2.7887,2.8487,2.7989,2.7615,2.76,2.772,2.7989,2.8442,2.8891,2.925,2.9202,2.8532,2.8505,2.8419,2.7908,2.8095,2.8423,2.8899,2.9303,2.9112,2.8964,2.8919,2.8796,2.8393,2.8062,2.7719,2.7558,2.7118,2.6922,2.6745,2.6295,2.5667,2.5811,2.591,2.6099,2.6203,2.6007,2.6203,2.6634,2.6948,2.6791,2.6595,2.6386,2.594,2.537,2.4373,2.3221,2.1988,2.0749,2.6557,2.5957,2.6736,2.6737,2.6235,2.6213,2.5847,2.5099,2.4265,2.3749,2.3517,2.3858,2.4552,2.5405,2.6208,2.662,2.7007,2.7356,2.7503,2.7503,2.7108,2.6586,2.6082,2.5908,2.5534,2.504,2.5052,2.4981,2.4441,2.4601,2.4985,2.5228,2.5983,2.6869,2.7224,2.7452,2.7496,2.7503,2.7503,2.7503,2.7503,2.7503,2.7503,2.7503,2.7503,2.7503,2.7503,2.7503,2.7503,2.7503,2.7503,2.7503,2.749,2.7438,2.7118,2.6412,2.5772,2.5171,2.4557,2.4269,2.4321,2.4656,2.5598,2.6577,2.7356,2.7639,2.7884,2.8532,2.7989,2.7645,2.7705,2.7974,2.8248,2.8712,2.9322,2.9577,2.9609,2.9131,2.8775,2.8712,2.8659,2.8754,2.8785,2.877,2.8898,2.8654,2.8412,2.8239,2.8003,2.7651,2.7363,2.7104,2.7033,2.6915,2.6837,2.6693,2.6321,2.5929,2.6203,2.6334,2.6478,2.6478,2.6386,2.6399,2.6778,2.6987,2.7053,2.6987,2.6804,2.6251,2.563,2.4684,2.3715,2.2488,2.1319,2.6802,2.606,2.642,2.6393,2.6079,2.566,2.5521,2.5365,2.4399,2.3942,2.41,2.451,2.5487,2.6414,2.6735,2.7019,2.7469,2.7503,2.7503,2.7503,2.739,2.7007,2.6598,2.6427,2.6277,2.5581,2.5931,2.5756,2.5845,2.6137,2.6477,2.6237,2.6503,2.729,2.7803,2.7725,2.7503,2.7503,2.7503,2.7503,2.7503,2.7503,2.7503,2.7503,2.7503,2.7503,2.7503,2.7503,2.7503,2.7503,2.7503,2.7503,2.7503,2.7464,2.7223,2.6674,2.619,2.5537,2.4779,2.4282,2.4151,2.4435,2.5131,2.6441,2.7575,2.7702,2.772,2.8233,2.7929,2.763,2.772,2.8158,2.8622,2.9011,2.9517,2.9786,2.9924,2.9624,2.931,2.9146,2.9116,2.9131,2.9018,2.8605,2.8418,2.819,2.7927,2.7582,2.7241,2.6903,2.6697,2.647,2.6438,2.6373,2.6235,2.617,2.5955,2.6112,2.6386,2.6627,2.668,2.6909,2.704,2.7079,2.7027,2.6974,2.7,2.7118,2.717,2.6479,2.5816,2.5167,2.4218,2.3004,2.1796,2.6891,2.6487,2.6853,2.6279,2.515,2.5354,2.5233,2.5066,2.4716,2.4599,2.4825,2.5687,2.6471,2.7175,2.7289,2.7369,2.7503,2.7503,2.7503,2.7503,2.7436,2.7108,2.6871,2.6918,2.7007,2.653,2.6701,2.6701,2.67,2.7296,2.7154,2.6634,2.7019,2.7169,2.7509,2.7889,2.7568,2.7529,2.7503,2.7503,2.7503,2.7503,2.7503,2.7503,2.7503,2.7503,2.7503,2.7503,2.7503,2.7503,2.7503,2.7503,2.7503,2.7503,2.7236,2.6634,2.6438,2.5733,2.4896,2.44,2.4178,2.4445,2.5073,2.6049,2.7035,2.7451,2.7584,2.7829,2.7854,2.7824,2.7914,2.8214,2.8921,2.9475,2.9968,3.0387,3.0522,3.0342,3.0028,2.9726,2.9495,2.933,2.918,2.876,2.8406,2.8205,2.7139,2.6792,2.6486,2.6169,2.5989,2.585,2.5845,2.572,2.5398,2.5411,2.5746,2.5994,2.6274,2.6523,2.6706,2.7,2.7372,2.7275,2.7118,2.7027,2.6961,2.7092,2.7027,2.6556,2.6009,2.5462,2.4555,2.3344,2.2118,2.7584,2.6905,2.6742,2.6342,2.5761,2.5015,2.5058,2.5444,2.498,2.5146,2.5779,2.6242,2.6803,2.7323,2.7503,2.7503,2.7503,2.7503,2.7503,2.7503,2.7423,2.7323,2.7255,2.7255,2.7356,2.7167,2.7416,2.7704,2.7752,2.7892,2.791,2.7692,2.7785,2.8575,2.8812,2.8268,2.7863,2.7542,2.7503,2.7503,2.7503,2.7503,2.7503,2.7503,2.7503,2.7503,2.7503,2.7503,2.7503,2.7503,2.7503,2.7503,2.7503,2.7503,2.7092,2.6399,2.6282,2.5654,2.487,2.4547,2.4682,2.4704,2.5132,2.5674,2.6472,2.6933,2.7536,2.7869,2.8151,2.8092,2.879,2.9071,2.946,2.9983,3.0434,3.0841,3.0801,3.0522,3.0345,2.9847,2.9469,2.9182,2.9056,2.8872,2.8534,2.8165,2.6987,2.5966,2.5695,2.5455,2.527,2.5262,2.5258,2.544,2.5184,2.5406,2.5662,2.5837,2.6052,2.6353,2.6614,2.7157,2.7411,2.7327,2.7236,2.7157,2.7105,2.7118,2.6948,2.6661,2.6322,2.5882,2.4823,2.3661,2.2778,2.7918,2.7123,2.6574,2.634,2.6128,2.4904,2.5051,2.5924,2.5515,2.5779,2.6735,2.679,2.704,2.7423,2.7556,2.759,2.759,2.757,2.759,2.759,2.759,2.7556,2.757,2.7562,2.7594,2.768,2.7581,2.7717,2.82,2.7751,2.7868,2.8286,2.8813,2.9118,2.9144,2.8856,2.8098,2.7633,2.7503,2.7503,2.7503,2.7503,2.7503,2.7503,2.7503,2.7503,2.7503,2.7503,2.7503,2.7503,2.7503,2.7503,2.7503,2.7372,2.6987,2.6438,2.5942,2.5497,2.4805,2.4498,2.4738,2.4587,2.4892,2.5439,2.5988,2.6481,2.718,2.7698,2.8054,2.8517,2.9114,2.9147,2.9226,2.9594,3.0263,3.066,3.0411,3.0161,3.0133,2.9944,2.958,2.9187,2.8695,2.8474,2.782,2.7456,2.6637,2.5582,2.4918,2.4701,2.458,2.4622,2.4713,2.4949,2.5171,2.5101,2.5062,2.5153,2.5458,2.6073,2.6478,2.7053,2.7438,2.7411,2.7333,2.7288,2.7262,2.7262,2.7105,2.6863,2.64,2.5803,2.5169,2.4109,2.3883,2.7651,2.7046,2.6479,2.6224,2.6201,2.5122,2.5347,2.6342,2.6371,2.6722,2.739,2.7577,2.759,2.7623,2.7723,2.7776,2.7756,2.7623,2.7703,2.7868,2.7623,2.7656,2.7656,2.7676,2.7693,2.8085,2.7889,2.779,2.836,2.7798,2.7902,2.8229,2.8538,2.8603,2.8499,2.8446,2.8072,2.7581,2.749,2.7333,2.749,2.7438,2.7359,2.7503,2.7503,2.7503,2.7503,2.7503,2.7503,2.7503,2.7503,2.7503,2.7503,2.7411,2.7066,2.6543,2.6452,2.5947,2.5044,2.4465,2.4262,2.4313,2.462,2.5005,2.5311,2.5924,2.6792,2.7341,2.7485,2.7724,2.8151,2.8668,2.8926,2.9257,2.9898,3.0145,2.9905,2.9897,2.9859,2.9741,2.9539,2.9204,2.8597,2.7977,2.7151,2.6557,2.6038,2.5325,2.4596,2.437,2.44,2.4347,2.4491,2.4713,2.4909,2.4583,2.4461,2.4566,2.4984,2.5746,2.6308,2.6804,2.7157,2.7385,2.7438,2.7353,2.7346,2.7385,2.6968,2.653,2.6046,2.5501,2.4965,2.4717,2.4576,2.8198,2.7952,2.7179,2.7274,2.7634,2.5875,2.5756,2.6688,2.7053,2.7356,2.7643,2.7789,2.7868,2.7901,2.7934,2.7987,2.7954,2.7789,2.7888,2.8013,2.7703,2.7689,2.7689,2.7683,2.7667,2.7686,2.7581,2.7824,2.836,2.7764,2.7902,2.8276,2.8328,2.842,2.8302,2.8085,2.7667,2.7359,2.6929,2.6654,2.7346,2.7223,2.717,2.7477,2.7503,2.7503,2.7503,2.7503,2.7503,2.7503,2.7503,2.7477,2.7372,2.7242,2.6726,2.6151,2.5863,2.521,2.4583,2.4148,2.4138,2.4226,2.4316,2.462,2.5003,2.5254,2.6088,2.6902,2.7054,2.7614,2.8752,2.8771,2.8884,2.8926,2.9304,2.9375,2.9308,2.9501,2.9558,2.9389,2.9213,2.8625,2.8023,2.7845,2.7153,2.6587,2.6161,2.5621,2.4964,2.476,2.473,2.4478,2.4478,2.4635,2.47,2.4792,2.4892,2.514,2.5336,2.5675,2.6216,2.6713,2.6896,2.717,2.7281,2.7385,2.7223,2.6961,2.6504,2.6033,2.5973,2.5934,2.573,2.5594,2.5516,2.8285,2.7937,2.7693,2.7773,2.7908,2.6636,2.6656,2.748,2.7628,2.7723,2.7888,2.7954,2.7987,2.8099,2.8131,2.8164,2.8118,2.8,2.8052,2.8177,2.7914,2.7868,2.7822,2.7782,2.7866,2.7747,2.7687,2.7891,2.832,2.7764,2.7712,2.7954,2.8098,2.8033,2.7981,2.7876,2.7628,2.7301,2.6791,2.6889,2.7255,2.7288,2.7163,2.7398,2.7503,2.7503,2.7503,2.7503,2.7503,2.7503,2.7477,2.7385,2.7196,2.6857,2.6282,2.5654,2.521,2.4809,2.4557,2.4478,2.4491,2.4508,2.4269,2.43,2.4658,2.4945,2.5538,2.6208,2.6634,2.7391,2.8188,2.8184,2.8543,2.8584,2.8654,2.872,2.8528,2.8712,2.8807,2.868,2.8583,2.7993,2.7643,2.7525,2.7249,2.6823,2.6353,2.5882,2.5411,2.524,2.5136,2.4949,2.4883,2.5132,2.5315,2.5432,2.5558,2.5741,2.5871,2.602,2.6347,2.6857,2.6896,2.6961,2.7262,2.7327,2.6844,2.651,2.6438,2.6452,2.6491,2.6465,2.6452,2.6201,2.5915,2.7885,2.7146,2.7938,2.7718,2.7036,2.7341,2.7928,2.8567,2.8026,2.7934,2.8112,2.8203,2.8249,2.8164,2.8268,2.8333,2.8268,2.8164,2.8295,2.8373,2.8145,2.8099,2.8066,2.8013,2.802,2.8071,2.8044,2.79,2.8263,2.7898,2.7642,2.7589,2.7714,2.7635,2.7654,2.7771,2.7589,2.721,2.687,2.7033,2.7333,2.7242,2.7229,2.7359,2.7398,2.7411,2.7438,2.7503,2.7503,2.7477,2.7425,2.7157,2.687,2.6667,2.5934,2.5319,2.4953,2.4953,2.4926,2.4887,2.5031,2.4936,2.4504,2.4298,2.4262,2.459,2.5067,2.5535,2.5944,2.64,2.686,2.7466,2.8032,2.8085,2.8139,2.799,2.765,2.7664,2.7729,2.7743,2.7776,2.7523,2.7497,2.7398,2.7196,2.7066,2.67,2.6504,2.6059,2.568,2.5602,2.5602,2.5571,2.5772,2.5929,2.6073,2.6224,2.6419,2.6373,2.6478,2.6791,2.6909,2.6922,2.704,2.7353,2.7327,2.7027,2.687,2.6804,2.6817,2.6621,2.6203,2.5929,2.6007,2.5844,2.7971,2.8021,2.7967,2.8148,2.8462,2.8491,2.8449,2.8266,2.8053,2.8099,2.8249,2.8254,2.8333,2.8457,2.8476,2.8509,2.8444,2.8379,2.8411,2.8392,2.8308,2.8229,2.8151,2.8066,2.8067,2.806,2.8,2.7914,2.81,2.7901,2.7789,2.7769,2.7656,2.7426,2.7347,2.7497,2.7432,2.7236,2.6824,2.7007,2.7111,2.6915,2.7046,2.7255,2.721,2.7262,2.7425,2.749,2.7503,2.749,2.7131,2.6824,2.6771,2.5973,2.5083,2.457,2.4674,2.5005,2.507,2.5354,2.555,2.5393,2.4988,2.4504,2.4334,2.4374,2.4678,2.511,2.5581,2.6117,2.6614,2.7143,2.7498,2.7564,2.7657,2.7637,2.7359,2.7385,2.7438,2.7346,2.7346,2.7333,2.732,2.7131,2.6935,2.704,2.7013,2.6831,2.67,2.6308,2.6132,2.6145,2.6255,2.6399,2.6595,2.6752,2.6915,2.7059,2.6948,2.6824,2.6863,2.6909,2.6922,2.7092,2.7366,2.7411,2.7346,2.717,2.6831,2.6582,2.636,2.585,2.5484,2.5589,2.5524,2.8064,2.8178,2.8142,2.846,2.8879,2.8832,2.8571,2.8302,2.821,2.8281,2.8398,2.843,2.8476,2.8554,2.8587,2.8587,2.8587,2.8476,2.8509,2.849,2.8373,2.8295,2.8183,2.8105,2.8046,2.7967,2.7901,2.7914,2.7934,2.7868,2.7769,2.7656,2.7676,2.7413,2.7295,2.7432,2.749,2.7268,2.7046,2.7007,2.6902,2.6798,2.7098,2.7216,2.7092,2.7216,2.7425,2.749,2.7503,2.7425,2.6974,2.6719,2.6601,2.5811,2.5123,2.4805,2.5328,2.5515,2.5497,2.5584,2.5728,2.568,2.5341,2.49,2.4635,2.4622,2.4796,2.5057,2.5515,2.5986,2.647,2.6889,2.6994,2.7085,2.721,2.7366,2.7346,2.7372,2.7281,2.7196,2.7157,2.7131,2.7013,2.6811,2.6732,2.6831,2.6883,2.6837,2.6857,2.6844,2.6746,2.6785,2.6863,2.7013,2.717,2.7223,2.7255,2.7294,2.7242,2.7131,2.7013,2.704,2.7196,2.7262,2.734,2.7353,2.7301,2.6974,2.668,2.6452,2.6216,2.5785,2.5419,2.5293,2.5105,2.8201,2.7837,2.8356,2.8579,2.8609,2.8627,2.8582,2.8587,2.8411,2.8444,2.8554,2.8587,2.8587,2.8587,2.8587,2.8587,2.8587,2.8554,2.8554,2.8587,2.8554,2.8425,2.8327,2.836,2.8131,2.7901,2.7802,2.7934,2.7656,2.7703,2.7736,2.7536,2.7556,2.7478,2.7432,2.7438,2.7503,2.7425,2.7359,2.7359,2.7372,2.7411,2.7451,2.7451,2.7398,2.7398,2.7464,2.7503,2.7503,2.732,2.7066,2.6745,2.6347,2.6073,2.5484,2.5528,2.5986,2.5955,2.5929,2.6015,2.6046,2.585,2.5432,2.5371,2.5332,2.5092,2.5171,2.5371,2.5829,2.6209,2.6667,2.7066,2.7262,2.7255,2.7346,2.7425,2.7425,2.7385,2.7275,2.717,2.7131,2.7066,2.6634,2.6438,2.6706,2.6758,2.6771,2.6758,2.6974,2.7183,2.7203,2.7268,2.7255,2.7268,2.7333,2.7385,2.7425,2.7451,2.7425,2.7411,2.7288,2.7333,2.7477,2.7451,2.7385,2.7223,2.7079,2.6935,2.6791,2.6517,2.6229,2.5772,2.5458,2.5319,2.4779,2.8138,2.8391,2.8525,2.8611,2.86,2.8587,2.8587,2.8587,2.8554,2.8554,2.8587,2.8587,2.8587,2.8587,2.8587,2.8587,2.8587,2.8587,2.8587,2.8587,2.8587,2.8444,2.8281,2.8333,2.8183,2.8112,2.8046,2.7967,2.7835,2.7835,2.7835,2.7723,2.7689,2.7623,2.749,2.749,2.7536,2.7536,2.7536,2.7536,2.751,2.7183,2.7013,2.721,2.7301,2.7275,2.7333,2.7503,2.7503,2.7398,2.6961,2.6517,2.6046,2.5884,2.5754,2.5798,2.6295,2.6321,2.6282,2.6432,2.6687,2.653,2.6327,2.6327,2.6151,2.5824,2.572,2.589,2.6138,2.6536,2.6863,2.7236,2.7503,2.7503,2.7503,2.7503,2.7516,2.7411,2.7301,2.721,2.717,2.6844,2.6425,2.636,2.6614,2.6719,2.6719,2.6824,2.7196,2.7411,2.7398,2.7438,2.7425,2.7451,2.7503,2.7503,2.7503,2.7503,2.7464,2.7477,2.7503,2.7503,2.7503,2.7503,2.7438,2.7314,2.7275,2.7327,2.7144,2.6785,2.6399,2.602,2.5837,2.5667,2.4896,2.8341,2.8588,2.8602,2.8587,2.8587,2.8587,2.8587,2.8587,2.8587,2.8587,2.8587,2.8587,2.8587,2.8587,2.8587,2.8587,2.8587,2.8587,2.8587,2.8587,2.8509,2.8398,2.832,2.8287,2.8105,2.802,2.7868,2.7802,2.7868,2.7802,2.7736,2.7689,2.7656,2.7623,2.7523,2.7556,2.7623,2.7656,2.7623,2.7623,2.759,2.7308,2.7157,2.734,2.7294,2.7255,2.732,2.7503,2.7503,2.7464,2.721,2.6817,2.6543,2.6556,2.6465,2.6452,2.6634,2.6804,2.6648,2.6831,2.7236,2.6896,2.6987,2.6935,2.6667,2.6334,2.6412,2.6582,2.6817,2.7144,2.717,2.7438,2.749,2.7503,2.7555,2.7581,2.7824,2.7954,2.768,2.7379,2.7288,2.7079,2.6713,2.6536,2.6811,2.7236,2.7157,2.717,2.7523,2.7686,2.7673,2.7594,2.7555,2.7516,2.7503,2.7503,2.7503,2.7503,2.7503,2.7503,2.7503,2.7503,2.7503,2.7503,2.7503,2.7477,2.7464,2.7425,2.7438,2.7177,2.6765,2.6308,2.6177,2.602,2.5419,2.859,2.8591,2.8608,2.8587,2.8587,2.8587,2.8587,2.8587,2.8587,2.8587,2.8587,2.8587,2.8587,2.8587,2.8587,2.8587,2.8587,2.8587,2.8587,2.8554,2.8411,2.83,2.83,2.8254,2.8137,2.7941,2.7756,2.7656,2.7669,2.7603,2.757,2.7503,2.7503,2.7536,2.759,2.7676,2.7789,2.7822,2.7822,2.7789,2.7723,2.7623,2.751,2.7477,2.7503,2.7503,2.7503,2.7503,2.7503,2.7477,2.7425,2.715,2.704,2.7066,2.7027,2.7013,2.7118,2.7066,2.6883,2.7118,2.7079,2.6974,2.7327,2.734,2.7027,2.6974,2.704,2.717,2.7359,2.7451,2.7464,2.749,2.7516,2.7555,2.762,2.7764,2.8098,2.8407,2.8046,2.768,2.7628,2.7458,2.7013,2.6824,2.7196,2.7654,2.7863,2.7876,2.7915,2.7994,2.8033,2.7837,2.7633,2.7581,2.7516,2.7503,2.7503,2.7503,2.7503,2.7503,2.7503,2.7503,2.7503,2.7503,2.7503,2.7503,2.7398,2.7307,2.7333,2.7438,2.6974,2.6504,2.653,2.6347,2.6039,2.8576,2.8606,2.8595,2.8587,2.8587,2.8587,2.8587,2.8587,2.8587,2.8587,2.8587,2.8587,2.8587,2.8587,2.8587,2.8587,2.8587,2.8587,2.8587,2.8554,2.8379,2.8249,2.8183,2.8203,2.8268,2.8072,2.7842,2.7743,2.7623,2.7536,2.7503,2.7503,2.7503,2.7556,2.7756,2.7822,2.7855,2.7934,2.7855,2.7822,2.7756,2.7623,2.7536,2.7503,2.7503,2.7503,2.7503,2.7503,2.7503,2.7503,2.749,2.7398,2.7359,2.7372,2.7333,2.7307,2.7438,2.7236,2.7144,2.7392,2.7301,2.6961,2.7275,2.7562,2.7366,2.7294,2.7333,2.7346,2.7503,2.7516,2.7529,2.7581,2.7607,2.7686,2.7764,2.8098,2.8412,2.8529,2.8451,2.849,2.8621,2.802,2.7183,2.7379,2.8059,2.8438,2.866,2.8647,2.8373,2.836,2.8412,2.8177,2.7928,2.7594,2.7503,2.7503,2.7503,2.7503,2.7503,2.7503,2.7503,2.7503,2.7503,2.7503,2.7503,2.7503,2.7372,2.7294,2.7372,2.7411,2.7,2.6719,2.6771,2.6797,2.6622]}]]